<?xml version="1.0" encoding="UTF-8" standalone="yes"?>
<gpx
 xmlns="http://www.topografix.com/GPX/1/1"
 creator="OziExplorer Version 3956f - http://www.oziexplorer.com"
 version="1.1"
 xmlns:xsi="http://www.w3.org/2001/XMLSchema-instance"
 xsi:schemaLocation="http://www.topografix.com/GPX/1/1 http://www.topografix.com/GPX/1/1/gpx.xsd">
<metadata>
 <time>2024-04-12T11:04:45Z</time>
 <bounds minlat="44.266802" minlon="14.742857" maxlat="44.391201" maxlon="14.797019"/>
</metadata>
<trk>
 <name>291 Ist Mavrela</name>
 <desc>291 Ist Mavrela</desc>
<trkseg>
<trkpt lat="44.2760200" lon="14.7610210">
<ele>0.400000</ele>
<time>2024-04-12T13:04:45.173Z</time>
</trkpt>
<trkpt lat="44.2759960" lon="14.7610060">
<ele>0.463000</ele>
<time>2024-04-12T13:04:45.173Z</time>
</trkpt>
<trkpt lat="44.2759720" lon="14.7609910">
<ele>0.484000</ele>
<time>2024-04-12T13:04:45.173Z</time>
</trkpt>
<trkpt lat="44.2759460" lon="14.7609500">
<ele>0.532000</ele>
<time>2024-04-12T13:04:45.173Z</time>
</trkpt>
<trkpt lat="44.2759210" lon="14.7609080">
<ele>0.524000</ele>
<time>2024-04-12T13:04:45.173Z</time>
</trkpt>
<trkpt lat="44.2758960" lon="14.7608990">
<ele>0.481000</ele>
<time>2024-04-12T13:04:45.173Z</time>
</trkpt>
<trkpt lat="44.2758710" lon="14.7608890">
<ele>0.605000</ele>
<time>2024-04-12T13:04:45.173Z</time>
</trkpt>
<trkpt lat="44.2758600" lon="14.7608660">
<ele>0.703000</ele>
<time>2024-04-12T13:04:45.173Z</time>
</trkpt>
<trkpt lat="44.2758690" lon="14.7608060">
<ele>0.553000</ele>
<time>2024-04-12T13:04:45.173Z</time>
</trkpt>
<trkpt lat="44.2758790" lon="14.7607460">
<ele>0.518000</ele>
<time>2024-04-12T13:04:45.173Z</time>
</trkpt>
<trkpt lat="44.2758860" lon="14.7607080">
<ele>0.539000</ele>
<time>2024-04-12T13:04:45.173Z</time>
</trkpt>
<trkpt lat="44.2758740" lon="14.7606630">
<ele>0.642000</ele>
<time>2024-04-12T13:04:45.173Z</time>
</trkpt>
<trkpt lat="44.2758800" lon="14.7606270">
<ele>0.791000</ele>
<time>2024-04-12T13:04:45.173Z</time>
</trkpt>
<trkpt lat="44.2758490" lon="14.7605960">
<ele>0.796000</ele>
<time>2024-04-12T13:04:45.173Z</time>
</trkpt>
<trkpt lat="44.2758190" lon="14.7605960">
<ele>0.907000</ele>
<time>2024-04-12T13:04:45.173Z</time>
</trkpt>
<trkpt lat="44.2757890" lon="14.7605950">
<ele>1.163000</ele>
<time>2024-04-12T13:04:45.173Z</time>
</trkpt>
<trkpt lat="44.2757650" lon="14.7606070">
<ele>1.311000</ele>
<time>2024-04-12T13:04:45.173Z</time>
</trkpt>
<trkpt lat="44.2757400" lon="14.7606200">
<ele>1.506000</ele>
<time>2024-04-12T13:04:45.173Z</time>
</trkpt>
<trkpt lat="44.2757140" lon="14.7606310">
<ele>1.656000</ele>
<time>2024-04-12T13:04:45.173Z</time>
</trkpt>
<trkpt lat="44.2756880" lon="14.7606420">
<ele>1.771000</ele>
<time>2024-04-12T13:04:45.173Z</time>
</trkpt>
<trkpt lat="44.2756580" lon="14.7606510">
<ele>1.920000</ele>
<time>2024-04-12T13:04:45.173Z</time>
</trkpt>
<trkpt lat="44.2756270" lon="14.7606610">
<ele>2.139000</ele>
<time>2024-04-12T13:04:45.173Z</time>
</trkpt>
<trkpt lat="44.2755880" lon="14.7606670">
<ele>2.436000</ele>
<time>2024-04-12T13:04:45.173Z</time>
</trkpt>
<trkpt lat="44.2755500" lon="14.7606740">
<ele>2.619000</ele>
<time>2024-04-12T13:04:45.173Z</time>
</trkpt>
<trkpt lat="44.2755220" lon="14.7606670">
<ele>2.756000</ele>
<time>2024-04-12T13:04:45.173Z</time>
</trkpt>
<trkpt lat="44.2754950" lon="14.7606600">
<ele>3.111000</ele>
<time>2024-04-12T13:04:45.173Z</time>
</trkpt>
<trkpt lat="44.2754780" lon="14.7606360">
<ele>3.319000</ele>
<time>2024-04-12T13:04:45.173Z</time>
</trkpt>
<trkpt lat="44.2754600" lon="14.7605890">
<ele>3.560000</ele>
<time>2024-04-12T13:04:45.173Z</time>
</trkpt>
<trkpt lat="44.2754530" lon="14.7605560">
<ele>3.753000</ele>
<time>2024-04-12T13:04:45.173Z</time>
</trkpt>
<trkpt lat="44.2754470" lon="14.7605220">
<ele>4.004000</ele>
<time>2024-04-12T13:04:45.173Z</time>
</trkpt>
<trkpt lat="44.2754510" lon="14.7604800">
<ele>4.232000</ele>
<time>2024-04-12T13:04:45.173Z</time>
</trkpt>
<trkpt lat="44.2754600" lon="14.7604540">
<ele>4.331000</ele>
<time>2024-04-12T13:04:45.173Z</time>
</trkpt>
<trkpt lat="44.2754750" lon="14.7604140">
<ele>4.447000</ele>
<time>2024-04-12T13:04:45.173Z</time>
</trkpt>
<trkpt lat="44.2754890" lon="14.7603740">
<ele>4.640000</ele>
<time>2024-04-12T13:04:45.173Z</time>
</trkpt>
<trkpt lat="44.2755120" lon="14.7603360">
<ele>4.931000</ele>
<time>2024-04-12T13:04:45.177Z</time>
</trkpt>
<trkpt lat="44.2755350" lon="14.7602980">
<ele>5.107000</ele>
<time>2024-04-12T13:04:45.177Z</time>
</trkpt>
<trkpt lat="44.2755580" lon="14.7602600">
<ele>5.349000</ele>
<time>2024-04-12T13:04:45.177Z</time>
</trkpt>
<trkpt lat="44.2755830" lon="14.7602180">
<ele>5.542000</ele>
<time>2024-04-12T13:04:45.177Z</time>
</trkpt>
<trkpt lat="44.2756090" lon="14.7601760">
<ele>5.782000</ele>
<time>2024-04-12T13:04:45.177Z</time>
</trkpt>
<trkpt lat="44.2756350" lon="14.7601340">
<ele>5.939000</ele>
<time>2024-04-12T13:04:45.177Z</time>
</trkpt>
<trkpt lat="44.2756610" lon="14.7600920">
<ele>6.043000</ele>
<time>2024-04-12T13:04:45.177Z</time>
</trkpt>
<trkpt lat="44.2756870" lon="14.7600500">
<ele>6.259000</ele>
<time>2024-04-12T13:04:45.177Z</time>
</trkpt>
<trkpt lat="44.2757090" lon="14.7600090">
<ele>6.532000</ele>
<time>2024-04-12T13:04:45.177Z</time>
</trkpt>
<trkpt lat="44.2757320" lon="14.7599690">
<ele>6.917000</ele>
<time>2024-04-12T13:04:45.177Z</time>
</trkpt>
<trkpt lat="44.2757540" lon="14.7599280">
<ele>7.172000</ele>
<time>2024-04-12T13:04:45.177Z</time>
</trkpt>
<trkpt lat="44.2757800" lon="14.7598810">
<ele>7.527000</ele>
<time>2024-04-12T13:04:45.177Z</time>
</trkpt>
<trkpt lat="44.2758050" lon="14.7598330">
<ele>7.977000</ele>
<time>2024-04-12T13:04:45.177Z</time>
</trkpt>
<trkpt lat="44.2758310" lon="14.7597840">
<ele>8.248000</ele>
<time>2024-04-12T13:04:45.177Z</time>
</trkpt>
<trkpt lat="44.2758570" lon="14.7597340">
<ele>8.547999</ele>
<time>2024-04-12T13:04:45.177Z</time>
</trkpt>
<trkpt lat="44.2758850" lon="14.7596870">
<ele>8.821000</ele>
<time>2024-04-12T13:04:45.177Z</time>
</trkpt>
<trkpt lat="44.2759140" lon="14.7596390">
<ele>9.170000</ele>
<time>2024-04-12T13:04:45.177Z</time>
</trkpt>
<trkpt lat="44.2759290" lon="14.7596120">
<ele>9.403000</ele>
<time>2024-04-12T13:04:45.177Z</time>
</trkpt>
<trkpt lat="44.2759440" lon="14.7595850">
<ele>9.668000</ele>
<time>2024-04-12T13:04:45.177Z</time>
</trkpt>
<trkpt lat="44.2759620" lon="14.7595500">
<ele>9.903000</ele>
<time>2024-04-12T13:04:45.177Z</time>
</trkpt>
<trkpt lat="44.2759810" lon="14.7595150">
<ele>10.195000</ele>
<time>2024-04-12T13:04:45.177Z</time>
</trkpt>
<trkpt lat="44.2759990" lon="14.7594800">
<ele>10.396000</ele>
<time>2024-04-12T13:04:45.177Z</time>
</trkpt>
<trkpt lat="44.2760270" lon="14.7594380">
<ele>10.709000</ele>
<time>2024-04-12T13:04:45.177Z</time>
</trkpt>
<trkpt lat="44.2760560" lon="14.7593970">
<ele>10.951000</ele>
<time>2024-04-12T13:04:45.177Z</time>
</trkpt>
<trkpt lat="44.2760850" lon="14.7593550">
<ele>11.283000</ele>
<time>2024-04-12T13:04:45.177Z</time>
</trkpt>
<trkpt lat="44.2761130" lon="14.7593090">
<ele>11.694000</ele>
<time>2024-04-12T13:04:45.177Z</time>
</trkpt>
<trkpt lat="44.2761410" lon="14.7592620">
<ele>12.110001</ele>
<time>2024-04-12T13:04:45.177Z</time>
</trkpt>
<trkpt lat="44.2761690" lon="14.7592160">
<ele>12.514000</ele>
<time>2024-04-12T13:04:45.177Z</time>
</trkpt>
<trkpt lat="44.2761940" lon="14.7591680">
<ele>12.818000</ele>
<time>2024-04-12T13:04:45.177Z</time>
</trkpt>
<trkpt lat="44.2762190" lon="14.7591190">
<ele>13.188000</ele>
<time>2024-04-12T13:04:45.177Z</time>
</trkpt>
<trkpt lat="44.2762440" lon="14.7590710">
<ele>13.517000</ele>
<time>2024-04-12T13:04:45.177Z</time>
</trkpt>
<trkpt lat="44.2762700" lon="14.7590300">
<ele>13.805000</ele>
<time>2024-04-12T13:04:45.177Z</time>
</trkpt>
<trkpt lat="44.2762970" lon="14.7589890">
<ele>14.006000</ele>
<time>2024-04-12T13:04:45.177Z</time>
</trkpt>
<trkpt lat="44.2763230" lon="14.7589480">
<ele>14.240001</ele>
<time>2024-04-12T13:04:45.177Z</time>
</trkpt>
<trkpt lat="44.2763430" lon="14.7589130">
<ele>14.483000</ele>
<time>2024-04-12T13:04:45.177Z</time>
</trkpt>
<trkpt lat="44.2763640" lon="14.7588790">
<ele>14.709000</ele>
<time>2024-04-12T13:04:45.177Z</time>
</trkpt>
<trkpt lat="44.2763840" lon="14.7588440">
<ele>14.977000</ele>
<time>2024-04-12T13:04:45.177Z</time>
</trkpt>
<trkpt lat="44.2764070" lon="14.7588020">
<ele>15.241000</ele>
<time>2024-04-12T13:04:45.177Z</time>
</trkpt>
<trkpt lat="44.2764310" lon="14.7587600">
<ele>15.578000</ele>
<time>2024-04-12T13:04:45.177Z</time>
</trkpt>
<trkpt lat="44.2764540" lon="14.7587180">
<ele>15.807000</ele>
<time>2024-04-12T13:04:45.177Z</time>
</trkpt>
<trkpt lat="44.2764780" lon="14.7586760">
<ele>16.131001</ele>
<time>2024-04-12T13:04:45.177Z</time>
</trkpt>
<trkpt lat="44.2765030" lon="14.7586320">
<ele>16.380001</ele>
<time>2024-04-12T13:04:45.177Z</time>
</trkpt>
<trkpt lat="44.2765280" lon="14.7585890">
<ele>16.619999</ele>
<time>2024-04-12T13:04:45.177Z</time>
</trkpt>
<trkpt lat="44.2765530" lon="14.7585450">
<ele>16.881001</ele>
<time>2024-04-12T13:04:45.177Z</time>
</trkpt>
<trkpt lat="44.2765780" lon="14.7585020">
<ele>17.124001</ele>
<time>2024-04-12T13:04:45.177Z</time>
</trkpt>
<trkpt lat="44.2766030" lon="14.7584580">
<ele>17.410999</ele>
<time>2024-04-12T13:04:45.177Z</time>
</trkpt>
<trkpt lat="44.2766280" lon="14.7584150">
<ele>17.595001</ele>
<time>2024-04-12T13:04:45.177Z</time>
</trkpt>
<trkpt lat="44.2766560" lon="14.7583720">
<ele>17.979000</ele>
<time>2024-04-12T13:04:45.177Z</time>
</trkpt>
<trkpt lat="44.2766840" lon="14.7583280">
<ele>18.174000</ele>
<time>2024-04-12T13:04:45.177Z</time>
</trkpt>
<trkpt lat="44.2767120" lon="14.7582850">
<ele>18.374001</ele>
<time>2024-04-12T13:04:45.177Z</time>
</trkpt>
<trkpt lat="44.2767390" lon="14.7582390">
<ele>18.701000</ele>
<time>2024-04-12T13:04:45.177Z</time>
</trkpt>
<trkpt lat="44.2767650" lon="14.7581940">
<ele>18.948999</ele>
<time>2024-04-12T13:04:45.177Z</time>
</trkpt>
<trkpt lat="44.2767920" lon="14.7581490">
<ele>19.351000</ele>
<time>2024-04-12T13:04:45.177Z</time>
</trkpt>
<trkpt lat="44.2768180" lon="14.7581030">
<ele>19.604002</ele>
<time>2024-04-12T13:04:45.177Z</time>
</trkpt>
<trkpt lat="44.2768410" lon="14.7580620">
<ele>20.036001</ele>
<time>2024-04-12T13:04:45.177Z</time>
</trkpt>
<trkpt lat="44.2768630" lon="14.7580210">
<ele>20.296001</ele>
<time>2024-04-12T13:04:45.177Z</time>
</trkpt>
<trkpt lat="44.2768860" lon="14.7579800">
<ele>20.645000</ele>
<time>2024-04-12T13:04:45.177Z</time>
</trkpt>
<trkpt lat="44.2769080" lon="14.7579390">
<ele>21.011999</ele>
<time>2024-04-12T13:04:45.177Z</time>
</trkpt>
<trkpt lat="44.2769280" lon="14.7579010">
<ele>21.207001</ele>
<time>2024-04-12T13:04:45.177Z</time>
</trkpt>
<trkpt lat="44.2769480" lon="14.7578630">
<ele>21.493999</ele>
<time>2024-04-12T13:04:45.177Z</time>
</trkpt>
<trkpt lat="44.2769680" lon="14.7578240">
<ele>21.746000</ele>
<time>2024-04-12T13:04:45.177Z</time>
</trkpt>
<trkpt lat="44.2769850" lon="14.7577880">
<ele>22.198000</ele>
<time>2024-04-12T13:04:45.177Z</time>
</trkpt>
<trkpt lat="44.2770020" lon="14.7577520">
<ele>22.414999</ele>
<time>2024-04-12T13:04:45.177Z</time>
</trkpt>
<trkpt lat="44.2770210" lon="14.7577260">
<ele>22.632000</ele>
<time>2024-04-12T13:04:45.177Z</time>
</trkpt>
<trkpt lat="44.2770390" lon="14.7577000">
<ele>22.812000</ele>
<time>2024-04-12T13:04:45.177Z</time>
</trkpt>
<trkpt lat="44.2770440" lon="14.7576710">
<ele>23.034000</ele>
<time>2024-04-12T13:04:45.177Z</time>
</trkpt>
<trkpt lat="44.2770460" lon="14.7576180">
<ele>23.379002</ele>
<time>2024-04-12T13:04:45.177Z</time>
</trkpt>
<trkpt lat="44.2770380" lon="14.7575730">
<ele>23.655001</ele>
<time>2024-04-12T13:04:45.177Z</time>
</trkpt>
<trkpt lat="44.2770290" lon="14.7575210">
<ele>23.759001</ele>
<time>2024-04-12T13:04:45.177Z</time>
</trkpt>
<trkpt lat="44.2770200" lon="14.7574690">
<ele>23.923000</ele>
<time>2024-04-12T13:04:45.177Z</time>
</trkpt>
<trkpt lat="44.2770120" lon="14.7574390">
<ele>24.096998</ele>
<time>2024-04-12T13:04:45.177Z</time>
</trkpt>
<trkpt lat="44.2770040" lon="14.7574090">
<ele>24.268999</ele>
<time>2024-04-12T13:04:45.177Z</time>
</trkpt>
<trkpt lat="44.2769860" lon="14.7573670">
<ele>24.557001</ele>
<time>2024-04-12T13:04:45.177Z</time>
</trkpt>
<trkpt lat="44.2769680" lon="14.7573250">
<ele>24.837999</ele>
<time>2024-04-12T13:04:45.177Z</time>
</trkpt>
<trkpt lat="44.2769510" lon="14.7572840">
<ele>25.129002</ele>
<time>2024-04-12T13:04:45.177Z</time>
</trkpt>
<trkpt lat="44.2769330" lon="14.7572420">
<ele>25.404001</ele>
<time>2024-04-12T13:04:45.177Z</time>
</trkpt>
<trkpt lat="44.2769120" lon="14.7571910">
<ele>25.752001</ele>
<time>2024-04-12T13:04:45.177Z</time>
</trkpt>
<trkpt lat="44.2768910" lon="14.7571410">
<ele>26.066999</ele>
<time>2024-04-12T13:04:45.177Z</time>
</trkpt>
<trkpt lat="44.2768690" lon="14.7570900">
<ele>26.296999</ele>
<time>2024-04-12T13:04:45.177Z</time>
</trkpt>
<trkpt lat="44.2768480" lon="14.7570390">
<ele>26.549000</ele>
<time>2024-04-12T13:04:45.177Z</time>
</trkpt>
<trkpt lat="44.2768270" lon="14.7569890">
<ele>26.758999</ele>
<time>2024-04-12T13:04:45.177Z</time>
</trkpt>
<trkpt lat="44.2768060" lon="14.7569380">
<ele>27.011000</ele>
<time>2024-04-12T13:04:45.177Z</time>
</trkpt>
<trkpt lat="44.2767870" lon="14.7568900">
<ele>27.205999</ele>
<time>2024-04-12T13:04:45.177Z</time>
</trkpt>
<trkpt lat="44.2767690" lon="14.7568430">
<ele>27.434999</ele>
<time>2024-04-12T13:04:45.177Z</time>
</trkpt>
<trkpt lat="44.2767510" lon="14.7567950">
<ele>27.656000</ele>
<time>2024-04-12T13:04:45.177Z</time>
</trkpt>
<trkpt lat="44.2767330" lon="14.7567470">
<ele>27.823999</ele>
<time>2024-04-12T13:04:45.177Z</time>
</trkpt>
<trkpt lat="44.2767190" lon="14.7567020">
<ele>28.070000</ele>
<time>2024-04-12T13:04:45.177Z</time>
</trkpt>
<trkpt lat="44.2767060" lon="14.7566570">
<ele>28.176001</ele>
<time>2024-04-12T13:04:45.177Z</time>
</trkpt>
<trkpt lat="44.2766920" lon="14.7566110">
<ele>28.261000</ele>
<time>2024-04-12T13:04:45.177Z</time>
</trkpt>
<trkpt lat="44.2766770" lon="14.7565600">
<ele>28.428999</ele>
<time>2024-04-12T13:04:45.177Z</time>
</trkpt>
<trkpt lat="44.2766620" lon="14.7565100">
<ele>28.503000</ele>
<time>2024-04-12T13:04:45.177Z</time>
</trkpt>
<trkpt lat="44.2766470" lon="14.7564590">
<ele>28.572001</ele>
<time>2024-04-12T13:04:45.177Z</time>
</trkpt>
<trkpt lat="44.2766320" lon="14.7564080">
<ele>28.794001</ele>
<time>2024-04-12T13:04:45.177Z</time>
</trkpt>
<trkpt lat="44.2766180" lon="14.7563580">
<ele>28.948000</ele>
<time>2024-04-12T13:04:45.177Z</time>
</trkpt>
<trkpt lat="44.2766050" lon="14.7563090">
<ele>29.049999</ele>
<time>2024-04-12T13:04:45.177Z</time>
</trkpt>
<trkpt lat="44.2765910" lon="14.7562590">
<ele>29.255001</ele>
<time>2024-04-12T13:04:45.177Z</time>
</trkpt>
<trkpt lat="44.2765770" lon="14.7562090">
<ele>29.478001</ele>
<time>2024-04-12T13:04:45.177Z</time>
</trkpt>
<trkpt lat="44.2765580" lon="14.7561540">
<ele>29.619999</ele>
<time>2024-04-12T13:04:45.177Z</time>
</trkpt>
<trkpt lat="44.2765390" lon="14.7561000">
<ele>29.861000</ele>
<time>2024-04-12T13:04:45.177Z</time>
</trkpt>
<trkpt lat="44.2765190" lon="14.7560460">
<ele>30.112000</ele>
<time>2024-04-12T13:04:45.177Z</time>
</trkpt>
<trkpt lat="44.2765020" lon="14.7559940">
<ele>30.322001</ele>
<time>2024-04-12T13:04:45.177Z</time>
</trkpt>
<trkpt lat="44.2764860" lon="14.7559420">
<ele>30.659000</ele>
<time>2024-04-12T13:04:45.177Z</time>
</trkpt>
<trkpt lat="44.2764690" lon="14.7558900">
<ele>30.867001</ele>
<time>2024-04-12T13:04:45.177Z</time>
</trkpt>
<trkpt lat="44.2764520" lon="14.7558380">
<ele>30.975000</ele>
<time>2024-04-12T13:04:45.177Z</time>
</trkpt>
<trkpt lat="44.2764350" lon="14.7557860">
<ele>31.236000</ele>
<time>2024-04-12T13:04:45.177Z</time>
</trkpt>
<trkpt lat="44.2764160" lon="14.7557400">
<ele>31.421001</ele>
<time>2024-04-12T13:04:45.177Z</time>
</trkpt>
<trkpt lat="44.2763980" lon="14.7556940">
<ele>31.636999</ele>
<time>2024-04-12T13:04:45.177Z</time>
</trkpt>
<trkpt lat="44.2763790" lon="14.7556480">
<ele>31.830999</ele>
<time>2024-04-12T13:04:45.177Z</time>
</trkpt>
<trkpt lat="44.2763580" lon="14.7556120">
<ele>31.943998</ele>
<time>2024-04-12T13:04:45.177Z</time>
</trkpt>
<trkpt lat="44.2763380" lon="14.7555760">
<ele>32.063000</ele>
<time>2024-04-12T13:04:45.177Z</time>
</trkpt>
<trkpt lat="44.2763160" lon="14.7555390">
<ele>32.237999</ele>
<time>2024-04-12T13:04:45.177Z</time>
</trkpt>
<trkpt lat="44.2762940" lon="14.7555010">
<ele>32.418999</ele>
<time>2024-04-12T13:04:45.177Z</time>
</trkpt>
<trkpt lat="44.2762730" lon="14.7554640">
<ele>32.576000</ele>
<time>2024-04-12T13:04:45.177Z</time>
</trkpt>
<trkpt lat="44.2762510" lon="14.7554270">
<ele>32.748001</ele>
<time>2024-04-12T13:04:45.177Z</time>
</trkpt>
<trkpt lat="44.2762280" lon="14.7553780">
<ele>32.930000</ele>
<time>2024-04-12T13:04:45.177Z</time>
</trkpt>
<trkpt lat="44.2762060" lon="14.7553300">
<ele>33.142002</ele>
<time>2024-04-12T13:04:45.177Z</time>
</trkpt>
<trkpt lat="44.2761830" lon="14.7552810">
<ele>33.144001</ele>
<time>2024-04-12T13:04:45.177Z</time>
</trkpt>
<trkpt lat="44.2761570" lon="14.7552330">
<ele>33.206001</ele>
<time>2024-04-12T13:04:45.177Z</time>
</trkpt>
<trkpt lat="44.2761310" lon="14.7551850">
<ele>33.292000</ele>
<time>2024-04-12T13:04:45.177Z</time>
</trkpt>
<trkpt lat="44.2761050" lon="14.7551360">
<ele>33.390999</ele>
<time>2024-04-12T13:04:45.177Z</time>
</trkpt>
<trkpt lat="44.2760790" lon="14.7550880">
<ele>33.509003</ele>
<time>2024-04-12T13:04:45.177Z</time>
</trkpt>
<trkpt lat="44.2760550" lon="14.7550410">
<ele>33.613998</ele>
<time>2024-04-12T13:04:45.177Z</time>
</trkpt>
<trkpt lat="44.2760320" lon="14.7549930">
<ele>33.643002</ele>
<time>2024-04-12T13:04:45.177Z</time>
</trkpt>
<trkpt lat="44.2760090" lon="14.7549460">
<ele>33.695000</ele>
<time>2024-04-12T13:04:45.177Z</time>
</trkpt>
<trkpt lat="44.2759860" lon="14.7548980">
<ele>33.729000</ele>
<time>2024-04-12T13:04:45.177Z</time>
</trkpt>
<trkpt lat="44.2759610" lon="14.7548600">
<ele>33.781002</ele>
<time>2024-04-12T13:04:45.177Z</time>
</trkpt>
<trkpt lat="44.2759370" lon="14.7548230">
<ele>33.799999</ele>
<time>2024-04-12T13:04:45.177Z</time>
</trkpt>
<trkpt lat="44.2759130" lon="14.7547850">
<ele>33.844997</ele>
<time>2024-04-12T13:04:45.177Z</time>
</trkpt>
<trkpt lat="44.2758870" lon="14.7547400">
<ele>33.843998</ele>
<time>2024-04-12T13:04:45.177Z</time>
</trkpt>
<trkpt lat="44.2758620" lon="14.7546950">
<ele>33.853001</ele>
<time>2024-04-12T13:04:45.177Z</time>
</trkpt>
<trkpt lat="44.2758370" lon="14.7546500">
<ele>33.748001</ele>
<time>2024-04-12T13:04:45.177Z</time>
</trkpt>
<trkpt lat="44.2758110" lon="14.7546050">
<ele>33.728001</ele>
<time>2024-04-12T13:04:45.177Z</time>
</trkpt>
<trkpt lat="44.2757860" lon="14.7545570">
<ele>33.652000</ele>
<time>2024-04-12T13:04:45.177Z</time>
</trkpt>
<trkpt lat="44.2757600" lon="14.7545080">
<ele>33.578999</ele>
<time>2024-04-12T13:04:45.177Z</time>
</trkpt>
<trkpt lat="44.2757350" lon="14.7544600">
<ele>33.540001</ele>
<time>2024-04-12T13:04:45.177Z</time>
</trkpt>
<trkpt lat="44.2757120" lon="14.7544200">
<ele>33.488998</ele>
<time>2024-04-12T13:04:45.177Z</time>
</trkpt>
<trkpt lat="44.2756890" lon="14.7543790">
<ele>33.450001</ele>
<time>2024-04-12T13:04:45.177Z</time>
</trkpt>
<trkpt lat="44.2756660" lon="14.7543390">
<ele>33.355000</ele>
<time>2024-04-12T13:04:45.177Z</time>
</trkpt>
<trkpt lat="44.2756430" lon="14.7542990">
<ele>33.306000</ele>
<time>2024-04-12T13:04:45.177Z</time>
</trkpt>
<trkpt lat="44.2756200" lon="14.7542590">
<ele>33.228001</ele>
<time>2024-04-12T13:04:45.177Z</time>
</trkpt>
<trkpt lat="44.2755930" lon="14.7542110">
<ele>33.216999</ele>
<time>2024-04-12T13:04:45.177Z</time>
</trkpt>
<trkpt lat="44.2755650" lon="14.7541640">
<ele>33.163998</ele>
<time>2024-04-12T13:04:45.177Z</time>
</trkpt>
<trkpt lat="44.2755380" lon="14.7541170">
<ele>33.207001</ele>
<time>2024-04-12T13:04:45.177Z</time>
</trkpt>
<trkpt lat="44.2755140" lon="14.7540780">
<ele>33.188999</ele>
<time>2024-04-12T13:04:45.177Z</time>
</trkpt>
<trkpt lat="44.2754900" lon="14.7540380">
<ele>33.184002</ele>
<time>2024-04-12T13:04:45.177Z</time>
</trkpt>
<trkpt lat="44.2754660" lon="14.7539990">
<ele>33.182999</ele>
<time>2024-04-12T13:04:45.177Z</time>
</trkpt>
<trkpt lat="44.2754450" lon="14.7539570">
<ele>33.230000</ele>
<time>2024-04-12T13:04:45.177Z</time>
</trkpt>
<trkpt lat="44.2754230" lon="14.7539150">
<ele>33.187000</ele>
<time>2024-04-12T13:04:45.177Z</time>
</trkpt>
<trkpt lat="44.2754010" lon="14.7538730">
<ele>33.293999</ele>
<time>2024-04-12T13:04:45.177Z</time>
</trkpt>
<trkpt lat="44.2753750" lon="14.7538240">
<ele>33.316998</ele>
<time>2024-04-12T13:04:45.177Z</time>
</trkpt>
<trkpt lat="44.2753490" lon="14.7537750">
<ele>33.375000</ele>
<time>2024-04-12T13:04:45.177Z</time>
</trkpt>
<trkpt lat="44.2753280" lon="14.7537280">
<ele>33.353001</ele>
<time>2024-04-12T13:04:45.177Z</time>
</trkpt>
<trkpt lat="44.2753060" lon="14.7536820">
<ele>33.567001</ele>
<time>2024-04-12T13:04:45.177Z</time>
</trkpt>
<trkpt lat="44.2752850" lon="14.7536360">
<ele>33.715000</ele>
<time>2024-04-12T13:04:45.177Z</time>
</trkpt>
<trkpt lat="44.2752610" lon="14.7535870">
<ele>33.856003</ele>
<time>2024-04-12T13:04:45.177Z</time>
</trkpt>
<trkpt lat="44.2752380" lon="14.7535380">
<ele>33.999001</ele>
<time>2024-04-12T13:04:45.177Z</time>
</trkpt>
<trkpt lat="44.2752220" lon="14.7535020">
<ele>34.105000</ele>
<time>2024-04-12T13:04:45.177Z</time>
</trkpt>
<trkpt lat="44.2752070" lon="14.7534650">
<ele>34.190998</ele>
<time>2024-04-12T13:04:45.177Z</time>
</trkpt>
<trkpt lat="44.2751920" lon="14.7534390">
<ele>34.292000</ele>
<time>2024-04-12T13:04:45.177Z</time>
</trkpt>
<trkpt lat="44.2751770" lon="14.7534130">
<ele>34.388000</ele>
<time>2024-04-12T13:04:45.177Z</time>
</trkpt>
<trkpt lat="44.2751810" lon="14.7533790">
<ele>34.393002</ele>
<time>2024-04-12T13:04:45.177Z</time>
</trkpt>
<trkpt lat="44.2751940" lon="14.7533520">
<ele>34.343998</ele>
<time>2024-04-12T13:04:45.177Z</time>
</trkpt>
<trkpt lat="44.2752070" lon="14.7533250">
<ele>34.313000</ele>
<time>2024-04-12T13:04:45.177Z</time>
</trkpt>
<trkpt lat="44.2752320" lon="14.7532870">
<ele>34.235001</ele>
<time>2024-04-12T13:04:45.177Z</time>
</trkpt>
<trkpt lat="44.2752580" lon="14.7532490">
<ele>34.178001</ele>
<time>2024-04-12T13:04:45.177Z</time>
</trkpt>
<trkpt lat="44.2752830" lon="14.7532110">
<ele>34.063999</ele>
<time>2024-04-12T13:04:45.177Z</time>
</trkpt>
<trkpt lat="44.2752970" lon="14.7531680">
<ele>33.945000</ele>
<time>2024-04-12T13:04:45.177Z</time>
</trkpt>
<trkpt lat="44.2753120" lon="14.7531260">
<ele>33.985001</ele>
<time>2024-04-12T13:04:45.177Z</time>
</trkpt>
<trkpt lat="44.2753260" lon="14.7530910">
<ele>34.063999</ele>
<time>2024-04-12T13:04:45.177Z</time>
</trkpt>
<trkpt lat="44.2753400" lon="14.7530560">
<ele>34.098000</ele>
<time>2024-04-12T13:04:45.177Z</time>
</trkpt>
<trkpt lat="44.2753470" lon="14.7530100">
<ele>34.181000</ele>
<time>2024-04-12T13:04:45.177Z</time>
</trkpt>
<trkpt lat="44.2753530" lon="14.7529650">
<ele>34.277000</ele>
<time>2024-04-12T13:04:45.177Z</time>
</trkpt>
<trkpt lat="44.2753650" lon="14.7529060">
<ele>34.521999</ele>
<time>2024-04-12T13:04:45.177Z</time>
</trkpt>
<trkpt lat="44.2753760" lon="14.7528460">
<ele>34.737999</ele>
<time>2024-04-12T13:04:45.177Z</time>
</trkpt>
<trkpt lat="44.2753880" lon="14.7528020">
<ele>34.887001</ele>
<time>2024-04-12T13:04:45.177Z</time>
</trkpt>
<trkpt lat="44.2753990" lon="14.7527570">
<ele>35.042999</ele>
<time>2024-04-12T13:04:45.177Z</time>
</trkpt>
<trkpt lat="44.2754070" lon="14.7527240">
<ele>35.158001</ele>
<time>2024-04-12T13:04:45.177Z</time>
</trkpt>
<trkpt lat="44.2754140" lon="14.7526920">
<ele>35.259998</ele>
<time>2024-04-12T13:04:45.177Z</time>
</trkpt>
<trkpt lat="44.2754360" lon="14.7526540">
<ele>35.232002</ele>
<time>2024-04-12T13:04:45.177Z</time>
</trkpt>
<trkpt lat="44.2754440" lon="14.7526410">
<ele>35.229000</ele>
<time>2024-04-12T13:04:45.177Z</time>
</trkpt>
<trkpt lat="44.2754510" lon="14.7526040">
<ele>35.389000</ele>
<time>2024-04-12T13:04:45.177Z</time>
</trkpt>
<trkpt lat="44.2754570" lon="14.7525680">
<ele>35.530003</ele>
<time>2024-04-12T13:04:45.177Z</time>
</trkpt>
<trkpt lat="44.2754570" lon="14.7525350">
<ele>35.732002</ele>
<time>2024-04-12T13:04:45.177Z</time>
</trkpt>
<trkpt lat="44.2754570" lon="14.7525030">
<ele>35.931000</ele>
<time>2024-04-12T13:04:45.177Z</time>
</trkpt>
<trkpt lat="44.2754660" lon="14.7524700">
<ele>36.026001</ele>
<time>2024-04-12T13:04:45.177Z</time>
</trkpt>
<trkpt lat="44.2754750" lon="14.7524380">
<ele>36.131001</ele>
<time>2024-04-12T13:04:45.177Z</time>
</trkpt>
<trkpt lat="44.2754810" lon="14.7524060">
<ele>36.272999</ele>
<time>2024-04-12T13:04:45.177Z</time>
</trkpt>
<trkpt lat="44.2754860" lon="14.7523740">
<ele>36.372002</ele>
<time>2024-04-12T13:04:45.177Z</time>
</trkpt>
<trkpt lat="44.2754870" lon="14.7523400">
<ele>36.507999</ele>
<time>2024-04-12T13:04:45.177Z</time>
</trkpt>
<trkpt lat="44.2754880" lon="14.7523070">
<ele>36.558002</ele>
<time>2024-04-12T13:04:45.177Z</time>
</trkpt>
<trkpt lat="44.2754980" lon="14.7522770">
<ele>36.507000</ele>
<time>2024-04-12T13:04:45.177Z</time>
</trkpt>
<trkpt lat="44.2755080" lon="14.7522470">
<ele>36.468998</ele>
<time>2024-04-12T13:04:45.177Z</time>
</trkpt>
<trkpt lat="44.2755110" lon="14.7522150">
<ele>36.513000</ele>
<time>2024-04-12T13:04:45.177Z</time>
</trkpt>
<trkpt lat="44.2755140" lon="14.7521830">
<ele>36.554001</ele>
<time>2024-04-12T13:04:45.177Z</time>
</trkpt>
<trkpt lat="44.2755190" lon="14.7521480">
<ele>36.586998</ele>
<time>2024-04-12T13:04:45.177Z</time>
</trkpt>
<trkpt lat="44.2755230" lon="14.7521130">
<ele>36.612000</ele>
<time>2024-04-12T13:04:45.177Z</time>
</trkpt>
<trkpt lat="44.2755270" lon="14.7520810">
<ele>36.635002</ele>
<time>2024-04-12T13:04:45.177Z</time>
</trkpt>
<trkpt lat="44.2755310" lon="14.7520500">
<ele>36.651001</ele>
<time>2024-04-12T13:04:45.177Z</time>
</trkpt>
<trkpt lat="44.2755410" lon="14.7520150">
<ele>36.618000</ele>
<time>2024-04-12T13:04:45.177Z</time>
</trkpt>
<trkpt lat="44.2755500" lon="14.7519800">
<ele>36.600002</ele>
<time>2024-04-12T13:04:45.177Z</time>
</trkpt>
<trkpt lat="44.2755570" lon="14.7519480">
<ele>36.608002</ele>
<time>2024-04-12T13:04:45.177Z</time>
</trkpt>
<trkpt lat="44.2755630" lon="14.7519170">
<ele>36.618000</ele>
<time>2024-04-12T13:04:45.177Z</time>
</trkpt>
<trkpt lat="44.2755670" lon="14.7518820">
<ele>36.653000</ele>
<time>2024-04-12T13:04:45.177Z</time>
</trkpt>
<trkpt lat="44.2755710" lon="14.7518470">
<ele>36.677002</ele>
<time>2024-04-12T13:04:45.177Z</time>
</trkpt>
<trkpt lat="44.2755720" lon="14.7518150">
<ele>36.723999</ele>
<time>2024-04-12T13:04:45.177Z</time>
</trkpt>
<trkpt lat="44.2755730" lon="14.7517830">
<ele>36.773998</ele>
<time>2024-04-12T13:04:45.177Z</time>
</trkpt>
<trkpt lat="44.2755810" lon="14.7517520">
<ele>36.841999</ele>
<time>2024-04-12T13:04:45.177Z</time>
</trkpt>
<trkpt lat="44.2755880" lon="14.7517210">
<ele>36.884998</ele>
<time>2024-04-12T13:04:45.177Z</time>
</trkpt>
<trkpt lat="44.2755920" lon="14.7516850">
<ele>37.014999</ele>
<time>2024-04-12T13:04:45.177Z</time>
</trkpt>
<trkpt lat="44.2755960" lon="14.7516490">
<ele>37.098999</ele>
<time>2024-04-12T13:04:45.177Z</time>
</trkpt>
<trkpt lat="44.2755930" lon="14.7516170">
<ele>37.220001</ele>
<time>2024-04-12T13:04:45.177Z</time>
</trkpt>
<trkpt lat="44.2755890" lon="14.7515850">
<ele>37.354000</ele>
<time>2024-04-12T13:04:45.177Z</time>
</trkpt>
<trkpt lat="44.2755910" lon="14.7515480">
<ele>37.262001</ele>
<time>2024-04-12T13:04:45.177Z</time>
</trkpt>
<trkpt lat="44.2755930" lon="14.7515120">
<ele>37.179001</ele>
<time>2024-04-12T13:04:45.177Z</time>
</trkpt>
<trkpt lat="44.2755940" lon="14.7514800">
<ele>37.132999</ele>
<time>2024-04-12T13:04:45.177Z</time>
</trkpt>
<trkpt lat="44.2755950" lon="14.7514490">
<ele>37.134003</ele>
<time>2024-04-12T13:04:45.177Z</time>
</trkpt>
<trkpt lat="44.2756060" lon="14.7514080">
<ele>36.948002</ele>
<time>2024-04-12T13:04:45.177Z</time>
</trkpt>
<trkpt lat="44.2756160" lon="14.7513680">
<ele>37.060001</ele>
<time>2024-04-12T13:04:45.177Z</time>
</trkpt>
<trkpt lat="44.2756300" lon="14.7513390">
<ele>36.987000</ele>
<time>2024-04-12T13:04:45.177Z</time>
</trkpt>
<trkpt lat="44.2756430" lon="14.7513100">
<ele>36.848999</ele>
<time>2024-04-12T13:04:45.177Z</time>
</trkpt>
<trkpt lat="44.2756540" lon="14.7512730">
<ele>36.755001</ele>
<time>2024-04-12T13:04:45.177Z</time>
</trkpt>
<trkpt lat="44.2756650" lon="14.7512360">
<ele>36.778999</ele>
<time>2024-04-12T13:04:45.177Z</time>
</trkpt>
<trkpt lat="44.2756700" lon="14.7512020">
<ele>36.881001</ele>
<time>2024-04-12T13:04:45.177Z</time>
</trkpt>
<trkpt lat="44.2756740" lon="14.7511680">
<ele>36.978001</ele>
<time>2024-04-12T13:04:45.177Z</time>
</trkpt>
<trkpt lat="44.2756850" lon="14.7511330">
<ele>36.923000</ele>
<time>2024-04-12T13:04:45.177Z</time>
</trkpt>
<trkpt lat="44.2756960" lon="14.7510980">
<ele>36.892998</ele>
<time>2024-04-12T13:04:45.177Z</time>
</trkpt>
<trkpt lat="44.2757110" lon="14.7510710">
<ele>36.750000</ele>
<time>2024-04-12T13:04:45.177Z</time>
</trkpt>
<trkpt lat="44.2757250" lon="14.7510450">
<ele>36.579998</ele>
<time>2024-04-12T13:04:45.177Z</time>
</trkpt>
<trkpt lat="44.2757350" lon="14.7510130">
<ele>36.536999</ele>
<time>2024-04-12T13:04:45.177Z</time>
</trkpt>
<trkpt lat="44.2757440" lon="14.7509810">
<ele>36.521999</ele>
<time>2024-04-12T13:04:45.177Z</time>
</trkpt>
<trkpt lat="44.2757480" lon="14.7509500">
<ele>36.625999</ele>
<time>2024-04-12T13:04:45.177Z</time>
</trkpt>
<trkpt lat="44.2757520" lon="14.7509190">
<ele>36.735001</ele>
<time>2024-04-12T13:04:45.177Z</time>
</trkpt>
<trkpt lat="44.2757610" lon="14.7508890">
<ele>36.692001</ele>
<time>2024-04-12T13:04:45.177Z</time>
</trkpt>
<trkpt lat="44.2757690" lon="14.7508590">
<ele>36.594997</ele>
<time>2024-04-12T13:04:45.177Z</time>
</trkpt>
<trkpt lat="44.2757790" lon="14.7508220">
<ele>36.452000</ele>
<time>2024-04-12T13:04:45.177Z</time>
</trkpt>
<trkpt lat="44.2757890" lon="14.7507860">
<ele>36.414001</ele>
<time>2024-04-12T13:04:45.177Z</time>
</trkpt>
<trkpt lat="44.2757990" lon="14.7507570">
<ele>36.348999</ele>
<time>2024-04-12T13:04:45.177Z</time>
</trkpt>
<trkpt lat="44.2758090" lon="14.7507280">
<ele>36.262001</ele>
<time>2024-04-12T13:04:45.177Z</time>
</trkpt>
<trkpt lat="44.2758160" lon="14.7506960">
<ele>36.191002</ele>
<time>2024-04-12T13:04:45.177Z</time>
</trkpt>
<trkpt lat="44.2758230" lon="14.7506640">
<ele>36.049999</ele>
<time>2024-04-12T13:04:45.177Z</time>
</trkpt>
<trkpt lat="44.2758350" lon="14.7506350">
<ele>35.950001</ele>
<time>2024-04-12T13:04:45.177Z</time>
</trkpt>
<trkpt lat="44.2758470" lon="14.7506060">
<ele>35.895000</ele>
<time>2024-04-12T13:04:45.177Z</time>
</trkpt>
<trkpt lat="44.2758550" lon="14.7505750">
<ele>35.859001</ele>
<time>2024-04-12T13:04:45.177Z</time>
</trkpt>
<trkpt lat="44.2758630" lon="14.7505450">
<ele>35.721001</ele>
<time>2024-04-12T13:04:45.177Z</time>
</trkpt>
<trkpt lat="44.2758710" lon="14.7505130">
<ele>35.627998</ele>
<time>2024-04-12T13:04:45.177Z</time>
</trkpt>
<trkpt lat="44.2758790" lon="14.7504820">
<ele>35.616001</ele>
<time>2024-04-12T13:04:45.177Z</time>
</trkpt>
<trkpt lat="44.2758870" lon="14.7504520">
<ele>35.595001</ele>
<time>2024-04-12T13:04:45.177Z</time>
</trkpt>
<trkpt lat="44.2758950" lon="14.7504230">
<ele>35.543999</ele>
<time>2024-04-12T13:04:45.177Z</time>
</trkpt>
<trkpt lat="44.2759060" lon="14.7503920">
<ele>35.371998</ele>
<time>2024-04-12T13:04:45.177Z</time>
</trkpt>
<trkpt lat="44.2759160" lon="14.7503620">
<ele>35.244999</ele>
<time>2024-04-12T13:04:45.177Z</time>
</trkpt>
<trkpt lat="44.2759240" lon="14.7503310">
<ele>35.200001</ele>
<time>2024-04-12T13:04:45.177Z</time>
</trkpt>
<trkpt lat="44.2759310" lon="14.7503000">
<ele>35.207001</ele>
<time>2024-04-12T13:04:45.177Z</time>
</trkpt>
<trkpt lat="44.2759390" lon="14.7502690">
<ele>35.153999</ele>
<time>2024-04-12T13:04:45.177Z</time>
</trkpt>
<trkpt lat="44.2759470" lon="14.7502390">
<ele>35.045002</ele>
<time>2024-04-12T13:04:45.177Z</time>
</trkpt>
<trkpt lat="44.2759550" lon="14.7502060">
<ele>34.951000</ele>
<time>2024-04-12T13:04:45.177Z</time>
</trkpt>
<trkpt lat="44.2759630" lon="14.7501730">
<ele>34.920002</ele>
<time>2024-04-12T13:04:45.177Z</time>
</trkpt>
<trkpt lat="44.2759690" lon="14.7501360">
<ele>34.922001</ele>
<time>2024-04-12T13:04:45.177Z</time>
</trkpt>
<trkpt lat="44.2759740" lon="14.7500990">
<ele>34.964001</ele>
<time>2024-04-12T13:04:45.177Z</time>
</trkpt>
<trkpt lat="44.2759820" lon="14.7500640">
<ele>34.896999</ele>
<time>2024-04-12T13:04:45.177Z</time>
</trkpt>
<trkpt lat="44.2759890" lon="14.7500300">
<ele>34.757000</ele>
<time>2024-04-12T13:04:45.177Z</time>
</trkpt>
<trkpt lat="44.2760010" lon="14.7499930">
<ele>34.678001</ele>
<time>2024-04-12T13:04:45.177Z</time>
</trkpt>
<trkpt lat="44.2760120" lon="14.7499570">
<ele>34.632000</ele>
<time>2024-04-12T13:04:45.177Z</time>
</trkpt>
<trkpt lat="44.2760160" lon="14.7499300">
<ele>34.631001</ele>
<time>2024-04-12T13:04:45.177Z</time>
</trkpt>
<trkpt lat="44.2760240" lon="14.7498820">
<ele>34.548000</ele>
<time>2024-04-12T13:04:45.177Z</time>
</trkpt>
<trkpt lat="44.2760280" lon="14.7498500">
<ele>34.493000</ele>
<time>2024-04-12T13:04:45.177Z</time>
</trkpt>
<trkpt lat="44.2760320" lon="14.7498190">
<ele>34.436001</ele>
<time>2024-04-12T13:04:45.177Z</time>
</trkpt>
<trkpt lat="44.2760450" lon="14.7497900">
<ele>34.266998</ele>
<time>2024-04-12T13:04:45.177Z</time>
</trkpt>
<trkpt lat="44.2760570" lon="14.7497620">
<ele>33.989998</ele>
<time>2024-04-12T13:04:45.177Z</time>
</trkpt>
<trkpt lat="44.2760640" lon="14.7497300">
<ele>33.938000</ele>
<time>2024-04-12T13:04:45.177Z</time>
</trkpt>
<trkpt lat="44.2760710" lon="14.7496990">
<ele>33.880001</ele>
<time>2024-04-12T13:04:45.177Z</time>
</trkpt>
<trkpt lat="44.2760800" lon="14.7496650">
<ele>33.778999</ele>
<time>2024-04-12T13:04:45.177Z</time>
</trkpt>
<trkpt lat="44.2760890" lon="14.7496310">
<ele>33.674000</ele>
<time>2024-04-12T13:04:45.177Z</time>
</trkpt>
<trkpt lat="44.2760910" lon="14.7495950">
<ele>33.805000</ele>
<time>2024-04-12T13:04:45.177Z</time>
</trkpt>
<trkpt lat="44.2760920" lon="14.7495590">
<ele>33.939999</ele>
<time>2024-04-12T13:04:45.177Z</time>
</trkpt>
<trkpt lat="44.2761030" lon="14.7495260">
<ele>33.794998</ele>
<time>2024-04-12T13:04:45.177Z</time>
</trkpt>
<trkpt lat="44.2761130" lon="14.7494940">
<ele>33.638000</ele>
<time>2024-04-12T13:04:45.177Z</time>
</trkpt>
<trkpt lat="44.2761170" lon="14.7494560">
<ele>33.713001</ele>
<time>2024-04-12T13:04:45.177Z</time>
</trkpt>
<trkpt lat="44.2761200" lon="14.7494180">
<ele>33.790001</ele>
<time>2024-04-12T13:04:45.177Z</time>
</trkpt>
<trkpt lat="44.2761250" lon="14.7493830">
<ele>33.809998</ele>
<time>2024-04-12T13:04:45.177Z</time>
</trkpt>
<trkpt lat="44.2761300" lon="14.7493490">
<ele>33.840000</ele>
<time>2024-04-12T13:04:45.177Z</time>
</trkpt>
<trkpt lat="44.2761300" lon="14.7493120">
<ele>34.027000</ele>
<time>2024-04-12T13:04:45.177Z</time>
</trkpt>
<trkpt lat="44.2761300" lon="14.7492760">
<ele>34.216999</ele>
<time>2024-04-12T13:04:45.177Z</time>
</trkpt>
<trkpt lat="44.2761390" lon="14.7492400">
<ele>34.250000</ele>
<time>2024-04-12T13:04:45.177Z</time>
</trkpt>
<trkpt lat="44.2761480" lon="14.7492050">
<ele>34.451000</ele>
<time>2024-04-12T13:04:45.177Z</time>
</trkpt>
<trkpt lat="44.2761550" lon="14.7491710">
<ele>34.802998</ele>
<time>2024-04-12T13:04:45.177Z</time>
</trkpt>
<trkpt lat="44.2761620" lon="14.7491370">
<ele>35.207001</ele>
<time>2024-04-12T13:04:45.177Z</time>
</trkpt>
<trkpt lat="44.2761630" lon="14.7491050">
<ele>35.725002</ele>
<time>2024-04-12T13:04:45.177Z</time>
</trkpt>
<trkpt lat="44.2761640" lon="14.7490730">
<ele>36.243999</ele>
<time>2024-04-12T13:04:45.177Z</time>
</trkpt>
<trkpt lat="44.2761720" lon="14.7490390">
<ele>36.678001</ele>
<time>2024-04-12T13:04:45.177Z</time>
</trkpt>
<trkpt lat="44.2761790" lon="14.7490060">
<ele>37.145000</ele>
<time>2024-04-12T13:04:45.177Z</time>
</trkpt>
<trkpt lat="44.2761900" lon="14.7489750">
<ele>37.578999</ele>
<time>2024-04-12T13:04:45.177Z</time>
</trkpt>
<trkpt lat="44.2762010" lon="14.7489450">
<ele>38.093002</ele>
<time>2024-04-12T13:04:45.177Z</time>
</trkpt>
<trkpt lat="44.2762190" lon="14.7489240">
<ele>38.484001</ele>
<time>2024-04-12T13:04:45.177Z</time>
</trkpt>
<trkpt lat="44.2762370" lon="14.7489040">
<ele>38.846001</ele>
<time>2024-04-12T13:04:45.177Z</time>
</trkpt>
<trkpt lat="44.2762490" lon="14.7488710">
<ele>39.505997</ele>
<time>2024-04-12T13:04:45.177Z</time>
</trkpt>
<trkpt lat="44.2762610" lon="14.7488380">
<ele>40.191998</ele>
<time>2024-04-12T13:04:45.177Z</time>
</trkpt>
<trkpt lat="44.2762870" lon="14.7488130">
<ele>40.574997</ele>
<time>2024-04-12T13:04:45.177Z</time>
</trkpt>
<trkpt lat="44.2763120" lon="14.7487890">
<ele>41.146999</ele>
<time>2024-04-12T13:04:45.177Z</time>
</trkpt>
<trkpt lat="44.2763220" lon="14.7487560">
<ele>41.800003</ele>
<time>2024-04-12T13:04:45.177Z</time>
</trkpt>
<trkpt lat="44.2763320" lon="14.7487240">
<ele>42.320999</ele>
<time>2024-04-12T13:04:45.177Z</time>
</trkpt>
<trkpt lat="44.2763490" lon="14.7486980">
<ele>42.936996</ele>
<time>2024-04-12T13:04:45.177Z</time>
</trkpt>
<trkpt lat="44.2763660" lon="14.7486720">
<ele>43.466000</ele>
<time>2024-04-12T13:04:45.177Z</time>
</trkpt>
<trkpt lat="44.2763740" lon="14.7486370">
<ele>43.911999</ele>
<time>2024-04-12T13:04:45.177Z</time>
</trkpt>
<trkpt lat="44.2763810" lon="14.7486030">
<ele>44.452000</ele>
<time>2024-04-12T13:04:45.177Z</time>
</trkpt>
<trkpt lat="44.2763910" lon="14.7485720">
<ele>45.006001</ele>
<time>2024-04-12T13:04:45.177Z</time>
</trkpt>
<trkpt lat="44.2764000" lon="14.7485410">
<ele>45.560001</ele>
<time>2024-04-12T13:04:45.177Z</time>
</trkpt>
<trkpt lat="44.2764090" lon="14.7485100">
<ele>46.028000</ele>
<time>2024-04-12T13:04:45.177Z</time>
</trkpt>
<trkpt lat="44.2764170" lon="14.7484800">
<ele>46.422001</ele>
<time>2024-04-12T13:04:45.177Z</time>
</trkpt>
<trkpt lat="44.2764310" lon="14.7484470">
<ele>47.034000</ele>
<time>2024-04-12T13:04:45.177Z</time>
</trkpt>
<trkpt lat="44.2764450" lon="14.7484140">
<ele>47.692001</ele>
<time>2024-04-12T13:04:45.177Z</time>
</trkpt>
<trkpt lat="44.2764570" lon="14.7483870">
<ele>48.156002</ele>
<time>2024-04-12T13:04:45.177Z</time>
</trkpt>
<trkpt lat="44.2764690" lon="14.7483600">
<ele>48.625000</ele>
<time>2024-04-12T13:04:45.177Z</time>
</trkpt>
<trkpt lat="44.2764810" lon="14.7483320">
<ele>49.150002</ele>
<time>2024-04-12T13:04:45.177Z</time>
</trkpt>
<trkpt lat="44.2764920" lon="14.7483050">
<ele>49.689999</ele>
<time>2024-04-12T13:04:45.177Z</time>
</trkpt>
<trkpt lat="44.2765020" lon="14.7482740">
<ele>50.251999</ele>
<time>2024-04-12T13:04:45.177Z</time>
</trkpt>
<trkpt lat="44.2765110" lon="14.7482430">
<ele>50.797001</ele>
<time>2024-04-12T13:04:45.177Z</time>
</trkpt>
<trkpt lat="44.2765070" lon="14.7482090">
<ele>51.137001</ele>
<time>2024-04-12T13:04:45.177Z</time>
</trkpt>
<trkpt lat="44.2765030" lon="14.7481750">
<ele>51.493999</ele>
<time>2024-04-12T13:04:45.177Z</time>
</trkpt>
<trkpt lat="44.2765140" lon="14.7481420">
<ele>51.969002</ele>
<time>2024-04-12T13:04:45.177Z</time>
</trkpt>
<trkpt lat="44.2765250" lon="14.7481090">
<ele>52.239002</ele>
<time>2024-04-12T13:04:45.177Z</time>
</trkpt>
<trkpt lat="44.2765360" lon="14.7480810">
<ele>52.314003</ele>
<time>2024-04-12T13:04:45.177Z</time>
</trkpt>
<trkpt lat="44.2765470" lon="14.7480540">
<ele>52.326000</ele>
<time>2024-04-12T13:04:45.177Z</time>
</trkpt>
<trkpt lat="44.2765620" lon="14.7480250">
<ele>52.517998</ele>
<time>2024-04-12T13:04:45.177Z</time>
</trkpt>
<trkpt lat="44.2765770" lon="14.7479970">
<ele>52.667999</ele>
<time>2024-04-12T13:04:45.177Z</time>
</trkpt>
<trkpt lat="44.2765890" lon="14.7479660">
<ele>52.773003</ele>
<time>2024-04-12T13:04:45.177Z</time>
</trkpt>
<trkpt lat="44.2766000" lon="14.7479360">
<ele>52.896000</ele>
<time>2024-04-12T13:04:45.177Z</time>
</trkpt>
<trkpt lat="44.2766020" lon="14.7478980">
<ele>52.966000</ele>
<time>2024-04-12T13:04:45.177Z</time>
</trkpt>
<trkpt lat="44.2766040" lon="14.7478610">
<ele>53.044998</ele>
<time>2024-04-12T13:04:45.177Z</time>
</trkpt>
<trkpt lat="44.2766240" lon="14.7478320">
<ele>53.153004</ele>
<time>2024-04-12T13:04:45.177Z</time>
</trkpt>
<trkpt lat="44.2766430" lon="14.7478040">
<ele>53.131001</ele>
<time>2024-04-12T13:04:45.177Z</time>
</trkpt>
<trkpt lat="44.2766460" lon="14.7477690">
<ele>53.039001</ele>
<time>2024-04-12T13:04:45.177Z</time>
</trkpt>
<trkpt lat="44.2766490" lon="14.7477340">
<ele>52.967999</ele>
<time>2024-04-12T13:04:45.177Z</time>
</trkpt>
<trkpt lat="44.2766540" lon="14.7476930">
<ele>52.918999</ele>
<time>2024-04-12T13:04:45.177Z</time>
</trkpt>
<trkpt lat="44.2766590" lon="14.7476520">
<ele>52.819000</ele>
<time>2024-04-12T13:04:45.177Z</time>
</trkpt>
<trkpt lat="44.2766710" lon="14.7476150">
<ele>52.584000</ele>
<time>2024-04-12T13:04:45.177Z</time>
</trkpt>
<trkpt lat="44.2766820" lon="14.7475780">
<ele>52.559002</ele>
<time>2024-04-12T13:04:45.177Z</time>
</trkpt>
<trkpt lat="44.2766950" lon="14.7475280">
<ele>52.493000</ele>
<time>2024-04-12T13:04:45.177Z</time>
</trkpt>
<trkpt lat="44.2767050" lon="14.7474970">
<ele>52.341000</ele>
<time>2024-04-12T13:04:45.177Z</time>
</trkpt>
<trkpt lat="44.2767150" lon="14.7474660">
<ele>52.195000</ele>
<time>2024-04-12T13:04:45.177Z</time>
</trkpt>
<trkpt lat="44.2767230" lon="14.7474450">
<ele>52.177002</ele>
<time>2024-04-12T13:04:45.177Z</time>
</trkpt>
<trkpt lat="44.2767350" lon="14.7474060">
<ele>52.132000</ele>
<time>2024-04-12T13:04:45.177Z</time>
</trkpt>
<trkpt lat="44.2767470" lon="14.7473680">
<ele>51.967999</ele>
<time>2024-04-12T13:04:45.177Z</time>
</trkpt>
<trkpt lat="44.2767640" lon="14.7473330">
<ele>51.797001</ele>
<time>2024-04-12T13:04:45.177Z</time>
</trkpt>
<trkpt lat="44.2767810" lon="14.7472980">
<ele>51.757999</ele>
<time>2024-04-12T13:04:45.177Z</time>
</trkpt>
<trkpt lat="44.2767930" lon="14.7472690">
<ele>51.582001</ele>
<time>2024-04-12T13:04:45.177Z</time>
</trkpt>
<trkpt lat="44.2768050" lon="14.7472410">
<ele>51.261002</ele>
<time>2024-04-12T13:04:45.177Z</time>
</trkpt>
<trkpt lat="44.2768070" lon="14.7472090">
<ele>51.077000</ele>
<time>2024-04-12T13:04:45.177Z</time>
</trkpt>
<trkpt lat="44.2768090" lon="14.7471770">
<ele>50.901001</ele>
<time>2024-04-12T13:04:45.177Z</time>
</trkpt>
<trkpt lat="44.2768240" lon="14.7471490">
<ele>50.720001</ele>
<time>2024-04-12T13:04:45.177Z</time>
</trkpt>
<trkpt lat="44.2768380" lon="14.7471220">
<ele>50.434002</ele>
<time>2024-04-12T13:04:45.177Z</time>
</trkpt>
<trkpt lat="44.2768550" lon="14.7470940">
<ele>50.131001</ele>
<time>2024-04-12T13:04:45.177Z</time>
</trkpt>
<trkpt lat="44.2768720" lon="14.7470670">
<ele>49.937000</ele>
<time>2024-04-12T13:04:45.177Z</time>
</trkpt>
<trkpt lat="44.2768770" lon="14.7470320">
<ele>49.679001</ele>
<time>2024-04-12T13:04:45.177Z</time>
</trkpt>
<trkpt lat="44.2768810" lon="14.7469980">
<ele>49.431000</ele>
<time>2024-04-12T13:04:45.177Z</time>
</trkpt>
<trkpt lat="44.2768840" lon="14.7469690">
<ele>49.182999</ele>
<time>2024-04-12T13:04:45.177Z</time>
</trkpt>
<trkpt lat="44.2768920" lon="14.7469130">
<ele>48.695999</ele>
<time>2024-04-12T13:04:45.177Z</time>
</trkpt>
<trkpt lat="44.2769000" lon="14.7468580">
<ele>48.463001</ele>
<time>2024-04-12T13:04:45.177Z</time>
</trkpt>
<trkpt lat="44.2769090" lon="14.7468220">
<ele>48.144001</ele>
<time>2024-04-12T13:04:45.177Z</time>
</trkpt>
<trkpt lat="44.2769170" lon="14.7467860">
<ele>47.657997</ele>
<time>2024-04-12T13:04:45.177Z</time>
</trkpt>
<trkpt lat="44.2769300" lon="14.7467420">
<ele>46.802998</ele>
<time>2024-04-12T13:04:45.177Z</time>
</trkpt>
<trkpt lat="44.2769420" lon="14.7466980">
<ele>46.272999</ele>
<time>2024-04-12T13:04:45.177Z</time>
</trkpt>
<trkpt lat="44.2769530" lon="14.7466530">
<ele>45.709999</ele>
<time>2024-04-12T13:04:45.177Z</time>
</trkpt>
<trkpt lat="44.2769600" lon="14.7466010">
<ele>44.971001</ele>
<time>2024-04-12T13:04:45.177Z</time>
</trkpt>
<trkpt lat="44.2769670" lon="14.7465560">
<ele>44.277000</ele>
<time>2024-04-12T13:04:45.177Z</time>
</trkpt>
<trkpt lat="44.2769740" lon="14.7465110">
<ele>43.654999</ele>
<time>2024-04-12T13:04:45.177Z</time>
</trkpt>
<trkpt lat="44.2769780" lon="14.7464780">
<ele>43.286999</ele>
<time>2024-04-12T13:04:45.177Z</time>
</trkpt>
<trkpt lat="44.2769820" lon="14.7464440">
<ele>42.882000</ele>
<time>2024-04-12T13:04:45.177Z</time>
</trkpt>
<trkpt lat="44.2769950" lon="14.7463950">
<ele>42.165997</ele>
<time>2024-04-12T13:04:45.177Z</time>
</trkpt>
<trkpt lat="44.2770080" lon="14.7463450">
<ele>41.384998</ele>
<time>2024-04-12T13:04:45.177Z</time>
</trkpt>
<trkpt lat="44.2770250" lon="14.7463080">
<ele>40.886002</ele>
<time>2024-04-12T13:04:45.177Z</time>
</trkpt>
<trkpt lat="44.2770410" lon="14.7462710">
<ele>40.357002</ele>
<time>2024-04-12T13:04:45.177Z</time>
</trkpt>
<trkpt lat="44.2770470" lon="14.7462240">
<ele>39.611000</ele>
<time>2024-04-12T13:04:45.177Z</time>
</trkpt>
<trkpt lat="44.2770530" lon="14.7461770">
<ele>38.923000</ele>
<time>2024-04-12T13:04:45.177Z</time>
</trkpt>
<trkpt lat="44.2770660" lon="14.7461280">
<ele>38.281002</ele>
<time>2024-04-12T13:04:45.177Z</time>
</trkpt>
<trkpt lat="44.2770790" lon="14.7460800">
<ele>37.560001</ele>
<time>2024-04-12T13:04:45.177Z</time>
</trkpt>
<trkpt lat="44.2770930" lon="14.7460430">
<ele>36.861000</ele>
<time>2024-04-12T13:04:45.177Z</time>
</trkpt>
<trkpt lat="44.2771060" lon="14.7460070">
<ele>36.336002</ele>
<time>2024-04-12T13:04:45.177Z</time>
</trkpt>
<trkpt lat="44.2771210" lon="14.7459600">
<ele>35.715000</ele>
<time>2024-04-12T13:04:45.177Z</time>
</trkpt>
<trkpt lat="44.2771350" lon="14.7459120">
<ele>34.863998</ele>
<time>2024-04-12T13:04:45.177Z</time>
</trkpt>
<trkpt lat="44.2771420" lon="14.7458810">
<ele>34.359001</ele>
<time>2024-04-12T13:04:45.177Z</time>
</trkpt>
<trkpt lat="44.2771490" lon="14.7458500">
<ele>33.962997</ele>
<time>2024-04-12T13:04:45.177Z</time>
</trkpt>
<trkpt lat="44.2771680" lon="14.7458020">
<ele>33.374001</ele>
<time>2024-04-12T13:04:45.177Z</time>
</trkpt>
<trkpt lat="44.2771880" lon="14.7457550">
<ele>32.593998</ele>
<time>2024-04-12T13:04:45.177Z</time>
</trkpt>
<trkpt lat="44.2772090" lon="14.7457150">
<ele>32.030003</ele>
<time>2024-04-12T13:04:45.177Z</time>
</trkpt>
<trkpt lat="44.2772300" lon="14.7456740">
<ele>31.067999</ele>
<time>2024-04-12T13:04:45.177Z</time>
</trkpt>
<trkpt lat="44.2772510" lon="14.7456340">
<ele>30.567999</ele>
<time>2024-04-12T13:04:45.177Z</time>
</trkpt>
<trkpt lat="44.2772640" lon="14.7455970">
<ele>29.819000</ele>
<time>2024-04-12T13:04:45.177Z</time>
</trkpt>
<trkpt lat="44.2772780" lon="14.7455610">
<ele>29.297001</ele>
<time>2024-04-12T13:04:45.177Z</time>
</trkpt>
<trkpt lat="44.2772920" lon="14.7455320">
<ele>28.910000</ele>
<time>2024-04-12T13:04:45.177Z</time>
</trkpt>
<trkpt lat="44.2773060" lon="14.7455040">
<ele>28.374001</ele>
<time>2024-04-12T13:04:45.177Z</time>
</trkpt>
<trkpt lat="44.2773210" lon="14.7454700">
<ele>27.636999</ele>
<time>2024-04-12T13:04:45.177Z</time>
</trkpt>
<trkpt lat="44.2773350" lon="14.7454360">
<ele>27.281000</ele>
<time>2024-04-12T13:04:45.177Z</time>
</trkpt>
<trkpt lat="44.2773520" lon="14.7454110">
<ele>26.590000</ele>
<time>2024-04-12T13:04:45.177Z</time>
</trkpt>
<trkpt lat="44.2773680" lon="14.7453860">
<ele>26.115000</ele>
<time>2024-04-12T13:04:45.177Z</time>
</trkpt>
<trkpt lat="44.2773790" lon="14.7453510">
<ele>25.794001</ele>
<time>2024-04-12T13:04:45.177Z</time>
</trkpt>
<trkpt lat="44.2773910" lon="14.7453160">
<ele>25.234999</ele>
<time>2024-04-12T13:04:45.177Z</time>
</trkpt>
<trkpt lat="44.2774070" lon="14.7452710">
<ele>24.277000</ele>
<time>2024-04-12T13:04:45.177Z</time>
</trkpt>
<trkpt lat="44.2774230" lon="14.7452260">
<ele>23.830999</ele>
<time>2024-04-12T13:04:45.177Z</time>
</trkpt>
<trkpt lat="44.2774390" lon="14.7451810">
<ele>23.017000</ele>
<time>2024-04-12T13:04:45.177Z</time>
</trkpt>
<trkpt lat="44.2774570" lon="14.7451380">
<ele>22.375000</ele>
<time>2024-04-12T13:04:45.177Z</time>
</trkpt>
<trkpt lat="44.2774740" lon="14.7450950">
<ele>21.562000</ele>
<time>2024-04-12T13:04:45.177Z</time>
</trkpt>
<trkpt lat="44.2774910" lon="14.7450480">
<ele>20.757000</ele>
<time>2024-04-12T13:04:45.177Z</time>
</trkpt>
<trkpt lat="44.2775080" lon="14.7450020">
<ele>20.271000</ele>
<time>2024-04-12T13:04:45.177Z</time>
</trkpt>
<trkpt lat="44.2775240" lon="14.7449550">
<ele>19.374001</ele>
<time>2024-04-12T13:04:45.177Z</time>
</trkpt>
<trkpt lat="44.2775410" lon="14.7449170">
<ele>18.830000</ele>
<time>2024-04-12T13:04:45.177Z</time>
</trkpt>
<trkpt lat="44.2775580" lon="14.7448780">
<ele>18.150000</ele>
<time>2024-04-12T13:04:45.177Z</time>
</trkpt>
<trkpt lat="44.2775670" lon="14.7448460">
<ele>17.737000</ele>
<time>2024-04-12T13:04:45.177Z</time>
</trkpt>
<trkpt lat="44.2775760" lon="14.7448140">
<ele>17.455000</ele>
<time>2024-04-12T13:04:45.177Z</time>
</trkpt>
<trkpt lat="44.2775810" lon="14.7447720">
<ele>17.514999</ele>
<time>2024-04-12T13:04:45.177Z</time>
</trkpt>
<trkpt lat="44.2776020" lon="14.7447310">
<ele>16.940001</ele>
<time>2024-04-12T13:04:45.177Z</time>
</trkpt>
<trkpt lat="44.2776230" lon="14.7446900">
<ele>16.421000</ele>
<time>2024-04-12T13:04:45.181Z</time>
</trkpt>
<trkpt lat="44.2776480" lon="14.7446440">
<ele>15.742999</ele>
<time>2024-04-12T13:04:45.181Z</time>
</trkpt>
<trkpt lat="44.2776740" lon="14.7445970">
<ele>15.351000</ele>
<time>2024-04-12T13:04:45.181Z</time>
</trkpt>
<trkpt lat="44.2776850" lon="14.7445500">
<ele>15.177000</ele>
<time>2024-04-12T13:04:45.181Z</time>
</trkpt>
<trkpt lat="44.2776970" lon="14.7445030">
<ele>14.693000</ele>
<time>2024-04-12T13:04:45.181Z</time>
</trkpt>
<trkpt lat="44.2777130" lon="14.7444580">
<ele>14.437000</ele>
<time>2024-04-12T13:04:45.181Z</time>
</trkpt>
<trkpt lat="44.2777290" lon="14.7444130">
<ele>14.216000</ele>
<time>2024-04-12T13:04:45.181Z</time>
</trkpt>
<trkpt lat="44.2777370" lon="14.7443740">
<ele>13.896000</ele>
<time>2024-04-12T13:04:45.181Z</time>
</trkpt>
<trkpt lat="44.2777450" lon="14.7443350">
<ele>13.684999</ele>
<time>2024-04-12T13:04:45.181Z</time>
</trkpt>
<trkpt lat="44.2777530" lon="14.7442820">
<ele>13.698000</ele>
<time>2024-04-12T13:04:45.181Z</time>
</trkpt>
<trkpt lat="44.2777640" lon="14.7442330">
<ele>13.470000</ele>
<time>2024-04-12T13:04:45.181Z</time>
</trkpt>
<trkpt lat="44.2777750" lon="14.7441830">
<ele>13.004001</ele>
<time>2024-04-12T13:04:45.181Z</time>
</trkpt>
<trkpt lat="44.2777870" lon="14.7441340">
<ele>12.530001</ele>
<time>2024-04-12T13:04:45.181Z</time>
</trkpt>
<trkpt lat="44.2777980" lon="14.7440840">
<ele>12.215000</ele>
<time>2024-04-12T13:04:45.181Z</time>
</trkpt>
<trkpt lat="44.2778110" lon="14.7440380">
<ele>11.805000</ele>
<time>2024-04-12T13:04:45.181Z</time>
</trkpt>
<trkpt lat="44.2778240" lon="14.7439920">
<ele>11.349000</ele>
<time>2024-04-12T13:04:45.181Z</time>
</trkpt>
<trkpt lat="44.2778410" lon="14.7439380">
<ele>10.990000</ele>
<time>2024-04-12T13:04:45.181Z</time>
</trkpt>
<trkpt lat="44.2778580" lon="14.7439010">
<ele>10.540999</ele>
<time>2024-04-12T13:04:45.181Z</time>
</trkpt>
<trkpt lat="44.2778740" lon="14.7438640">
<ele>9.912999</ele>
<time>2024-04-12T13:04:45.181Z</time>
</trkpt>
<trkpt lat="44.2778810" lon="14.7438260">
<ele>9.839000</ele>
<time>2024-04-12T13:04:45.181Z</time>
</trkpt>
<trkpt lat="44.2778890" lon="14.7437880">
<ele>9.787001</ele>
<time>2024-04-12T13:04:45.181Z</time>
</trkpt>
<trkpt lat="44.2778920" lon="14.7437440">
<ele>9.574000</ele>
<time>2024-04-12T13:04:45.181Z</time>
</trkpt>
<trkpt lat="44.2778960" lon="14.7437000">
<ele>9.248000</ele>
<time>2024-04-12T13:04:45.181Z</time>
</trkpt>
<trkpt lat="44.2779070" lon="14.7436510">
<ele>8.860000</ele>
<time>2024-04-12T13:04:45.181Z</time>
</trkpt>
<trkpt lat="44.2779180" lon="14.7436010">
<ele>8.484000</ele>
<time>2024-04-12T13:04:45.181Z</time>
</trkpt>
<trkpt lat="44.2779290" lon="14.7435520">
<ele>8.133000</ele>
<time>2024-04-12T13:04:45.181Z</time>
</trkpt>
<trkpt lat="44.2779460" lon="14.7435040">
<ele>7.509000</ele>
<time>2024-04-12T13:04:45.181Z</time>
</trkpt>
<trkpt lat="44.2779640" lon="14.7434560">
<ele>6.959000</ele>
<time>2024-04-12T13:04:45.181Z</time>
</trkpt>
<trkpt lat="44.2779680" lon="14.7434180">
<ele>6.807000</ele>
<time>2024-04-12T13:04:45.181Z</time>
</trkpt>
<trkpt lat="44.2779720" lon="14.7433810">
<ele>6.653000</ele>
<time>2024-04-12T13:04:45.181Z</time>
</trkpt>
<trkpt lat="44.2779740" lon="14.7433380">
<ele>6.607000</ele>
<time>2024-04-12T13:04:45.181Z</time>
</trkpt>
<trkpt lat="44.2779760" lon="14.7432960">
<ele>6.567000</ele>
<time>2024-04-12T13:04:45.181Z</time>
</trkpt>
<trkpt lat="44.2779880" lon="14.7432600">
<ele>6.208000</ele>
<time>2024-04-12T13:04:45.181Z</time>
</trkpt>
<trkpt lat="44.2780000" lon="14.7432230">
<ele>5.848000</ele>
<time>2024-04-12T13:04:45.181Z</time>
</trkpt>
<trkpt lat="44.2780150" lon="14.7431810">
<ele>5.324000</ele>
<time>2024-04-12T13:04:45.181Z</time>
</trkpt>
<trkpt lat="44.2780300" lon="14.7431380">
<ele>4.649000</ele>
<time>2024-04-12T13:04:45.181Z</time>
</trkpt>
<trkpt lat="44.2780500" lon="14.7430870">
<ele>3.612000</ele>
<time>2024-04-12T13:04:45.181Z</time>
</trkpt>
<trkpt lat="44.2780510" lon="14.7430470">
<ele>3.429000</ele>
<time>2024-04-12T13:04:45.181Z</time>
</trkpt>
<trkpt lat="44.2780690" lon="14.7430110">
<ele>2.695000</ele>
<time>2024-04-12T13:04:45.181Z</time>
</trkpt>
<trkpt lat="44.2780880" lon="14.7429750">
<ele>1.908000</ele>
<time>2024-04-12T13:04:45.181Z</time>
</trkpt>
<trkpt lat="44.2781110" lon="14.7429470">
<ele>1.559000</ele>
<time>2024-04-12T13:04:45.181Z</time>
</trkpt>
<trkpt lat="44.2781340" lon="14.7429180">
<ele>1.189000</ele>
<time>2024-04-12T13:04:45.181Z</time>
</trkpt>
<trkpt lat="44.2781560" lon="14.7428780">
<ele>0.934000</ele>
<time>2024-04-12T13:04:45.181Z</time>
</trkpt>
<trkpt lat="44.2781620" lon="14.7428570">
<ele>0.783000</ele>
<time>2024-04-12T13:04:45.181Z</time>
</trkpt>
<trkpt lat="44.2781530" lon="14.7428580">
<ele>0.818000</ele>
<time>2024-04-12T13:04:45.181Z</time>
</trkpt>
<trkpt lat="44.2781340" lon="14.7428790">
<ele>0.985000</ele>
<time>2024-04-12T13:04:45.181Z</time>
</trkpt>
<trkpt lat="44.2781210" lon="14.7429130">
<ele>1.261000</ele>
<time>2024-04-12T13:04:45.181Z</time>
</trkpt>
<trkpt lat="44.2781020" lon="14.7429290">
<ele>1.523000</ele>
<time>2024-04-12T13:04:45.181Z</time>
</trkpt>
<trkpt lat="44.2780820" lon="14.7429460">
<ele>1.941000</ele>
<time>2024-04-12T13:04:45.181Z</time>
</trkpt>
<trkpt lat="44.2780650" lon="14.7429760">
<ele>2.668000</ele>
<time>2024-04-12T13:04:45.181Z</time>
</trkpt>
<trkpt lat="44.2780480" lon="14.7430070">
<ele>3.354000</ele>
<time>2024-04-12T13:04:45.181Z</time>
</trkpt>
<trkpt lat="44.2780280" lon="14.7430630">
<ele>4.530000</ele>
<time>2024-04-12T13:04:45.181Z</time>
</trkpt>
<trkpt lat="44.2780260" lon="14.7430720">
<ele>4.659000</ele>
<time>2024-04-12T13:04:45.181Z</time>
</trkpt>
<trkpt lat="44.2780140" lon="14.7431240">
<ele>5.322000</ele>
<time>2024-04-12T13:04:45.181Z</time>
</trkpt>
<trkpt lat="44.2780120" lon="14.7431340">
<ele>5.427000</ele>
<time>2024-04-12T13:04:45.181Z</time>
</trkpt>
<trkpt lat="44.2780000" lon="14.7431610">
<ele>5.920000</ele>
<time>2024-04-12T13:04:45.181Z</time>
</trkpt>
<trkpt lat="44.2779880" lon="14.7431890">
<ele>6.291000</ele>
<time>2024-04-12T13:04:45.181Z</time>
</trkpt>
<trkpt lat="44.2779790" lon="14.7432190">
<ele>6.559000</ele>
<time>2024-04-12T13:04:45.181Z</time>
</trkpt>
<trkpt lat="44.2779700" lon="14.7432490">
<ele>6.827000</ele>
<time>2024-04-12T13:04:45.181Z</time>
</trkpt>
<trkpt lat="44.2779640" lon="14.7432800">
<ele>6.993000</ele>
<time>2024-04-12T13:04:45.181Z</time>
</trkpt>
<trkpt lat="44.2779580" lon="14.7433110">
<ele>7.160000</ele>
<time>2024-04-12T13:04:45.181Z</time>
</trkpt>
<trkpt lat="44.2779580" lon="14.7433520">
<ele>7.115000</ele>
<time>2024-04-12T13:04:45.181Z</time>
</trkpt>
<trkpt lat="44.2779580" lon="14.7433940">
<ele>7.087000</ele>
<time>2024-04-12T13:04:45.181Z</time>
</trkpt>
<trkpt lat="44.2779430" lon="14.7434530">
<ele>7.574000</ele>
<time>2024-04-12T13:04:45.181Z</time>
</trkpt>
<trkpt lat="44.2779420" lon="14.7434570">
<ele>7.622000</ele>
<time>2024-04-12T13:04:45.181Z</time>
</trkpt>
<trkpt lat="44.2779310" lon="14.7434900">
<ele>7.960000</ele>
<time>2024-04-12T13:04:45.181Z</time>
</trkpt>
<trkpt lat="44.2779220" lon="14.7435190">
<ele>8.275001</ele>
<time>2024-04-12T13:04:45.181Z</time>
</trkpt>
<trkpt lat="44.2779130" lon="14.7435580">
<ele>8.601000</ele>
<time>2024-04-12T13:04:45.181Z</time>
</trkpt>
<trkpt lat="44.2779030" lon="14.7435970">
<ele>8.932000</ele>
<time>2024-04-12T13:04:45.181Z</time>
</trkpt>
<trkpt lat="44.2778940" lon="14.7436310">
<ele>9.243000</ele>
<time>2024-04-12T13:04:45.181Z</time>
</trkpt>
<trkpt lat="44.2778850" lon="14.7436660">
<ele>9.522000</ele>
<time>2024-04-12T13:04:45.181Z</time>
</trkpt>
<trkpt lat="44.2778820" lon="14.7437030">
<ele>9.650000</ele>
<time>2024-04-12T13:04:45.181Z</time>
</trkpt>
<trkpt lat="44.2778780" lon="14.7437410">
<ele>9.774000</ele>
<time>2024-04-12T13:04:45.181Z</time>
</trkpt>
<trkpt lat="44.2778750" lon="14.7437870">
<ele>9.826000</ele>
<time>2024-04-12T13:04:45.181Z</time>
</trkpt>
<trkpt lat="44.2778690" lon="14.7438240">
<ele>10.001000</ele>
<time>2024-04-12T13:04:45.181Z</time>
</trkpt>
<trkpt lat="44.2778630" lon="14.7438600">
<ele>10.215000</ele>
<time>2024-04-12T13:04:45.181Z</time>
</trkpt>
<trkpt lat="44.2778520" lon="14.7438880">
<ele>10.590000</ele>
<time>2024-04-12T13:04:45.181Z</time>
</trkpt>
<trkpt lat="44.2778410" lon="14.7439160">
<ele>10.953000</ele>
<time>2024-04-12T13:04:45.181Z</time>
</trkpt>
<trkpt lat="44.2778220" lon="14.7439440">
<ele>11.419000</ele>
<time>2024-04-12T13:04:45.181Z</time>
</trkpt>
<trkpt lat="44.2778050" lon="14.7439870">
<ele>11.946000</ele>
<time>2024-04-12T13:04:45.181Z</time>
</trkpt>
<trkpt lat="44.2777970" lon="14.7440330">
<ele>12.207000</ele>
<time>2024-04-12T13:04:45.181Z</time>
</trkpt>
<trkpt lat="44.2777890" lon="14.7440790">
<ele>12.455000</ele>
<time>2024-04-12T13:04:45.181Z</time>
</trkpt>
<trkpt lat="44.2777800" lon="14.7441080">
<ele>12.799000</ele>
<time>2024-04-12T13:04:45.181Z</time>
</trkpt>
<trkpt lat="44.2777720" lon="14.7441370">
<ele>13.143000</ele>
<time>2024-04-12T13:04:45.181Z</time>
</trkpt>
<trkpt lat="44.2777610" lon="14.7441830">
<ele>13.597000</ele>
<time>2024-04-12T13:04:45.181Z</time>
</trkpt>
<trkpt lat="44.2777500" lon="14.7442290">
<ele>13.959001</ele>
<time>2024-04-12T13:04:45.181Z</time>
</trkpt>
<trkpt lat="44.2777390" lon="14.7442760">
<ele>14.179999</ele>
<time>2024-04-12T13:04:45.181Z</time>
</trkpt>
<trkpt lat="44.2777330" lon="14.7443320">
<ele>14.137000</ele>
<time>2024-04-12T13:04:45.181Z</time>
</trkpt>
<trkpt lat="44.2777240" lon="14.7443730">
<ele>14.313999</ele>
<time>2024-04-12T13:04:45.181Z</time>
</trkpt>
<trkpt lat="44.2777160" lon="14.7444130">
<ele>14.489000</ele>
<time>2024-04-12T13:04:45.181Z</time>
</trkpt>
<trkpt lat="44.2777010" lon="14.7444580">
<ele>14.645000</ele>
<time>2024-04-12T13:04:45.181Z</time>
</trkpt>
<trkpt lat="44.2776860" lon="14.7445030">
<ele>15.043000</ele>
<time>2024-04-12T13:04:45.181Z</time>
</trkpt>
<trkpt lat="44.2776710" lon="14.7445480">
<ele>15.436000</ele>
<time>2024-04-12T13:04:45.181Z</time>
</trkpt>
<trkpt lat="44.2776560" lon="14.7445940">
<ele>15.620000</ele>
<time>2024-04-12T13:04:45.181Z</time>
</trkpt>
<trkpt lat="44.2776360" lon="14.7446390">
<ele>16.173000</ele>
<time>2024-04-12T13:04:45.181Z</time>
</trkpt>
<trkpt lat="44.2776160" lon="14.7446840">
<ele>16.656000</ele>
<time>2024-04-12T13:04:45.181Z</time>
</trkpt>
<trkpt lat="44.2775950" lon="14.7447250">
<ele>17.246000</ele>
<time>2024-04-12T13:04:45.181Z</time>
</trkpt>
<trkpt lat="44.2775740" lon="14.7447650">
<ele>17.823000</ele>
<time>2024-04-12T13:04:45.181Z</time>
</trkpt>
<trkpt lat="44.2775670" lon="14.7448060">
<ele>17.813999</ele>
<time>2024-04-12T13:04:45.181Z</time>
</trkpt>
<trkpt lat="44.2775590" lon="14.7448380">
<ele>18.004000</ele>
<time>2024-04-12T13:04:45.181Z</time>
</trkpt>
<trkpt lat="44.2775500" lon="14.7448700">
<ele>18.389000</ele>
<time>2024-04-12T13:04:45.181Z</time>
</trkpt>
<trkpt lat="44.2775340" lon="14.7449080">
<ele>18.955000</ele>
<time>2024-04-12T13:04:45.181Z</time>
</trkpt>
<trkpt lat="44.2775180" lon="14.7449460">
<ele>19.580999</ele>
<time>2024-04-12T13:04:45.181Z</time>
</trkpt>
<trkpt lat="44.2775010" lon="14.7449950">
<ele>20.403002</ele>
<time>2024-04-12T13:04:45.181Z</time>
</trkpt>
<trkpt lat="44.2774840" lon="14.7450440">
<ele>20.997999</ele>
<time>2024-04-12T13:04:45.181Z</time>
</trkpt>
<trkpt lat="44.2774660" lon="14.7450930">
<ele>21.781000</ele>
<time>2024-04-12T13:04:45.181Z</time>
</trkpt>
<trkpt lat="44.2774490" lon="14.7451330">
<ele>22.451000</ele>
<time>2024-04-12T13:04:45.181Z</time>
</trkpt>
<trkpt lat="44.2774320" lon="14.7451730">
<ele>23.194000</ele>
<time>2024-04-12T13:04:45.181Z</time>
</trkpt>
<trkpt lat="44.2774150" lon="14.7452200">
<ele>23.931999</ele>
<time>2024-04-12T13:04:45.181Z</time>
</trkpt>
<trkpt lat="44.2773990" lon="14.7452670">
<ele>24.446001</ele>
<time>2024-04-12T13:04:45.181Z</time>
</trkpt>
<trkpt lat="44.2773820" lon="14.7453150">
<ele>25.414000</ele>
<time>2024-04-12T13:04:45.181Z</time>
</trkpt>
<trkpt lat="44.2773710" lon="14.7453480">
<ele>25.859001</ele>
<time>2024-04-12T13:04:45.181Z</time>
</trkpt>
<trkpt lat="44.2773600" lon="14.7453800">
<ele>26.093000</ele>
<time>2024-04-12T13:04:45.181Z</time>
</trkpt>
<trkpt lat="44.2773440" lon="14.7454040">
<ele>26.697001</ele>
<time>2024-04-12T13:04:45.181Z</time>
</trkpt>
<trkpt lat="44.2773280" lon="14.7454280">
<ele>27.334999</ele>
<time>2024-04-12T13:04:45.181Z</time>
</trkpt>
<trkpt lat="44.2773140" lon="14.7454610">
<ele>27.674000</ele>
<time>2024-04-12T13:04:45.181Z</time>
</trkpt>
<trkpt lat="44.2772990" lon="14.7454950">
<ele>28.455999</ele>
<time>2024-04-12T13:04:45.181Z</time>
</trkpt>
<trkpt lat="44.2772850" lon="14.7455230">
<ele>28.953001</ele>
<time>2024-04-12T13:04:45.181Z</time>
</trkpt>
<trkpt lat="44.2772700" lon="14.7455520">
<ele>29.355999</ele>
<time>2024-04-12T13:04:45.181Z</time>
</trkpt>
<trkpt lat="44.2772570" lon="14.7455880">
<ele>29.926998</ele>
<time>2024-04-12T13:04:45.181Z</time>
</trkpt>
<trkpt lat="44.2772430" lon="14.7456250">
<ele>30.563999</ele>
<time>2024-04-12T13:04:45.181Z</time>
</trkpt>
<trkpt lat="44.2772230" lon="14.7456660">
<ele>31.127001</ele>
<time>2024-04-12T13:04:45.181Z</time>
</trkpt>
<trkpt lat="44.2772030" lon="14.7457070">
<ele>32.054001</ele>
<time>2024-04-12T13:04:45.181Z</time>
</trkpt>
<trkpt lat="44.2771830" lon="14.7457480">
<ele>32.627998</ele>
<time>2024-04-12T13:04:45.181Z</time>
</trkpt>
<trkpt lat="44.2771620" lon="14.7457980">
<ele>33.384998</ele>
<time>2024-04-12T13:04:45.181Z</time>
</trkpt>
<trkpt lat="44.2771420" lon="14.7458470">
<ele>33.929001</ele>
<time>2024-04-12T13:04:45.181Z</time>
</trkpt>
<trkpt lat="44.2771340" lon="14.7458780">
<ele>34.463001</ele>
<time>2024-04-12T13:04:45.181Z</time>
</trkpt>
<trkpt lat="44.2771260" lon="14.7459090">
<ele>34.915001</ele>
<time>2024-04-12T13:04:45.181Z</time>
</trkpt>
<trkpt lat="44.2771120" lon="14.7459560">
<ele>35.704998</ele>
<time>2024-04-12T13:04:45.181Z</time>
</trkpt>
<trkpt lat="44.2770970" lon="14.7460040">
<ele>36.312000</ele>
<time>2024-04-12T13:04:45.181Z</time>
</trkpt>
<trkpt lat="44.2770860" lon="14.7460410">
<ele>36.916000</ele>
<time>2024-04-12T13:04:45.181Z</time>
</trkpt>
<trkpt lat="44.2770740" lon="14.7460770">
<ele>37.576000</ele>
<time>2024-04-12T13:04:45.181Z</time>
</trkpt>
<trkpt lat="44.2770600" lon="14.7461250">
<ele>38.250000</ele>
<time>2024-04-12T13:04:45.181Z</time>
</trkpt>
<trkpt lat="44.2770460" lon="14.7461720">
<ele>38.961002</ele>
<time>2024-04-12T13:04:45.181Z</time>
</trkpt>
<trkpt lat="44.2770400" lon="14.7462200">
<ele>39.648998</ele>
<time>2024-04-12T13:04:45.181Z</time>
</trkpt>
<trkpt lat="44.2770340" lon="14.7462680">
<ele>40.358002</ele>
<time>2024-04-12T13:04:45.181Z</time>
</trkpt>
<trkpt lat="44.2770170" lon="14.7463030">
<ele>40.839001</ele>
<time>2024-04-12T13:04:45.181Z</time>
</trkpt>
<trkpt lat="44.2770000" lon="14.7463380">
<ele>41.417004</ele>
<time>2024-04-12T13:04:45.181Z</time>
</trkpt>
<trkpt lat="44.2769870" lon="14.7463890">
<ele>42.186001</ele>
<time>2024-04-12T13:04:45.181Z</time>
</trkpt>
<trkpt lat="44.2769740" lon="14.7464400">
<ele>42.888000</ele>
<time>2024-04-12T13:04:45.181Z</time>
</trkpt>
<trkpt lat="44.2769550" lon="14.7464930">
<ele>43.712002</ele>
<time>2024-04-12T13:04:45.181Z</time>
</trkpt>
<trkpt lat="44.2769540" lon="14.7465080">
<ele>43.881001</ele>
<time>2024-04-12T13:04:45.181Z</time>
</trkpt>
<trkpt lat="44.2769660" lon="14.7465580">
<ele>44.306999</ele>
<time>2024-04-12T13:04:45.181Z</time>
</trkpt>
<trkpt lat="44.2769580" lon="14.7466000">
<ele>44.971001</ele>
<time>2024-04-12T13:04:45.181Z</time>
</trkpt>
<trkpt lat="44.2769500" lon="14.7466590">
<ele>45.804001</ele>
<time>2024-04-12T13:04:45.181Z</time>
</trkpt>
<trkpt lat="44.2769390" lon="14.7467090">
<ele>46.394001</ele>
<time>2024-04-12T13:04:45.181Z</time>
</trkpt>
<trkpt lat="44.2769270" lon="14.7467480">
<ele>46.935001</ele>
<time>2024-04-12T13:04:45.181Z</time>
</trkpt>
<trkpt lat="44.2769150" lon="14.7467860">
<ele>47.676003</ele>
<time>2024-04-12T13:04:45.181Z</time>
</trkpt>
<trkpt lat="44.2769030" lon="14.7468240">
<ele>48.194996</ele>
<time>2024-04-12T13:04:45.181Z</time>
</trkpt>
<trkpt lat="44.2768920" lon="14.7468630">
<ele>48.476997</ele>
<time>2024-04-12T13:04:45.181Z</time>
</trkpt>
<trkpt lat="44.2768840" lon="14.7469200">
<ele>48.805996</ele>
<time>2024-04-12T13:04:45.181Z</time>
</trkpt>
<trkpt lat="44.2768760" lon="14.7469770">
<ele>49.322998</ele>
<time>2024-04-12T13:04:45.181Z</time>
</trkpt>
<trkpt lat="44.2768680" lon="14.7470190">
<ele>49.612000</ele>
<time>2024-04-12T13:04:45.181Z</time>
</trkpt>
<trkpt lat="44.2768600" lon="14.7470600">
<ele>49.858997</ele>
<time>2024-04-12T13:04:45.181Z</time>
</trkpt>
<trkpt lat="44.2768420" lon="14.7470910">
<ele>50.146000</ele>
<time>2024-04-12T13:04:45.181Z</time>
</trkpt>
<trkpt lat="44.2768250" lon="14.7471210">
<ele>50.566002</ele>
<time>2024-04-12T13:04:45.181Z</time>
</trkpt>
<trkpt lat="44.2768030" lon="14.7471700">
<ele>50.886002</ele>
<time>2024-04-12T13:04:45.181Z</time>
</trkpt>
<trkpt lat="44.2767990" lon="14.7472060">
<ele>51.149998</ele>
<time>2024-04-12T13:04:45.181Z</time>
</trkpt>
<trkpt lat="44.2767940" lon="14.7472420">
<ele>51.404003</ele>
<time>2024-04-12T13:04:45.181Z</time>
</trkpt>
<trkpt lat="44.2767820" lon="14.7472680">
<ele>51.667000</ele>
<time>2024-04-12T13:04:45.181Z</time>
</trkpt>
<trkpt lat="44.2767700" lon="14.7472950">
<ele>51.779003</ele>
<time>2024-04-12T13:04:45.181Z</time>
</trkpt>
<trkpt lat="44.2767560" lon="14.7473280">
<ele>51.856003</ele>
<time>2024-04-12T13:04:45.181Z</time>
</trkpt>
<trkpt lat="44.2767410" lon="14.7473620">
<ele>52.024002</ele>
<time>2024-04-12T13:04:45.181Z</time>
</trkpt>
<trkpt lat="44.2767330" lon="14.7474010">
<ele>52.141998</ele>
<time>2024-04-12T13:04:45.181Z</time>
</trkpt>
<trkpt lat="44.2767250" lon="14.7474400">
<ele>52.175003</ele>
<time>2024-04-12T13:04:45.181Z</time>
</trkpt>
<trkpt lat="44.2766990" lon="14.7474820">
<ele>52.390003</ele>
<time>2024-04-12T13:04:45.181Z</time>
</trkpt>
<trkpt lat="44.2766900" lon="14.7475120">
<ele>52.514999</ele>
<time>2024-04-12T13:04:45.181Z</time>
</trkpt>
<trkpt lat="44.2766810" lon="14.7475420">
<ele>52.567001</ele>
<time>2024-04-12T13:04:45.181Z</time>
</trkpt>
<trkpt lat="44.2766660" lon="14.7475870">
<ele>52.663998</ele>
<time>2024-04-12T13:04:45.181Z</time>
</trkpt>
<trkpt lat="44.2766510" lon="14.7476320">
<ele>52.851002</ele>
<time>2024-04-12T13:04:45.181Z</time>
</trkpt>
<trkpt lat="44.2766420" lon="14.7476690">
<ele>52.932003</ele>
<time>2024-04-12T13:04:45.181Z</time>
</trkpt>
<trkpt lat="44.2766350" lon="14.7477000">
<ele>52.938000</ele>
<time>2024-04-12T13:04:45.181Z</time>
</trkpt>
<trkpt lat="44.2766290" lon="14.7477320">
<ele>52.945000</ele>
<time>2024-04-12T13:04:45.181Z</time>
</trkpt>
<trkpt lat="44.2766230" lon="14.7477750">
<ele>53.102001</ele>
<time>2024-04-12T13:04:45.181Z</time>
</trkpt>
<trkpt lat="44.2766080" lon="14.7478130">
<ele>53.217999</ele>
<time>2024-04-12T13:04:45.181Z</time>
</trkpt>
<trkpt lat="44.2765930" lon="14.7478520">
<ele>53.049000</ele>
<time>2024-04-12T13:04:45.181Z</time>
</trkpt>
<trkpt lat="44.2765850" lon="14.7478970">
<ele>52.915997</ele>
<time>2024-04-12T13:04:45.181Z</time>
</trkpt>
<trkpt lat="44.2765780" lon="14.7479420">
<ele>52.841999</ele>
<time>2024-04-12T13:04:45.181Z</time>
</trkpt>
<trkpt lat="44.2765610" lon="14.7479780">
<ele>52.694004</ele>
<time>2024-04-12T13:04:45.181Z</time>
</trkpt>
<trkpt lat="44.2765440" lon="14.7480150">
<ele>52.487999</ele>
<time>2024-04-12T13:04:45.181Z</time>
</trkpt>
<trkpt lat="44.2765290" lon="14.7480590">
<ele>52.426998</ele>
<time>2024-04-12T13:04:45.181Z</time>
</trkpt>
<trkpt lat="44.2765130" lon="14.7481030">
<ele>52.283001</ele>
<time>2024-04-12T13:04:45.181Z</time>
</trkpt>
<trkpt lat="44.2765030" lon="14.7481340">
<ele>52.005997</ele>
<time>2024-04-12T13:04:45.181Z</time>
</trkpt>
<trkpt lat="44.2764940" lon="14.7481650">
<ele>51.577000</ele>
<time>2024-04-12T13:04:45.181Z</time>
</trkpt>
<trkpt lat="44.2764920" lon="14.7482030">
<ele>51.066998</ele>
<time>2024-04-12T13:04:45.181Z</time>
</trkpt>
<trkpt lat="44.2764960" lon="14.7482420">
<ele>50.594002</ele>
<time>2024-04-12T13:04:45.181Z</time>
</trkpt>
<trkpt lat="44.2764870" lon="14.7482700">
<ele>50.084000</ele>
<time>2024-04-12T13:04:45.181Z</time>
</trkpt>
<trkpt lat="44.2764780" lon="14.7482990">
<ele>49.521999</ele>
<time>2024-04-12T13:04:45.181Z</time>
</trkpt>
<trkpt lat="44.2764630" lon="14.7483300">
<ele>48.866997</ele>
<time>2024-04-12T13:04:45.181Z</time>
</trkpt>
<trkpt lat="44.2764490" lon="14.7483610">
<ele>48.419998</ele>
<time>2024-04-12T13:04:45.181Z</time>
</trkpt>
<trkpt lat="44.2764350" lon="14.7483860">
<ele>47.999001</ele>
<time>2024-04-12T13:04:45.181Z</time>
</trkpt>
<trkpt lat="44.2764200" lon="14.7484110">
<ele>47.442001</ele>
<time>2024-04-12T13:04:45.181Z</time>
</trkpt>
<trkpt lat="44.2764090" lon="14.7484420">
<ele>46.926003</ele>
<time>2024-04-12T13:04:45.181Z</time>
</trkpt>
<trkpt lat="44.2763990" lon="14.7484720">
<ele>46.544003</ele>
<time>2024-04-12T13:04:45.181Z</time>
</trkpt>
<trkpt lat="44.2763890" lon="14.7485010">
<ele>46.091999</ele>
<time>2024-04-12T13:04:45.181Z</time>
</trkpt>
<trkpt lat="44.2763790" lon="14.7485300">
<ele>45.555000</ele>
<time>2024-04-12T13:04:45.181Z</time>
</trkpt>
<trkpt lat="44.2763660" lon="14.7485830">
<ele>44.674999</ele>
<time>2024-04-12T13:04:45.181Z</time>
</trkpt>
<trkpt lat="44.2763590" lon="14.7486180">
<ele>44.170002</ele>
<time>2024-04-12T13:04:45.181Z</time>
</trkpt>
<trkpt lat="44.2763520" lon="14.7486530">
<ele>43.645000</ele>
<time>2024-04-12T13:04:45.181Z</time>
</trkpt>
<trkpt lat="44.2763360" lon="14.7486820">
<ele>43.049999</ele>
<time>2024-04-12T13:04:45.181Z</time>
</trkpt>
<trkpt lat="44.2763200" lon="14.7487120">
<ele>42.578003</ele>
<time>2024-04-12T13:04:45.181Z</time>
</trkpt>
<trkpt lat="44.2763130" lon="14.7487410">
<ele>42.106003</ele>
<time>2024-04-12T13:04:45.181Z</time>
</trkpt>
<trkpt lat="44.2763000" lon="14.7487840">
<ele>41.238998</ele>
<time>2024-04-12T13:04:45.181Z</time>
</trkpt>
<trkpt lat="44.2762870" lon="14.7488100">
<ele>40.655003</ele>
<time>2024-04-12T13:04:45.181Z</time>
</trkpt>
<trkpt lat="44.2762730" lon="14.7488360">
<ele>40.186996</ele>
<time>2024-04-12T13:04:45.181Z</time>
</trkpt>
<trkpt lat="44.2762590" lon="14.7488880">
<ele>39.113998</ele>
<time>2024-04-12T13:04:45.181Z</time>
</trkpt>
<trkpt lat="44.2762590" lon="14.7488870">
<ele>39.148003</ele>
<time>2024-04-12T13:04:45.181Z</time>
</trkpt>
<trkpt lat="44.2762380" lon="14.7489190">
<ele>38.528999</ele>
<time>2024-04-12T13:04:45.181Z</time>
</trkpt>
<trkpt lat="44.2762170" lon="14.7489510">
<ele>37.917999</ele>
<time>2024-04-12T13:04:45.181Z</time>
</trkpt>
<trkpt lat="44.2761930" lon="14.7489750">
<ele>37.540001</ele>
<time>2024-04-12T13:04:45.181Z</time>
</trkpt>
<trkpt lat="44.2761690" lon="14.7489990">
<ele>37.431999</ele>
<time>2024-04-12T13:04:45.181Z</time>
</trkpt>
<trkpt lat="44.2761600" lon="14.7490340">
<ele>36.992001</ele>
<time>2024-04-12T13:04:45.181Z</time>
</trkpt>
<trkpt lat="44.2761510" lon="14.7490680">
<ele>36.611000</ele>
<time>2024-04-12T13:04:45.181Z</time>
</trkpt>
<trkpt lat="44.2761510" lon="14.7491290">
<ele>35.588001</ele>
<time>2024-04-12T13:04:45.181Z</time>
</trkpt>
<trkpt lat="44.2761420" lon="14.7491740">
<ele>35.088001</ele>
<time>2024-04-12T13:04:45.181Z</time>
</trkpt>
<trkpt lat="44.2761320" lon="14.7492190">
<ele>34.706001</ele>
<time>2024-04-12T13:04:45.181Z</time>
</trkpt>
<trkpt lat="44.2761250" lon="14.7492510">
<ele>34.556999</ele>
<time>2024-04-12T13:04:45.181Z</time>
</trkpt>
<trkpt lat="44.2761170" lon="14.7492830">
<ele>34.565998</ele>
<time>2024-04-12T13:04:45.181Z</time>
</trkpt>
<trkpt lat="44.2761180" lon="14.7493250">
<ele>34.331001</ele>
<time>2024-04-12T13:04:45.181Z</time>
</trkpt>
<trkpt lat="44.2761180" lon="14.7493660">
<ele>34.103001</ele>
<time>2024-04-12T13:04:45.181Z</time>
</trkpt>
<trkpt lat="44.2761130" lon="14.7493980">
<ele>34.098000</ele>
<time>2024-04-12T13:04:45.181Z</time>
</trkpt>
<trkpt lat="44.2761080" lon="14.7494290">
<ele>34.101002</ele>
<time>2024-04-12T13:04:45.181Z</time>
</trkpt>
<trkpt lat="44.2761050" lon="14.7494650">
<ele>34.018002</ele>
<time>2024-04-12T13:04:45.181Z</time>
</trkpt>
<trkpt lat="44.2761020" lon="14.7495010">
<ele>33.931000</ele>
<time>2024-04-12T13:04:45.181Z</time>
</trkpt>
<trkpt lat="44.2760910" lon="14.7495300">
<ele>34.122002</ele>
<time>2024-04-12T13:04:45.181Z</time>
</trkpt>
<trkpt lat="44.2760800" lon="14.7495580">
<ele>34.302998</ele>
<time>2024-04-12T13:04:45.181Z</time>
</trkpt>
<trkpt lat="44.2760790" lon="14.7495920">
<ele>34.160000</ele>
<time>2024-04-12T13:04:45.181Z</time>
</trkpt>
<trkpt lat="44.2760780" lon="14.7496250">
<ele>34.023998</ele>
<time>2024-04-12T13:04:45.181Z</time>
</trkpt>
<trkpt lat="44.2760700" lon="14.7496630">
<ele>34.090000</ele>
<time>2024-04-12T13:04:45.181Z</time>
</trkpt>
<trkpt lat="44.2760620" lon="14.7497000">
<ele>34.154999</ele>
<time>2024-04-12T13:04:45.181Z</time>
</trkpt>
<trkpt lat="44.2760470" lon="14.7497520">
<ele>34.334999</ele>
<time>2024-04-12T13:04:45.181Z</time>
</trkpt>
<trkpt lat="44.2760360" lon="14.7497830">
<ele>34.522999</ele>
<time>2024-04-12T13:04:45.181Z</time>
</trkpt>
<trkpt lat="44.2760240" lon="14.7498130">
<ele>34.715000</ele>
<time>2024-04-12T13:04:45.181Z</time>
</trkpt>
<trkpt lat="44.2760200" lon="14.7498470">
<ele>34.744999</ele>
<time>2024-04-12T13:04:45.181Z</time>
</trkpt>
<trkpt lat="44.2760150" lon="14.7498820">
<ele>34.782001</ele>
<time>2024-04-12T13:04:45.181Z</time>
</trkpt>
<trkpt lat="44.2760070" lon="14.7499270">
<ele>34.825001</ele>
<time>2024-04-12T13:04:45.181Z</time>
</trkpt>
<trkpt lat="44.2760040" lon="14.7499530">
<ele>34.765999</ele>
<time>2024-04-12T13:04:45.181Z</time>
</trkpt>
<trkpt lat="44.2759930" lon="14.7499900">
<ele>34.786999</ele>
<time>2024-04-12T13:04:45.181Z</time>
</trkpt>
<trkpt lat="44.2759820" lon="14.7500260">
<ele>34.950001</ele>
<time>2024-04-12T13:04:45.181Z</time>
</trkpt>
<trkpt lat="44.2759740" lon="14.7500610">
<ele>35.075001</ele>
<time>2024-04-12T13:04:45.181Z</time>
</trkpt>
<trkpt lat="44.2759660" lon="14.7500970">
<ele>35.119999</ele>
<time>2024-04-12T13:04:45.181Z</time>
</trkpt>
<trkpt lat="44.2759590" lon="14.7501350">
<ele>35.056000</ele>
<time>2024-04-12T13:04:45.181Z</time>
</trkpt>
<trkpt lat="44.2759520" lon="14.7501730">
<ele>35.048000</ele>
<time>2024-04-12T13:04:45.181Z</time>
</trkpt>
<trkpt lat="44.2759460" lon="14.7502030">
<ele>35.104000</ele>
<time>2024-04-12T13:04:45.181Z</time>
</trkpt>
<trkpt lat="44.2759400" lon="14.7502340">
<ele>35.213001</ele>
<time>2024-04-12T13:04:45.181Z</time>
</trkpt>
<trkpt lat="44.2759300" lon="14.7502650">
<ele>35.320999</ele>
<time>2024-04-12T13:04:45.181Z</time>
</trkpt>
<trkpt lat="44.2759210" lon="14.7502960">
<ele>35.367001</ele>
<time>2024-04-12T13:04:45.181Z</time>
</trkpt>
<trkpt lat="44.2759180" lon="14.7503290">
<ele>35.259998</ele>
<time>2024-04-12T13:04:45.181Z</time>
</trkpt>
<trkpt lat="44.2759160" lon="14.7503620">
<ele>35.244999</ele>
<time>2024-04-12T13:04:45.181Z</time>
</trkpt>
<trkpt lat="44.2759060" lon="14.7503920">
<ele>35.371998</ele>
<time>2024-04-12T13:04:45.181Z</time>
</trkpt>
<trkpt lat="44.2758950" lon="14.7504230">
<ele>35.543999</ele>
<time>2024-04-12T13:04:45.181Z</time>
</trkpt>
<trkpt lat="44.2758870" lon="14.7504520">
<ele>35.595001</ele>
<time>2024-04-12T13:04:45.181Z</time>
</trkpt>
<trkpt lat="44.2758790" lon="14.7504820">
<ele>35.616001</ele>
<time>2024-04-12T13:04:45.181Z</time>
</trkpt>
<trkpt lat="44.2758710" lon="14.7505130">
<ele>35.627998</ele>
<time>2024-04-12T13:04:45.181Z</time>
</trkpt>
<trkpt lat="44.2758630" lon="14.7505450">
<ele>35.721001</ele>
<time>2024-04-12T13:04:45.181Z</time>
</trkpt>
<trkpt lat="44.2758550" lon="14.7505750">
<ele>35.859001</ele>
<time>2024-04-12T13:04:45.181Z</time>
</trkpt>
<trkpt lat="44.2758470" lon="14.7506060">
<ele>35.895000</ele>
<time>2024-04-12T13:04:45.181Z</time>
</trkpt>
<trkpt lat="44.2758350" lon="14.7506350">
<ele>35.950001</ele>
<time>2024-04-12T13:04:45.181Z</time>
</trkpt>
<trkpt lat="44.2758230" lon="14.7506640">
<ele>36.049999</ele>
<time>2024-04-12T13:04:45.181Z</time>
</trkpt>
<trkpt lat="44.2758160" lon="14.7506960">
<ele>36.191002</ele>
<time>2024-04-12T13:04:45.181Z</time>
</trkpt>
<trkpt lat="44.2758090" lon="14.7507280">
<ele>36.262001</ele>
<time>2024-04-12T13:04:45.181Z</time>
</trkpt>
<trkpt lat="44.2757980" lon="14.7507610">
<ele>36.352001</ele>
<time>2024-04-12T13:04:45.181Z</time>
</trkpt>
<trkpt lat="44.2757870" lon="14.7507930">
<ele>36.423000</ele>
<time>2024-04-12T13:04:45.181Z</time>
</trkpt>
<trkpt lat="44.2757740" lon="14.7508410">
<ele>36.525002</ele>
<time>2024-04-12T13:04:45.181Z</time>
</trkpt>
<trkpt lat="44.2757620" lon="14.7508850">
<ele>36.681999</ele>
<time>2024-04-12T13:04:45.181Z</time>
</trkpt>
<trkpt lat="44.2757490" lon="14.7509430">
<ele>36.653000</ele>
<time>2024-04-12T13:04:45.181Z</time>
</trkpt>
<trkpt lat="44.2757440" lon="14.7509810">
<ele>36.521999</ele>
<time>2024-04-12T13:04:45.181Z</time>
</trkpt>
<trkpt lat="44.2757330" lon="14.7510170">
<ele>36.542000</ele>
<time>2024-04-12T13:04:45.181Z</time>
</trkpt>
<trkpt lat="44.2757250" lon="14.7510450">
<ele>36.579998</ele>
<time>2024-04-12T13:04:45.181Z</time>
</trkpt>
<trkpt lat="44.2757110" lon="14.7510710">
<ele>36.750000</ele>
<time>2024-04-12T13:04:45.181Z</time>
</trkpt>
<trkpt lat="44.2756960" lon="14.7510980">
<ele>36.892998</ele>
<time>2024-04-12T13:04:45.181Z</time>
</trkpt>
<trkpt lat="44.2756870" lon="14.7511280">
<ele>36.917000</ele>
<time>2024-04-12T13:04:45.181Z</time>
</trkpt>
<trkpt lat="44.2756780" lon="14.7511550">
<ele>36.952999</ele>
<time>2024-04-12T13:04:45.181Z</time>
</trkpt>
<trkpt lat="44.2756730" lon="14.7511790">
<ele>36.948002</ele>
<time>2024-04-12T13:04:45.181Z</time>
</trkpt>
<trkpt lat="44.2756680" lon="14.7512150">
<ele>36.841000</ele>
<time>2024-04-12T13:04:45.181Z</time>
</trkpt>
<trkpt lat="44.2756570" lon="14.7512630">
<ele>36.769001</ele>
<time>2024-04-12T13:04:45.181Z</time>
</trkpt>
<trkpt lat="44.2756460" lon="14.7512950">
<ele>36.835999</ele>
<time>2024-04-12T13:04:45.181Z</time>
</trkpt>
<trkpt lat="44.2756350" lon="14.7513270">
<ele>36.938000</ele>
<time>2024-04-12T13:04:45.181Z</time>
</trkpt>
<trkpt lat="44.2756160" lon="14.7513680">
<ele>37.060001</ele>
<time>2024-04-12T13:04:45.181Z</time>
</trkpt>
<trkpt lat="44.2756070" lon="14.7514040">
<ele>36.927998</ele>
<time>2024-04-12T13:04:45.181Z</time>
</trkpt>
<trkpt lat="44.2755950" lon="14.7514490">
<ele>37.134003</ele>
<time>2024-04-12T13:04:45.181Z</time>
</trkpt>
<trkpt lat="44.2755940" lon="14.7514810">
<ele>37.134003</ele>
<time>2024-04-12T13:04:45.181Z</time>
</trkpt>
<trkpt lat="44.2755920" lon="14.7515290">
<ele>37.216999</ele>
<time>2024-04-12T13:04:45.181Z</time>
</trkpt>
<trkpt lat="44.2755890" lon="14.7515850">
<ele>37.354000</ele>
<time>2024-04-12T13:04:45.181Z</time>
</trkpt>
<trkpt lat="44.2755930" lon="14.7516170">
<ele>37.220001</ele>
<time>2024-04-12T13:04:45.181Z</time>
</trkpt>
<trkpt lat="44.2755960" lon="14.7516490">
<ele>37.098999</ele>
<time>2024-04-12T13:04:45.181Z</time>
</trkpt>
<trkpt lat="44.2755910" lon="14.7516940">
<ele>36.984001</ele>
<time>2024-04-12T13:04:45.181Z</time>
</trkpt>
<trkpt lat="44.2755820" lon="14.7517470">
<ele>36.852001</ele>
<time>2024-04-12T13:04:45.181Z</time>
</trkpt>
<trkpt lat="44.2755720" lon="14.7518040">
<ele>36.741001</ele>
<time>2024-04-12T13:04:45.181Z</time>
</trkpt>
<trkpt lat="44.2755700" lon="14.7518370">
<ele>36.702999</ele>
<time>2024-04-12T13:04:45.181Z</time>
</trkpt>
<trkpt lat="44.2755680" lon="14.7518700">
<ele>36.662998</ele>
<time>2024-04-12T13:04:45.181Z</time>
</trkpt>
<trkpt lat="44.2755640" lon="14.7519030">
<ele>36.642002</ele>
<time>2024-04-12T13:04:45.181Z</time>
</trkpt>
<trkpt lat="44.2755590" lon="14.7519370">
<ele>36.611000</ele>
<time>2024-04-12T13:04:45.181Z</time>
</trkpt>
<trkpt lat="44.2755520" lon="14.7519690">
<ele>36.611000</ele>
<time>2024-04-12T13:04:45.181Z</time>
</trkpt>
<trkpt lat="44.2755440" lon="14.7520020">
<ele>36.610001</ele>
<time>2024-04-12T13:04:45.181Z</time>
</trkpt>
<trkpt lat="44.2755350" lon="14.7520370">
<ele>36.637001</ele>
<time>2024-04-12T13:04:45.181Z</time>
</trkpt>
<trkpt lat="44.2755300" lon="14.7520680">
<ele>36.632000</ele>
<time>2024-04-12T13:04:45.181Z</time>
</trkpt>
<trkpt lat="44.2755250" lon="14.7521000">
<ele>36.621998</ele>
<time>2024-04-12T13:04:45.181Z</time>
</trkpt>
<trkpt lat="44.2755200" lon="14.7521360">
<ele>36.596001</ele>
<time>2024-04-12T13:04:45.181Z</time>
</trkpt>
<trkpt lat="44.2755160" lon="14.7521710">
<ele>36.566002</ele>
<time>2024-04-12T13:04:45.181Z</time>
</trkpt>
<trkpt lat="44.2755110" lon="14.7522190">
<ele>36.507000</ele>
<time>2024-04-12T13:04:45.181Z</time>
</trkpt>
<trkpt lat="44.2755020" lon="14.7522660">
<ele>36.492001</ele>
<time>2024-04-12T13:04:45.181Z</time>
</trkpt>
<trkpt lat="44.2754880" lon="14.7523170">
<ele>36.542999</ele>
<time>2024-04-12T13:04:45.181Z</time>
</trkpt>
<trkpt lat="44.2754870" lon="14.7523560">
<ele>36.456001</ele>
<time>2024-04-12T13:04:45.181Z</time>
</trkpt>
<trkpt lat="44.2754820" lon="14.7523960">
<ele>36.300999</ele>
<time>2024-04-12T13:04:45.181Z</time>
</trkpt>
<trkpt lat="44.2754700" lon="14.7524550">
<ele>36.076000</ele>
<time>2024-04-12T13:04:45.181Z</time>
</trkpt>
<trkpt lat="44.2754600" lon="14.7524930">
<ele>35.958000</ele>
<time>2024-04-12T13:04:45.181Z</time>
</trkpt>
<trkpt lat="44.2754570" lon="14.7525230">
<ele>35.806999</ele>
<time>2024-04-12T13:04:45.181Z</time>
</trkpt>
<trkpt lat="44.2754570" lon="14.7525680">
<ele>35.530003</ele>
<time>2024-04-12T13:04:45.181Z</time>
</trkpt>
<trkpt lat="44.2754510" lon="14.7526010">
<ele>35.404999</ele>
<time>2024-04-12T13:04:45.181Z</time>
</trkpt>
<trkpt lat="44.2754470" lon="14.7526260">
<ele>35.298000</ele>
<time>2024-04-12T13:04:45.181Z</time>
</trkpt>
<trkpt lat="44.2754340" lon="14.7526580">
<ele>35.234001</ele>
<time>2024-04-12T13:04:45.181Z</time>
</trkpt>
<trkpt lat="44.2754180" lon="14.7526850">
<ele>35.252998</ele>
<time>2024-04-12T13:04:45.181Z</time>
</trkpt>
<trkpt lat="44.2754080" lon="14.7527160">
<ele>35.182999</ele>
<time>2024-04-12T13:04:45.181Z</time>
</trkpt>
<trkpt lat="44.2753990" lon="14.7527570">
<ele>35.042999</ele>
<time>2024-04-12T13:04:45.181Z</time>
</trkpt>
<trkpt lat="44.2753880" lon="14.7528040">
<ele>34.868000</ele>
<time>2024-04-12T13:04:45.181Z</time>
</trkpt>
<trkpt lat="44.2753770" lon="14.7528440">
<ele>34.742001</ele>
<time>2024-04-12T13:04:45.181Z</time>
</trkpt>
<trkpt lat="44.2753650" lon="14.7528790">
<ele>34.668999</ele>
<time>2024-04-12T13:04:45.181Z</time>
</trkpt>
<trkpt lat="44.2753580" lon="14.7529120">
<ele>34.562000</ele>
<time>2024-04-12T13:04:45.181Z</time>
</trkpt>
<trkpt lat="44.2753530" lon="14.7529650">
<ele>34.277000</ele>
<time>2024-04-12T13:04:45.181Z</time>
</trkpt>
<trkpt lat="44.2753450" lon="14.7530140">
<ele>34.189999</ele>
<time>2024-04-12T13:04:45.181Z</time>
</trkpt>
<trkpt lat="44.2753370" lon="14.7530550">
<ele>34.123001</ele>
<time>2024-04-12T13:04:45.181Z</time>
</trkpt>
<trkpt lat="44.2753220" lon="14.7530960">
<ele>34.072998</ele>
<time>2024-04-12T13:04:45.181Z</time>
</trkpt>
<trkpt lat="44.2753100" lon="14.7531290">
<ele>33.981998</ele>
<time>2024-04-12T13:04:45.181Z</time>
</trkpt>
<trkpt lat="44.2752980" lon="14.7531550">
<ele>33.994999</ele>
<time>2024-04-12T13:04:45.181Z</time>
</trkpt>
<trkpt lat="44.2752900" lon="14.7531860">
<ele>34.021999</ele>
<time>2024-04-12T13:04:45.181Z</time>
</trkpt>
<trkpt lat="44.2752820" lon="14.7532160">
<ele>34.068001</ele>
<time>2024-04-12T13:04:45.181Z</time>
</trkpt>
<trkpt lat="44.2752540" lon="14.7532580">
<ele>34.174999</ele>
<time>2024-04-12T13:04:45.181Z</time>
</trkpt>
<trkpt lat="44.2752260" lon="14.7533000">
<ele>34.241001</ele>
<time>2024-04-12T13:04:45.181Z</time>
</trkpt>
<trkpt lat="44.2752070" lon="14.7533250">
<ele>34.313000</ele>
<time>2024-04-12T13:04:45.181Z</time>
</trkpt>
<trkpt lat="44.2751850" lon="14.7533630">
<ele>34.384998</ele>
<time>2024-04-12T13:04:45.181Z</time>
</trkpt>
<trkpt lat="44.2751670" lon="14.7533730">
<ele>34.452999</ele>
<time>2024-04-12T13:04:45.181Z</time>
</trkpt>
<trkpt lat="44.2751490" lon="14.7533550">
<ele>34.549000</ele>
<time>2024-04-12T13:04:45.181Z</time>
</trkpt>
<trkpt lat="44.2751350" lon="14.7533270">
<ele>34.735001</ele>
<time>2024-04-12T13:04:45.181Z</time>
</trkpt>
<trkpt lat="44.2751200" lon="14.7532990">
<ele>34.910999</ele>
<time>2024-04-12T13:04:45.181Z</time>
</trkpt>
<trkpt lat="44.2751010" lon="14.7532710">
<ele>35.114002</ele>
<time>2024-04-12T13:04:45.181Z</time>
</trkpt>
<trkpt lat="44.2750820" lon="14.7532430">
<ele>35.327999</ele>
<time>2024-04-12T13:04:45.181Z</time>
</trkpt>
<trkpt lat="44.2750560" lon="14.7532100">
<ele>35.587002</ele>
<time>2024-04-12T13:04:45.181Z</time>
</trkpt>
<trkpt lat="44.2750300" lon="14.7531760">
<ele>35.859001</ele>
<time>2024-04-12T13:04:45.181Z</time>
</trkpt>
<trkpt lat="44.2750040" lon="14.7531430">
<ele>36.125000</ele>
<time>2024-04-12T13:04:45.181Z</time>
</trkpt>
<trkpt lat="44.2749820" lon="14.7531070">
<ele>36.378002</ele>
<time>2024-04-12T13:04:45.181Z</time>
</trkpt>
<trkpt lat="44.2749600" lon="14.7530710">
<ele>36.632999</ele>
<time>2024-04-12T13:04:45.181Z</time>
</trkpt>
<trkpt lat="44.2749350" lon="14.7530340">
<ele>36.964001</ele>
<time>2024-04-12T13:04:45.181Z</time>
</trkpt>
<trkpt lat="44.2749100" lon="14.7529970">
<ele>37.316998</ele>
<time>2024-04-12T13:04:45.181Z</time>
</trkpt>
<trkpt lat="44.2748910" lon="14.7529730">
<ele>37.572998</ele>
<time>2024-04-12T13:04:45.181Z</time>
</trkpt>
<trkpt lat="44.2748730" lon="14.7529500">
<ele>37.822002</ele>
<time>2024-04-12T13:04:45.181Z</time>
</trkpt>
<trkpt lat="44.2748450" lon="14.7529150">
<ele>38.191998</ele>
<time>2024-04-12T13:04:45.181Z</time>
</trkpt>
<trkpt lat="44.2748170" lon="14.7528810">
<ele>38.556999</ele>
<time>2024-04-12T13:04:45.181Z</time>
</trkpt>
<trkpt lat="44.2748010" lon="14.7528510">
<ele>38.827000</ele>
<time>2024-04-12T13:04:45.181Z</time>
</trkpt>
<trkpt lat="44.2747840" lon="14.7528220">
<ele>39.092999</ele>
<time>2024-04-12T13:04:45.181Z</time>
</trkpt>
<trkpt lat="44.2747600" lon="14.7527980">
<ele>39.380001</ele>
<time>2024-04-12T13:04:45.181Z</time>
</trkpt>
<trkpt lat="44.2747360" lon="14.7527740">
<ele>39.668003</ele>
<time>2024-04-12T13:04:45.181Z</time>
</trkpt>
<trkpt lat="44.2747120" lon="14.7527390">
<ele>39.997002</ele>
<time>2024-04-12T13:04:45.181Z</time>
</trkpt>
<trkpt lat="44.2746870" lon="14.7527030">
<ele>40.239998</ele>
<time>2024-04-12T13:04:45.181Z</time>
</trkpt>
<trkpt lat="44.2746630" lon="14.7526860">
<ele>40.404999</ele>
<time>2024-04-12T13:04:45.181Z</time>
</trkpt>
<trkpt lat="44.2746390" lon="14.7526680">
<ele>40.562000</ele>
<time>2024-04-12T13:04:45.181Z</time>
</trkpt>
<trkpt lat="44.2746010" lon="14.7526500">
<ele>40.876999</ele>
<time>2024-04-12T13:04:45.181Z</time>
</trkpt>
<trkpt lat="44.2745640" lon="14.7526300">
<ele>41.184998</ele>
<time>2024-04-12T13:04:45.181Z</time>
</trkpt>
<trkpt lat="44.2745240" lon="14.7526140">
<ele>41.605000</ele>
<time>2024-04-12T13:04:45.181Z</time>
</trkpt>
<trkpt lat="44.2744850" lon="14.7525980">
<ele>41.931999</ele>
<time>2024-04-12T13:04:45.181Z</time>
</trkpt>
<trkpt lat="44.2744460" lon="14.7525810">
<ele>42.209999</ele>
<time>2024-04-12T13:04:45.181Z</time>
</trkpt>
<trkpt lat="44.2744130" lon="14.7525690">
<ele>42.522999</ele>
<time>2024-04-12T13:04:45.181Z</time>
</trkpt>
<trkpt lat="44.2743810" lon="14.7525560">
<ele>42.877003</ele>
<time>2024-04-12T13:04:45.181Z</time>
</trkpt>
<trkpt lat="44.2743480" lon="14.7525430">
<ele>43.137001</ele>
<time>2024-04-12T13:04:45.181Z</time>
</trkpt>
<trkpt lat="44.2743090" lon="14.7525280">
<ele>43.397003</ele>
<time>2024-04-12T13:04:45.181Z</time>
</trkpt>
<trkpt lat="44.2742700" lon="14.7525140">
<ele>43.761997</ele>
<time>2024-04-12T13:04:45.181Z</time>
</trkpt>
<trkpt lat="44.2742330" lon="14.7525010">
<ele>44.146999</ele>
<time>2024-04-12T13:04:45.181Z</time>
</trkpt>
<trkpt lat="44.2741960" lon="14.7524880">
<ele>44.369999</ele>
<time>2024-04-12T13:04:45.181Z</time>
</trkpt>
<trkpt lat="44.2741550" lon="14.7524730">
<ele>44.565002</ele>
<time>2024-04-12T13:04:45.181Z</time>
</trkpt>
<trkpt lat="44.2741140" lon="14.7524570">
<ele>44.791000</ele>
<time>2024-04-12T13:04:45.181Z</time>
</trkpt>
<trkpt lat="44.2740800" lon="14.7524440">
<ele>44.997002</ele>
<time>2024-04-12T13:04:45.181Z</time>
</trkpt>
<trkpt lat="44.2740470" lon="14.7524310">
<ele>45.154003</ele>
<time>2024-04-12T13:04:45.181Z</time>
</trkpt>
<trkpt lat="44.2740140" lon="14.7524200">
<ele>45.302002</ele>
<time>2024-04-12T13:04:45.181Z</time>
</trkpt>
<trkpt lat="44.2739810" lon="14.7524080">
<ele>45.466003</ele>
<time>2024-04-12T13:04:45.181Z</time>
</trkpt>
<trkpt lat="44.2739480" lon="14.7523960">
<ele>45.646999</ele>
<time>2024-04-12T13:04:45.181Z</time>
</trkpt>
<trkpt lat="44.2739150" lon="14.7523840">
<ele>45.845001</ele>
<time>2024-04-12T13:04:45.181Z</time>
</trkpt>
<trkpt lat="44.2738910" lon="14.7523790">
<ele>46.019001</ele>
<time>2024-04-12T13:04:45.181Z</time>
</trkpt>
<trkpt lat="44.2738600" lon="14.7523610">
<ele>46.282997</ele>
<time>2024-04-12T13:04:45.181Z</time>
</trkpt>
<trkpt lat="44.2738300" lon="14.7523440">
<ele>46.642998</ele>
<time>2024-04-12T13:04:45.181Z</time>
</trkpt>
<trkpt lat="44.2737910" lon="14.7523200">
<ele>47.108997</ele>
<time>2024-04-12T13:04:45.181Z</time>
</trkpt>
<trkpt lat="44.2737530" lon="14.7522970">
<ele>47.562000</ele>
<time>2024-04-12T13:04:45.181Z</time>
</trkpt>
<trkpt lat="44.2737150" lon="14.7522730">
<ele>48.028000</ele>
<time>2024-04-12T13:04:45.181Z</time>
</trkpt>
<trkpt lat="44.2736770" lon="14.7522500">
<ele>48.528000</ele>
<time>2024-04-12T13:04:45.181Z</time>
</trkpt>
<trkpt lat="44.2736390" lon="14.7522260">
<ele>48.864998</ele>
<time>2024-04-12T13:04:45.181Z</time>
</trkpt>
<trkpt lat="44.2736070" lon="14.7522060">
<ele>49.194000</ele>
<time>2024-04-12T13:04:45.181Z</time>
</trkpt>
<trkpt lat="44.2735750" lon="14.7521850">
<ele>49.477997</ele>
<time>2024-04-12T13:04:45.181Z</time>
</trkpt>
<trkpt lat="44.2735550" lon="14.7521430">
<ele>49.834000</ele>
<time>2024-04-12T13:04:45.181Z</time>
</trkpt>
<trkpt lat="44.2735350" lon="14.7521010">
<ele>50.141998</ele>
<time>2024-04-12T13:04:45.181Z</time>
</trkpt>
<trkpt lat="44.2735140" lon="14.7520590">
<ele>50.542999</ele>
<time>2024-04-12T13:04:45.181Z</time>
</trkpt>
<trkpt lat="44.2734940" lon="14.7520170">
<ele>50.882999</ele>
<time>2024-04-12T13:04:45.181Z</time>
</trkpt>
<trkpt lat="44.2734740" lon="14.7519750">
<ele>51.286999</ele>
<time>2024-04-12T13:04:45.181Z</time>
</trkpt>
<trkpt lat="44.2734510" lon="14.7519360">
<ele>51.638000</ele>
<time>2024-04-12T13:04:45.181Z</time>
</trkpt>
<trkpt lat="44.2734280" lon="14.7518970">
<ele>51.991997</ele>
<time>2024-04-12T13:04:45.181Z</time>
</trkpt>
<trkpt lat="44.2734050" lon="14.7518580">
<ele>52.241001</ele>
<time>2024-04-12T13:04:45.181Z</time>
</trkpt>
<trkpt lat="44.2733820" lon="14.7518230">
<ele>52.472000</ele>
<time>2024-04-12T13:04:45.181Z</time>
</trkpt>
<trkpt lat="44.2733590" lon="14.7517880">
<ele>52.594997</ele>
<time>2024-04-12T13:04:45.181Z</time>
</trkpt>
<trkpt lat="44.2733360" lon="14.7517530">
<ele>52.843998</ele>
<time>2024-04-12T13:04:45.181Z</time>
</trkpt>
<trkpt lat="44.2733130" lon="14.7517180">
<ele>52.956001</ele>
<time>2024-04-12T13:04:45.181Z</time>
</trkpt>
<trkpt lat="44.2732840" lon="14.7516790">
<ele>53.194000</ele>
<time>2024-04-12T13:04:45.181Z</time>
</trkpt>
<trkpt lat="44.2732550" lon="14.7516410">
<ele>53.419998</ele>
<time>2024-04-12T13:04:45.181Z</time>
</trkpt>
<trkpt lat="44.2732260" lon="14.7516020">
<ele>53.513000</ele>
<time>2024-04-12T13:04:45.181Z</time>
</trkpt>
<trkpt lat="44.2732020" lon="14.7515670">
<ele>53.832996</ele>
<time>2024-04-12T13:04:45.181Z</time>
</trkpt>
<trkpt lat="44.2731780" lon="14.7515320">
<ele>53.948002</ele>
<time>2024-04-12T13:04:45.181Z</time>
</trkpt>
<trkpt lat="44.2731550" lon="14.7514970">
<ele>54.260998</ele>
<time>2024-04-12T13:04:45.181Z</time>
</trkpt>
<trkpt lat="44.2731310" lon="14.7514610">
<ele>54.507000</ele>
<time>2024-04-12T13:04:45.181Z</time>
</trkpt>
<trkpt lat="44.2731180" lon="14.7514290">
<ele>54.848000</ele>
<time>2024-04-12T13:04:45.181Z</time>
</trkpt>
<trkpt lat="44.2731040" lon="14.7513960">
<ele>55.214001</ele>
<time>2024-04-12T13:04:45.181Z</time>
</trkpt>
<trkpt lat="44.2731160" lon="14.7513560">
<ele>55.698002</ele>
<time>2024-04-12T13:04:45.181Z</time>
</trkpt>
<trkpt lat="44.2731460" lon="14.7513360">
<ele>56.084000</ele>
<time>2024-04-12T13:04:45.181Z</time>
</trkpt>
<trkpt lat="44.2731760" lon="14.7513270">
<ele>56.343998</ele>
<time>2024-04-12T13:04:45.181Z</time>
</trkpt>
<trkpt lat="44.2732150" lon="14.7513270">
<ele>56.651997</ele>
<time>2024-04-12T13:04:45.185Z</time>
</trkpt>
<trkpt lat="44.2732580" lon="14.7513310">
<ele>56.986000</ele>
<time>2024-04-12T13:04:45.185Z</time>
</trkpt>
<trkpt lat="44.2733010" lon="14.7513350">
<ele>57.318001</ele>
<time>2024-04-12T13:04:45.185Z</time>
</trkpt>
<trkpt lat="44.2733450" lon="14.7513390">
<ele>57.619999</ele>
<time>2024-04-12T13:04:45.185Z</time>
</trkpt>
<trkpt lat="44.2733880" lon="14.7513440">
<ele>57.888000</ele>
<time>2024-04-12T13:04:45.185Z</time>
</trkpt>
<trkpt lat="44.2734170" lon="14.7513440">
<ele>58.072998</ele>
<time>2024-04-12T13:04:45.185Z</time>
</trkpt>
<trkpt lat="44.2734470" lon="14.7513450">
<ele>58.258003</ele>
<time>2024-04-12T13:04:45.185Z</time>
</trkpt>
<trkpt lat="44.2734880" lon="14.7513410">
<ele>58.618000</ele>
<time>2024-04-12T13:04:45.185Z</time>
</trkpt>
<trkpt lat="44.2735030" lon="14.7513110">
<ele>58.921997</ele>
<time>2024-04-12T13:04:45.185Z</time>
</trkpt>
<trkpt lat="44.2735180" lon="14.7512760">
<ele>59.255001</ele>
<time>2024-04-12T13:04:45.185Z</time>
</trkpt>
<trkpt lat="44.2735140" lon="14.7512350">
<ele>59.624996</ele>
<time>2024-04-12T13:04:45.185Z</time>
</trkpt>
<trkpt lat="44.2735000" lon="14.7511930">
<ele>60.027000</ele>
<time>2024-04-12T13:04:45.185Z</time>
</trkpt>
<trkpt lat="44.2734770" lon="14.7511520">
<ele>60.406002</ele>
<time>2024-04-12T13:04:45.185Z</time>
</trkpt>
<trkpt lat="44.2734530" lon="14.7511100">
<ele>60.933002</ele>
<time>2024-04-12T13:04:45.185Z</time>
</trkpt>
<trkpt lat="44.2734300" lon="14.7510690">
<ele>61.386002</ele>
<time>2024-04-12T13:04:45.185Z</time>
</trkpt>
<trkpt lat="44.2734070" lon="14.7510250">
<ele>61.938000</ele>
<time>2024-04-12T13:04:45.185Z</time>
</trkpt>
<trkpt lat="44.2733850" lon="14.7509810">
<ele>62.292999</ele>
<time>2024-04-12T13:04:45.185Z</time>
</trkpt>
<trkpt lat="44.2733620" lon="14.7509370">
<ele>62.690002</ele>
<time>2024-04-12T13:04:45.185Z</time>
</trkpt>
<trkpt lat="44.2733480" lon="14.7509080">
<ele>62.833000</ele>
<time>2024-04-12T13:04:45.185Z</time>
</trkpt>
<trkpt lat="44.2733340" lon="14.7508780">
<ele>63.042000</ele>
<time>2024-04-12T13:04:45.185Z</time>
</trkpt>
<trkpt lat="44.2733150" lon="14.7508330">
<ele>63.418999</ele>
<time>2024-04-12T13:04:45.185Z</time>
</trkpt>
<trkpt lat="44.2732930" lon="14.7507800">
<ele>63.683002</ele>
<time>2024-04-12T13:04:45.185Z</time>
</trkpt>
<trkpt lat="44.2732710" lon="14.7507280">
<ele>64.146004</ele>
<time>2024-04-12T13:04:45.185Z</time>
</trkpt>
<trkpt lat="44.2732550" lon="14.7506840">
<ele>64.359001</ele>
<time>2024-04-12T13:04:45.185Z</time>
</trkpt>
<trkpt lat="44.2732400" lon="14.7506400">
<ele>64.626999</ele>
<time>2024-04-12T13:04:45.185Z</time>
</trkpt>
<trkpt lat="44.2732240" lon="14.7505960">
<ele>65.024002</ele>
<time>2024-04-12T13:04:45.185Z</time>
</trkpt>
<trkpt lat="44.2732090" lon="14.7505530">
<ele>65.175995</ele>
<time>2024-04-12T13:04:45.185Z</time>
</trkpt>
<trkpt lat="44.2731900" lon="14.7505020">
<ele>65.538002</ele>
<time>2024-04-12T13:04:45.185Z</time>
</trkpt>
<trkpt lat="44.2731710" lon="14.7504510">
<ele>65.913002</ele>
<time>2024-04-12T13:04:45.185Z</time>
</trkpt>
<trkpt lat="44.2731530" lon="14.7504000">
<ele>66.114998</ele>
<time>2024-04-12T13:04:45.185Z</time>
</trkpt>
<trkpt lat="44.2731340" lon="14.7503490">
<ele>66.571999</ele>
<time>2024-04-12T13:04:45.185Z</time>
</trkpt>
<trkpt lat="44.2731150" lon="14.7502990">
<ele>66.752998</ele>
<time>2024-04-12T13:04:45.185Z</time>
</trkpt>
<trkpt lat="44.2730940" lon="14.7502450">
<ele>67.138000</ele>
<time>2024-04-12T13:04:45.185Z</time>
</trkpt>
<trkpt lat="44.2730730" lon="14.7501910">
<ele>67.480003</ele>
<time>2024-04-12T13:04:45.185Z</time>
</trkpt>
<trkpt lat="44.2730520" lon="14.7501380">
<ele>67.756996</ele>
<time>2024-04-12T13:04:45.185Z</time>
</trkpt>
<trkpt lat="44.2730310" lon="14.7500840">
<ele>68.182999</ele>
<time>2024-04-12T13:04:45.185Z</time>
</trkpt>
<trkpt lat="44.2730110" lon="14.7500300">
<ele>68.384995</ele>
<time>2024-04-12T13:04:45.185Z</time>
</trkpt>
<trkpt lat="44.2729940" lon="14.7499890">
<ele>68.745003</ele>
<time>2024-04-12T13:04:45.185Z</time>
</trkpt>
<trkpt lat="44.2729780" lon="14.7499480">
<ele>68.977997</ele>
<time>2024-04-12T13:04:45.185Z</time>
</trkpt>
<trkpt lat="44.2729610" lon="14.7499070">
<ele>69.093002</ele>
<time>2024-04-12T13:04:45.185Z</time>
</trkpt>
<trkpt lat="44.2729450" lon="14.7498650">
<ele>69.409004</ele>
<time>2024-04-12T13:04:45.185Z</time>
</trkpt>
<trkpt lat="44.2729300" lon="14.7498260">
<ele>69.591995</ele>
<time>2024-04-12T13:04:45.185Z</time>
</trkpt>
<trkpt lat="44.2729150" lon="14.7497870">
<ele>69.664001</ele>
<time>2024-04-12T13:04:45.185Z</time>
</trkpt>
<trkpt lat="44.2729000" lon="14.7497470">
<ele>69.960999</ele>
<time>2024-04-12T13:04:45.185Z</time>
</trkpt>
<trkpt lat="44.2728820" lon="14.7496960">
<ele>70.202995</ele>
<time>2024-04-12T13:04:45.185Z</time>
</trkpt>
<trkpt lat="44.2728630" lon="14.7496450">
<ele>70.401001</ele>
<time>2024-04-12T13:04:45.185Z</time>
</trkpt>
<trkpt lat="44.2728440" lon="14.7495950">
<ele>70.760002</ele>
<time>2024-04-12T13:04:45.185Z</time>
</trkpt>
<trkpt lat="44.2728250" lon="14.7495460">
<ele>70.830002</ele>
<time>2024-04-12T13:04:45.185Z</time>
</trkpt>
<trkpt lat="44.2728060" lon="14.7494960">
<ele>71.195999</ele>
<time>2024-04-12T13:04:45.185Z</time>
</trkpt>
<trkpt lat="44.2727860" lon="14.7494470">
<ele>71.405998</ele>
<time>2024-04-12T13:04:45.185Z</time>
</trkpt>
<trkpt lat="44.2727670" lon="14.7493970">
<ele>71.687004</ele>
<time>2024-04-12T13:04:45.185Z</time>
</trkpt>
<trkpt lat="44.2727470" lon="14.7493470">
<ele>72.127998</ele>
<time>2024-04-12T13:04:45.185Z</time>
</trkpt>
<trkpt lat="44.2727280" lon="14.7492970">
<ele>72.325996</ele>
<time>2024-04-12T13:04:45.185Z</time>
</trkpt>
<trkpt lat="44.2727080" lon="14.7492470">
<ele>72.791000</ele>
<time>2024-04-12T13:04:45.185Z</time>
</trkpt>
<trkpt lat="44.2726940" lon="14.7492070">
<ele>73.042999</ele>
<time>2024-04-12T13:04:45.185Z</time>
</trkpt>
<trkpt lat="44.2726790" lon="14.7491660">
<ele>73.247002</ele>
<time>2024-04-12T13:04:45.185Z</time>
</trkpt>
<trkpt lat="44.2726650" lon="14.7491290">
<ele>73.598000</ele>
<time>2024-04-12T13:04:45.185Z</time>
</trkpt>
<trkpt lat="44.2726500" lon="14.7490910">
<ele>73.866997</ele>
<time>2024-04-12T13:04:45.185Z</time>
</trkpt>
<trkpt lat="44.2726350" lon="14.7490530">
<ele>74.012001</ele>
<time>2024-04-12T13:04:45.185Z</time>
</trkpt>
<trkpt lat="44.2726190" lon="14.7490150">
<ele>74.348999</ele>
<time>2024-04-12T13:04:45.185Z</time>
</trkpt>
<trkpt lat="44.2726020" lon="14.7489770">
<ele>74.656998</ele>
<time>2024-04-12T13:04:45.185Z</time>
</trkpt>
<trkpt lat="44.2725840" lon="14.7489260">
<ele>74.877998</ele>
<time>2024-04-12T13:04:45.185Z</time>
</trkpt>
<trkpt lat="44.2725660" lon="14.7488750">
<ele>75.357002</ele>
<time>2024-04-12T13:04:45.185Z</time>
</trkpt>
<trkpt lat="44.2725480" lon="14.7488240">
<ele>75.618996</ele>
<time>2024-04-12T13:04:45.185Z</time>
</trkpt>
<trkpt lat="44.2725320" lon="14.7487830">
<ele>75.919998</ele>
<time>2024-04-12T13:04:45.185Z</time>
</trkpt>
<trkpt lat="44.2725160" lon="14.7487420">
<ele>76.302002</ele>
<time>2024-04-12T13:04:45.185Z</time>
</trkpt>
<trkpt lat="44.2725010" lon="14.7487000">
<ele>76.479004</ele>
<time>2024-04-12T13:04:45.185Z</time>
</trkpt>
<trkpt lat="44.2724820" lon="14.7486510">
<ele>76.900002</ele>
<time>2024-04-12T13:04:45.185Z</time>
</trkpt>
<trkpt lat="44.2724640" lon="14.7486010">
<ele>77.311005</ele>
<time>2024-04-12T13:04:45.185Z</time>
</trkpt>
<trkpt lat="44.2724500" lon="14.7485640">
<ele>77.511002</ele>
<time>2024-04-12T13:04:45.185Z</time>
</trkpt>
<trkpt lat="44.2724350" lon="14.7485260">
<ele>77.884003</ele>
<time>2024-04-12T13:04:45.185Z</time>
</trkpt>
<trkpt lat="44.2724210" lon="14.7484890">
<ele>78.190002</ele>
<time>2024-04-12T13:04:45.185Z</time>
</trkpt>
<trkpt lat="44.2724050" lon="14.7484530">
<ele>78.397003</ele>
<time>2024-04-12T13:04:45.185Z</time>
</trkpt>
<trkpt lat="44.2723890" lon="14.7484170">
<ele>78.748001</ele>
<time>2024-04-12T13:04:45.185Z</time>
</trkpt>
<trkpt lat="44.2723740" lon="14.7483860">
<ele>78.969002</ele>
<time>2024-04-12T13:04:45.185Z</time>
</trkpt>
<trkpt lat="44.2723590" lon="14.7483540">
<ele>79.167999</ele>
<time>2024-04-12T13:04:45.185Z</time>
</trkpt>
<trkpt lat="44.2723380" lon="14.7483090">
<ele>79.591003</ele>
<time>2024-04-12T13:04:45.185Z</time>
</trkpt>
<trkpt lat="44.2723170" lon="14.7482630">
<ele>79.784996</ele>
<time>2024-04-12T13:04:45.185Z</time>
</trkpt>
<trkpt lat="44.2722960" lon="14.7482170">
<ele>80.244003</ele>
<time>2024-04-12T13:04:45.185Z</time>
</trkpt>
<trkpt lat="44.2722760" lon="14.7481710">
<ele>80.544998</ele>
<time>2024-04-12T13:04:45.185Z</time>
</trkpt>
<trkpt lat="44.2722540" lon="14.7481300">
<ele>80.892998</ele>
<time>2024-04-12T13:04:45.185Z</time>
</trkpt>
<trkpt lat="44.2722320" lon="14.7480890">
<ele>81.140999</ele>
<time>2024-04-12T13:04:45.185Z</time>
</trkpt>
<trkpt lat="44.2722100" lon="14.7480480">
<ele>81.409996</ele>
<time>2024-04-12T13:04:45.185Z</time>
</trkpt>
<trkpt lat="44.2721860" lon="14.7480080">
<ele>81.699005</ele>
<time>2024-04-12T13:04:45.185Z</time>
</trkpt>
<trkpt lat="44.2721630" lon="14.7479690">
<ele>81.986992</ele>
<time>2024-04-12T13:04:45.185Z</time>
</trkpt>
<trkpt lat="44.2721360" lon="14.7479200">
<ele>82.305000</ele>
<time>2024-04-12T13:04:45.185Z</time>
</trkpt>
<trkpt lat="44.2721100" lon="14.7478720">
<ele>82.617996</ele>
<time>2024-04-12T13:04:45.185Z</time>
</trkpt>
<trkpt lat="44.2720840" lon="14.7478240">
<ele>82.916000</ele>
<time>2024-04-12T13:04:45.185Z</time>
</trkpt>
<trkpt lat="44.2720570" lon="14.7477750">
<ele>83.349998</ele>
<time>2024-04-12T13:04:45.185Z</time>
</trkpt>
<trkpt lat="44.2720370" lon="14.7477380">
<ele>83.597000</ele>
<time>2024-04-12T13:04:45.185Z</time>
</trkpt>
<trkpt lat="44.2720160" lon="14.7477000">
<ele>83.895996</ele>
<time>2024-04-12T13:04:45.185Z</time>
</trkpt>
<trkpt lat="44.2719960" lon="14.7476620">
<ele>84.151001</ele>
<time>2024-04-12T13:04:45.185Z</time>
</trkpt>
<trkpt lat="44.2719720" lon="14.7476200">
<ele>84.463997</ele>
<time>2024-04-12T13:04:45.185Z</time>
</trkpt>
<trkpt lat="44.2719480" lon="14.7475780">
<ele>84.769997</ele>
<time>2024-04-12T13:04:45.185Z</time>
</trkpt>
<trkpt lat="44.2719240" lon="14.7475260">
<ele>85.192001</ele>
<time>2024-04-12T13:04:45.185Z</time>
</trkpt>
<trkpt lat="44.2719000" lon="14.7474730">
<ele>85.521996</ele>
<time>2024-04-12T13:04:45.185Z</time>
</trkpt>
<trkpt lat="44.2718750" lon="14.7474200">
<ele>85.967003</ele>
<time>2024-04-12T13:04:45.185Z</time>
</trkpt>
<trkpt lat="44.2718560" lon="14.7473890">
<ele>86.143005</ele>
<time>2024-04-12T13:04:45.185Z</time>
</trkpt>
<trkpt lat="44.2718360" lon="14.7473570">
<ele>86.514999</ele>
<time>2024-04-12T13:04:45.185Z</time>
</trkpt>
<trkpt lat="44.2718160" lon="14.7473260">
<ele>86.950005</ele>
<time>2024-04-12T13:04:45.185Z</time>
</trkpt>
<trkpt lat="44.2717920" lon="14.7472840">
<ele>87.528000</ele>
<time>2024-04-12T13:04:45.185Z</time>
</trkpt>
<trkpt lat="44.2717690" lon="14.7472420">
<ele>88.129005</ele>
<time>2024-04-12T13:04:45.185Z</time>
</trkpt>
<trkpt lat="44.2717530" lon="14.7472140">
<ele>88.494003</ele>
<time>2024-04-12T13:04:45.185Z</time>
</trkpt>
<trkpt lat="44.2717370" lon="14.7471870">
<ele>88.944000</ele>
<time>2024-04-12T13:04:45.185Z</time>
</trkpt>
<trkpt lat="44.2717090" lon="14.7471410">
<ele>89.690002</ele>
<time>2024-04-12T13:04:45.185Z</time>
</trkpt>
<trkpt lat="44.2716820" lon="14.7470960">
<ele>90.553001</ele>
<time>2024-04-12T13:04:45.185Z</time>
</trkpt>
<trkpt lat="44.2716550" lon="14.7470580">
<ele>91.295998</ele>
<time>2024-04-12T13:04:45.185Z</time>
</trkpt>
<trkpt lat="44.2716290" lon="14.7470190">
<ele>92.014999</ele>
<time>2024-04-12T13:04:45.185Z</time>
</trkpt>
<trkpt lat="44.2716030" lon="14.7469810">
<ele>92.786003</ele>
<time>2024-04-12T13:04:45.185Z</time>
</trkpt>
<trkpt lat="44.2715770" lon="14.7469410">
<ele>93.522003</ele>
<time>2024-04-12T13:04:45.185Z</time>
</trkpt>
<trkpt lat="44.2715510" lon="14.7469020">
<ele>94.277000</ele>
<time>2024-04-12T13:04:45.185Z</time>
</trkpt>
<trkpt lat="44.2715280" lon="14.7468640">
<ele>94.859001</ele>
<time>2024-04-12T13:04:45.185Z</time>
</trkpt>
<trkpt lat="44.2715050" lon="14.7468270">
<ele>95.391998</ele>
<time>2024-04-12T13:04:45.185Z</time>
</trkpt>
<trkpt lat="44.2714850" lon="14.7467920">
<ele>95.873001</ele>
<time>2024-04-12T13:04:45.185Z</time>
</trkpt>
<trkpt lat="44.2714660" lon="14.7467560">
<ele>96.404999</ele>
<time>2024-04-12T13:04:45.185Z</time>
</trkpt>
<trkpt lat="44.2714460" lon="14.7467210">
<ele>96.912994</ele>
<time>2024-04-12T13:04:45.185Z</time>
</trkpt>
<trkpt lat="44.2714220" lon="14.7466810">
<ele>97.650002</ele>
<time>2024-04-12T13:04:45.185Z</time>
</trkpt>
<trkpt lat="44.2713980" lon="14.7466400">
<ele>98.244003</ele>
<time>2024-04-12T13:04:45.185Z</time>
</trkpt>
<trkpt lat="44.2713710" lon="14.7465920">
<ele>99.101006</ele>
<time>2024-04-12T13:04:45.185Z</time>
</trkpt>
<trkpt lat="44.2713430" lon="14.7465430">
<ele>99.855995</ele>
<time>2024-04-12T13:04:45.185Z</time>
</trkpt>
<trkpt lat="44.2713270" lon="14.7465110">
<ele>100.267998</ele>
<time>2024-04-12T13:04:45.185Z</time>
</trkpt>
<trkpt lat="44.2713110" lon="14.7464790">
<ele>100.550003</ele>
<time>2024-04-12T13:04:45.185Z</time>
</trkpt>
<trkpt lat="44.2712890" lon="14.7464310">
<ele>100.972008</ele>
<time>2024-04-12T13:04:45.185Z</time>
</trkpt>
<trkpt lat="44.2712660" lon="14.7463840">
<ele>101.385994</ele>
<time>2024-04-12T13:04:45.185Z</time>
</trkpt>
<trkpt lat="44.2712300" lon="14.7463600">
<ele>101.957008</ele>
<time>2024-04-12T13:04:45.185Z</time>
</trkpt>
<trkpt lat="44.2712070" lon="14.7463500">
<ele>102.301003</ele>
<time>2024-04-12T13:04:45.185Z</time>
</trkpt>
<trkpt lat="44.2711860" lon="14.7463540">
<ele>102.564995</ele>
<time>2024-04-12T13:04:45.185Z</time>
</trkpt>
<trkpt lat="44.2711600" lon="14.7463670">
<ele>102.865997</ele>
<time>2024-04-12T13:04:45.185Z</time>
</trkpt>
<trkpt lat="44.2711350" lon="14.7463880">
<ele>103.010994</ele>
<time>2024-04-12T13:04:45.185Z</time>
</trkpt>
<trkpt lat="44.2711180" lon="14.7464280">
<ele>103.241997</ele>
<time>2024-04-12T13:04:45.185Z</time>
</trkpt>
<trkpt lat="44.2711000" lon="14.7464700">
<ele>103.566002</ele>
<time>2024-04-12T13:04:45.185Z</time>
</trkpt>
<trkpt lat="44.2710820" lon="14.7465130">
<ele>104.027000</ele>
<time>2024-04-12T13:04:45.185Z</time>
</trkpt>
<trkpt lat="44.2710690" lon="14.7465570">
<ele>104.354996</ele>
<time>2024-04-12T13:04:45.185Z</time>
</trkpt>
<trkpt lat="44.2710560" lon="14.7466020">
<ele>104.547997</ele>
<time>2024-04-12T13:04:45.185Z</time>
</trkpt>
<trkpt lat="44.2710420" lon="14.7466460">
<ele>104.743996</ele>
<time>2024-04-12T13:04:45.185Z</time>
</trkpt>
<trkpt lat="44.2710290" lon="14.7466900">
<ele>105.040001</ele>
<time>2024-04-12T13:04:45.185Z</time>
</trkpt>
<trkpt lat="44.2710140" lon="14.7467390">
<ele>105.208000</ele>
<time>2024-04-12T13:04:45.185Z</time>
</trkpt>
<trkpt lat="44.2710000" lon="14.7467870">
<ele>105.307999</ele>
<time>2024-04-12T13:04:45.185Z</time>
</trkpt>
<trkpt lat="44.2709870" lon="14.7468410">
<ele>105.624001</ele>
<time>2024-04-12T13:04:45.185Z</time>
</trkpt>
<trkpt lat="44.2709740" lon="14.7468940">
<ele>105.846001</ele>
<time>2024-04-12T13:04:45.185Z</time>
</trkpt>
<trkpt lat="44.2709610" lon="14.7469470">
<ele>105.947998</ele>
<time>2024-04-12T13:04:45.185Z</time>
</trkpt>
<trkpt lat="44.2709470" lon="14.7470010">
<ele>106.192001</ele>
<time>2024-04-12T13:04:45.185Z</time>
</trkpt>
<trkpt lat="44.2709360" lon="14.7470530">
<ele>106.430000</ele>
<time>2024-04-12T13:04:45.185Z</time>
</trkpt>
<trkpt lat="44.2709240" lon="14.7471060">
<ele>106.533005</ele>
<time>2024-04-12T13:04:45.185Z</time>
</trkpt>
<trkpt lat="44.2709120" lon="14.7471600">
<ele>106.709999</ele>
<time>2024-04-12T13:04:45.185Z</time>
</trkpt>
<trkpt lat="44.2708990" lon="14.7472150">
<ele>107.055000</ele>
<time>2024-04-12T13:04:45.185Z</time>
</trkpt>
<trkpt lat="44.2708910" lon="14.7472580">
<ele>107.134003</ele>
<time>2024-04-12T13:04:45.185Z</time>
</trkpt>
<trkpt lat="44.2708830" lon="14.7473010">
<ele>107.198997</ele>
<time>2024-04-12T13:04:45.185Z</time>
</trkpt>
<trkpt lat="44.2708750" lon="14.7473440">
<ele>107.355995</ele>
<time>2024-04-12T13:04:45.185Z</time>
</trkpt>
<trkpt lat="44.2708610" lon="14.7474010">
<ele>107.771004</ele>
<time>2024-04-12T13:04:45.185Z</time>
</trkpt>
<trkpt lat="44.2708470" lon="14.7474580">
<ele>107.882004</ele>
<time>2024-04-12T13:04:45.185Z</time>
</trkpt>
<trkpt lat="44.2708320" lon="14.7475150">
<ele>108.087997</ele>
<time>2024-04-12T13:04:45.185Z</time>
</trkpt>
<trkpt lat="44.2708190" lon="14.7475710">
<ele>108.476006</ele>
<time>2024-04-12T13:04:45.185Z</time>
</trkpt>
<trkpt lat="44.2708050" lon="14.7476270">
<ele>108.636993</ele>
<time>2024-04-12T13:04:45.185Z</time>
</trkpt>
<trkpt lat="44.2707910" lon="14.7476830">
<ele>108.784004</ele>
<time>2024-04-12T13:04:45.185Z</time>
</trkpt>
<trkpt lat="44.2707770" lon="14.7477390">
<ele>109.163002</ele>
<time>2024-04-12T13:04:45.185Z</time>
</trkpt>
<trkpt lat="44.2707650" lon="14.7477940">
<ele>109.398003</ele>
<time>2024-04-12T13:04:45.185Z</time>
</trkpt>
<trkpt lat="44.2707520" lon="14.7478480">
<ele>109.463997</ele>
<time>2024-04-12T13:04:45.185Z</time>
</trkpt>
<trkpt lat="44.2707390" lon="14.7479030">
<ele>109.791000</ele>
<time>2024-04-12T13:04:45.185Z</time>
</trkpt>
<trkpt lat="44.2707270" lon="14.7479550">
<ele>110.057007</ele>
<time>2024-04-12T13:04:45.185Z</time>
</trkpt>
<trkpt lat="44.2707140" lon="14.7480060">
<ele>110.182999</ele>
<time>2024-04-12T13:04:45.185Z</time>
</trkpt>
<trkpt lat="44.2707010" lon="14.7480580">
<ele>110.399994</ele>
<time>2024-04-12T13:04:45.185Z</time>
</trkpt>
<trkpt lat="44.2706880" lon="14.7481100">
<ele>110.740997</ele>
<time>2024-04-12T13:04:45.185Z</time>
</trkpt>
<trkpt lat="44.2706770" lon="14.7481560">
<ele>110.857002</ele>
<time>2024-04-12T13:04:45.185Z</time>
</trkpt>
<trkpt lat="44.2706670" lon="14.7482030">
<ele>110.987000</ele>
<time>2024-04-12T13:04:45.185Z</time>
</trkpt>
<trkpt lat="44.2706560" lon="14.7482490">
<ele>111.258003</ele>
<time>2024-04-12T13:04:45.185Z</time>
</trkpt>
<trkpt lat="44.2706470" lon="14.7482960">
<ele>111.527000</ele>
<time>2024-04-12T13:04:45.185Z</time>
</trkpt>
<trkpt lat="44.2706380" lon="14.7483440">
<ele>111.561005</ele>
<time>2024-04-12T13:04:45.185Z</time>
</trkpt>
<trkpt lat="44.2706290" lon="14.7483910">
<ele>111.686996</ele>
<time>2024-04-12T13:04:45.185Z</time>
</trkpt>
<trkpt lat="44.2706190" lon="14.7484390">
<ele>111.959000</ele>
<time>2024-04-12T13:04:45.185Z</time>
</trkpt>
<trkpt lat="44.2706080" lon="14.7484810">
<ele>112.276001</ele>
<time>2024-04-12T13:04:45.185Z</time>
</trkpt>
<trkpt lat="44.2705960" lon="14.7485240">
<ele>112.401001</ele>
<time>2024-04-12T13:04:45.185Z</time>
</trkpt>
<trkpt lat="44.2705840" lon="14.7485660">
<ele>112.566002</ele>
<time>2024-04-12T13:04:45.185Z</time>
</trkpt>
<trkpt lat="44.2705740" lon="14.7486150">
<ele>112.825996</ele>
<time>2024-04-12T13:04:45.185Z</time>
</trkpt>
<trkpt lat="44.2705640" lon="14.7486640">
<ele>113.038002</ele>
<time>2024-04-12T13:04:45.185Z</time>
</trkpt>
<trkpt lat="44.2705540" lon="14.7487130">
<ele>113.168007</ele>
<time>2024-04-12T13:04:45.185Z</time>
</trkpt>
<trkpt lat="44.2705430" lon="14.7487460">
<ele>113.329002</ele>
<time>2024-04-12T13:04:45.185Z</time>
</trkpt>
<trkpt lat="44.2705320" lon="14.7487790">
<ele>113.559006</ele>
<time>2024-04-12T13:04:45.185Z</time>
</trkpt>
<trkpt lat="44.2705090" lon="14.7488320">
<ele>113.761002</ele>
<time>2024-04-12T13:04:45.185Z</time>
</trkpt>
<trkpt lat="44.2704920" lon="14.7488670">
<ele>113.851006</ele>
<time>2024-04-12T13:04:45.185Z</time>
</trkpt>
<trkpt lat="44.2704740" lon="14.7489030">
<ele>113.990997</ele>
<time>2024-04-12T13:04:45.185Z</time>
</trkpt>
<trkpt lat="44.2704470" lon="14.7489440">
<ele>114.183998</ele>
<time>2024-04-12T13:04:45.185Z</time>
</trkpt>
<trkpt lat="44.2704200" lon="14.7489850">
<ele>114.546005</ele>
<time>2024-04-12T13:04:45.185Z</time>
</trkpt>
<trkpt lat="44.2703940" lon="14.7490160">
<ele>114.829994</ele>
<time>2024-04-12T13:04:45.185Z</time>
</trkpt>
<trkpt lat="44.2703670" lon="14.7490470">
<ele>115.166000</ele>
<time>2024-04-12T13:04:45.185Z</time>
</trkpt>
<trkpt lat="44.2703390" lon="14.7490790">
<ele>115.485001</ele>
<time>2024-04-12T13:04:45.185Z</time>
</trkpt>
<trkpt lat="44.2703110" lon="14.7491110">
<ele>115.867004</ele>
<time>2024-04-12T13:04:45.185Z</time>
</trkpt>
<trkpt lat="44.2702770" lon="14.7491400">
<ele>116.145996</ele>
<time>2024-04-12T13:04:45.185Z</time>
</trkpt>
<trkpt lat="44.2702420" lon="14.7491680">
<ele>116.389999</ele>
<time>2024-04-12T13:04:45.185Z</time>
</trkpt>
<trkpt lat="44.2702070" lon="14.7491970">
<ele>116.530998</ele>
<time>2024-04-12T13:04:45.185Z</time>
</trkpt>
<trkpt lat="44.2701760" lon="14.7492280">
<ele>116.723000</ele>
<time>2024-04-12T13:04:45.185Z</time>
</trkpt>
<trkpt lat="44.2701450" lon="14.7492580">
<ele>116.815002</ele>
<time>2024-04-12T13:04:45.185Z</time>
</trkpt>
<trkpt lat="44.2701160" lon="14.7492870">
<ele>116.988998</ele>
<time>2024-04-12T13:04:45.185Z</time>
</trkpt>
<trkpt lat="44.2700860" lon="14.7493160">
<ele>117.109001</ele>
<time>2024-04-12T13:04:45.185Z</time>
</trkpt>
<trkpt lat="44.2700570" lon="14.7493450">
<ele>117.271004</ele>
<time>2024-04-12T13:04:45.185Z</time>
</trkpt>
<trkpt lat="44.2700210" lon="14.7493780">
<ele>117.440002</ele>
<time>2024-04-12T13:04:45.185Z</time>
</trkpt>
<trkpt lat="44.2699850" lon="14.7494100">
<ele>117.612999</ele>
<time>2024-04-12T13:04:45.185Z</time>
</trkpt>
<trkpt lat="44.2699490" lon="14.7494420">
<ele>117.796997</ele>
<time>2024-04-12T13:04:45.185Z</time>
</trkpt>
<trkpt lat="44.2699170" lon="14.7494680">
<ele>117.959999</ele>
<time>2024-04-12T13:04:45.185Z</time>
</trkpt>
<trkpt lat="44.2698860" lon="14.7494940">
<ele>118.129005</ele>
<time>2024-04-12T13:04:45.185Z</time>
</trkpt>
<trkpt lat="44.2698550" lon="14.7495200">
<ele>118.244003</ele>
<time>2024-04-12T13:04:45.185Z</time>
</trkpt>
<trkpt lat="44.2698290" lon="14.7495420">
<ele>118.407997</ele>
<time>2024-04-12T13:04:45.185Z</time>
</trkpt>
<trkpt lat="44.2698040" lon="14.7495650">
<ele>118.522995</ele>
<time>2024-04-12T13:04:45.185Z</time>
</trkpt>
<trkpt lat="44.2697790" lon="14.7495870">
<ele>118.633003</ele>
<time>2024-04-12T13:04:45.185Z</time>
</trkpt>
<trkpt lat="44.2697480" lon="14.7496160">
<ele>118.932999</ele>
<time>2024-04-12T13:04:45.185Z</time>
</trkpt>
<trkpt lat="44.2697180" lon="14.7496440">
<ele>119.164001</ele>
<time>2024-04-12T13:04:45.185Z</time>
</trkpt>
<trkpt lat="44.2696870" lon="14.7496720">
<ele>119.485008</ele>
<time>2024-04-12T13:04:45.185Z</time>
</trkpt>
<trkpt lat="44.2696580" lon="14.7496980">
<ele>119.693993</ele>
<time>2024-04-12T13:04:45.185Z</time>
</trkpt>
<trkpt lat="44.2696280" lon="14.7497240">
<ele>119.959000</ele>
<time>2024-04-12T13:04:45.185Z</time>
</trkpt>
<trkpt lat="44.2695990" lon="14.7497500">
<ele>120.260002</ele>
<time>2024-04-12T13:04:45.185Z</time>
</trkpt>
<trkpt lat="44.2695700" lon="14.7497760">
<ele>120.473000</ele>
<time>2024-04-12T13:04:45.185Z</time>
</trkpt>
<trkpt lat="44.2695420" lon="14.7498020">
<ele>120.759995</ele>
<time>2024-04-12T13:04:45.185Z</time>
</trkpt>
<trkpt lat="44.2695130" lon="14.7498280">
<ele>120.970001</ele>
<time>2024-04-12T13:04:45.185Z</time>
</trkpt>
<trkpt lat="44.2694850" lon="14.7498540">
<ele>121.191002</ele>
<time>2024-04-12T13:04:45.185Z</time>
</trkpt>
<trkpt lat="44.2694560" lon="14.7498840">
<ele>121.495995</ele>
<time>2024-04-12T13:04:45.185Z</time>
</trkpt>
<trkpt lat="44.2694260" lon="14.7499150">
<ele>121.716003</ele>
<time>2024-04-12T13:04:45.185Z</time>
</trkpt>
<trkpt lat="44.2693960" lon="14.7499450">
<ele>122.004997</ele>
<time>2024-04-12T13:04:45.185Z</time>
</trkpt>
<trkpt lat="44.2693670" lon="14.7499760">
<ele>122.251999</ele>
<time>2024-04-12T13:04:45.185Z</time>
</trkpt>
<trkpt lat="44.2693360" lon="14.7500020">
<ele>122.563995</ele>
<time>2024-04-12T13:04:45.185Z</time>
</trkpt>
<trkpt lat="44.2693050" lon="14.7500290">
<ele>122.826996</ele>
<time>2024-04-12T13:04:45.185Z</time>
</trkpt>
<trkpt lat="44.2692750" lon="14.7500560">
<ele>123.059998</ele>
<time>2024-04-12T13:04:45.185Z</time>
</trkpt>
<trkpt lat="44.2692440" lon="14.7500830">
<ele>123.392006</ele>
<time>2024-04-12T13:04:45.185Z</time>
</trkpt>
<trkpt lat="44.2692130" lon="14.7501100">
<ele>123.621002</ele>
<time>2024-04-12T13:04:45.185Z</time>
</trkpt>
<trkpt lat="44.2691800" lon="14.7501420">
<ele>123.969002</ele>
<time>2024-04-12T13:04:45.185Z</time>
</trkpt>
<trkpt lat="44.2691460" lon="14.7501730">
<ele>124.225998</ele>
<time>2024-04-12T13:04:45.185Z</time>
</trkpt>
<trkpt lat="44.2691130" lon="14.7502050">
<ele>124.592003</ele>
<time>2024-04-12T13:04:45.185Z</time>
</trkpt>
<trkpt lat="44.2690770" lon="14.7502380">
<ele>124.825005</ele>
<time>2024-04-12T13:04:45.185Z</time>
</trkpt>
<trkpt lat="44.2690410" lon="14.7502700">
<ele>125.232994</ele>
<time>2024-04-12T13:04:45.185Z</time>
</trkpt>
<trkpt lat="44.2690080" lon="14.7502990">
<ele>125.559998</ele>
<time>2024-04-12T13:04:45.185Z</time>
</trkpt>
<trkpt lat="44.2689760" lon="14.7503290">
<ele>125.976006</ele>
<time>2024-04-12T13:04:45.185Z</time>
</trkpt>
<trkpt lat="44.2689430" lon="14.7503580">
<ele>126.367996</ele>
<time>2024-04-12T13:04:45.185Z</time>
</trkpt>
<trkpt lat="44.2689110" lon="14.7503870">
<ele>126.776993</ele>
<time>2024-04-12T13:04:45.185Z</time>
</trkpt>
<trkpt lat="44.2688810" lon="14.7504160">
<ele>127.170998</ele>
<time>2024-04-12T13:04:45.185Z</time>
</trkpt>
<trkpt lat="44.2688510" lon="14.7504450">
<ele>127.532005</ele>
<time>2024-04-12T13:04:45.185Z</time>
</trkpt>
<trkpt lat="44.2688210" lon="14.7504740">
<ele>127.919998</ele>
<time>2024-04-12T13:04:45.185Z</time>
</trkpt>
<trkpt lat="44.2687920" lon="14.7505020">
<ele>128.278992</ele>
<time>2024-04-12T13:04:45.185Z</time>
</trkpt>
<trkpt lat="44.2687620" lon="14.7505310">
<ele>128.718002</ele>
<time>2024-04-12T13:04:45.185Z</time>
</trkpt>
<trkpt lat="44.2687370" lon="14.7505590">
<ele>129.107010</ele>
<time>2024-04-12T13:04:45.185Z</time>
</trkpt>
<trkpt lat="44.2687120" lon="14.7505860">
<ele>129.522995</ele>
<time>2024-04-12T13:04:45.185Z</time>
</trkpt>
<trkpt lat="44.2686870" lon="14.7506130">
<ele>129.899002</ele>
<time>2024-04-12T13:04:45.185Z</time>
</trkpt>
<trkpt lat="44.2686550" lon="14.7506530">
<ele>130.434998</ele>
<time>2024-04-12T13:04:45.185Z</time>
</trkpt>
<trkpt lat="44.2686230" lon="14.7506930">
<ele>130.882004</ele>
<time>2024-04-12T13:04:45.185Z</time>
</trkpt>
<trkpt lat="44.2685900" lon="14.7507340">
<ele>131.373993</ele>
<time>2024-04-12T13:04:45.185Z</time>
</trkpt>
<trkpt lat="44.2685580" lon="14.7507750">
<ele>131.841003</ele>
<time>2024-04-12T13:04:45.185Z</time>
</trkpt>
<trkpt lat="44.2685250" lon="14.7508160">
<ele>132.317993</ele>
<time>2024-04-12T13:04:45.185Z</time>
</trkpt>
<trkpt lat="44.2684940" lon="14.7508540">
<ele>132.811005</ele>
<time>2024-04-12T13:04:45.185Z</time>
</trkpt>
<trkpt lat="44.2684630" lon="14.7508920">
<ele>133.225006</ele>
<time>2024-04-12T13:04:45.185Z</time>
</trkpt>
<trkpt lat="44.2684310" lon="14.7509300">
<ele>133.716003</ele>
<time>2024-04-12T13:04:45.185Z</time>
</trkpt>
<trkpt lat="44.2684000" lon="14.7509680">
<ele>134.171997</ele>
<time>2024-04-12T13:04:45.185Z</time>
</trkpt>
<trkpt lat="44.2683680" lon="14.7510060">
<ele>134.559998</ele>
<time>2024-04-12T13:04:45.185Z</time>
</trkpt>
<trkpt lat="44.2683380" lon="14.7510410">
<ele>135.071991</ele>
<time>2024-04-12T13:04:45.185Z</time>
</trkpt>
<trkpt lat="44.2683070" lon="14.7510760">
<ele>135.623001</ele>
<time>2024-04-12T13:04:45.185Z</time>
</trkpt>
<trkpt lat="44.2682770" lon="14.7511110">
<ele>136.279999</ele>
<time>2024-04-12T13:04:45.185Z</time>
</trkpt>
<trkpt lat="44.2682460" lon="14.7511460">
<ele>136.919006</ele>
<time>2024-04-12T13:04:45.185Z</time>
</trkpt>
<trkpt lat="44.2682130" lon="14.7511830">
<ele>137.617996</ele>
<time>2024-04-12T13:04:45.185Z</time>
</trkpt>
<trkpt lat="44.2681790" lon="14.7512190">
<ele>138.263992</ele>
<time>2024-04-12T13:04:45.185Z</time>
</trkpt>
<trkpt lat="44.2681460" lon="14.7512560">
<ele>138.682999</ele>
<time>2024-04-12T13:04:45.185Z</time>
</trkpt>
<trkpt lat="44.2681130" lon="14.7512920">
<ele>139.177002</ele>
<time>2024-04-12T13:04:45.185Z</time>
</trkpt>
<trkpt lat="44.2680790" lon="14.7513280">
<ele>139.576996</ele>
<time>2024-04-12T13:04:45.185Z</time>
</trkpt>
<trkpt lat="44.2680460" lon="14.7513650">
<ele>140.054993</ele>
<time>2024-04-12T13:04:45.185Z</time>
</trkpt>
<trkpt lat="44.2680160" lon="14.7514050">
<ele>140.521011</ele>
<time>2024-04-12T13:04:45.185Z</time>
</trkpt>
<trkpt lat="44.2679850" lon="14.7514440">
<ele>140.916992</ele>
<time>2024-04-12T13:04:45.185Z</time>
</trkpt>
<trkpt lat="44.2679550" lon="14.7514840">
<ele>141.372009</ele>
<time>2024-04-12T13:04:45.185Z</time>
</trkpt>
<trkpt lat="44.2679260" lon="14.7515210">
<ele>141.656006</ele>
<time>2024-04-12T13:04:45.185Z</time>
</trkpt>
<trkpt lat="44.2678970" lon="14.7515570">
<ele>142.106003</ele>
<time>2024-04-12T13:04:45.185Z</time>
</trkpt>
<trkpt lat="44.2678680" lon="14.7515980">
<ele>142.298004</ele>
<time>2024-04-12T13:04:45.185Z</time>
</trkpt>
<trkpt lat="44.2678390" lon="14.7516390">
<ele>142.552002</ele>
<time>2024-04-12T13:04:45.185Z</time>
</trkpt>
<trkpt lat="44.2678050" lon="14.7516600">
<ele>142.979004</ele>
<time>2024-04-12T13:04:45.185Z</time>
</trkpt>
<trkpt lat="44.2677880" lon="14.7516620">
<ele>143.254990</ele>
<time>2024-04-12T13:04:45.185Z</time>
</trkpt>
<trkpt lat="44.2677650" lon="14.7516540">
<ele>143.774994</ele>
<time>2024-04-12T13:04:45.185Z</time>
</trkpt>
<trkpt lat="44.2677430" lon="14.7516400">
<ele>144.288010</ele>
<time>2024-04-12T13:04:45.185Z</time>
</trkpt>
<trkpt lat="44.2677220" lon="14.7516270">
<ele>145.024002</ele>
<time>2024-04-12T13:04:45.185Z</time>
</trkpt>
<trkpt lat="44.2677010" lon="14.7515950">
<ele>145.843994</ele>
<time>2024-04-12T13:04:45.185Z</time>
</trkpt>
<trkpt lat="44.2676800" lon="14.7515640">
<ele>146.526001</ele>
<time>2024-04-12T13:04:45.185Z</time>
</trkpt>
<trkpt lat="44.2676540" lon="14.7515460">
<ele>147.276001</ele>
<time>2024-04-12T13:04:45.185Z</time>
</trkpt>
<trkpt lat="44.2676280" lon="14.7515280">
<ele>147.970993</ele>
<time>2024-04-12T13:04:45.185Z</time>
</trkpt>
<trkpt lat="44.2676070" lon="14.7515170">
<ele>148.522995</ele>
<time>2024-04-12T13:04:45.185Z</time>
</trkpt>
<trkpt lat="44.2675850" lon="14.7515070">
<ele>149.007996</ele>
<time>2024-04-12T13:04:45.185Z</time>
</trkpt>
<trkpt lat="44.2675610" lon="14.7514630">
<ele>149.760010</ele>
<time>2024-04-12T13:04:45.185Z</time>
</trkpt>
<trkpt lat="44.2675390" lon="14.7514320">
<ele>150.352997</ele>
<time>2024-04-12T13:04:45.185Z</time>
</trkpt>
<trkpt lat="44.2675160" lon="14.7514000">
<ele>150.990997</ele>
<time>2024-04-12T13:04:45.185Z</time>
</trkpt>
<trkpt lat="44.2674910" lon="14.7513560">
<ele>151.709991</ele>
<time>2024-04-12T13:04:45.185Z</time>
</trkpt>
<trkpt lat="44.2674650" lon="14.7513110">
<ele>152.404999</ele>
<time>2024-04-12T13:04:45.185Z</time>
</trkpt>
<trkpt lat="44.2674430" lon="14.7512790">
<ele>152.819000</ele>
<time>2024-04-12T13:04:45.185Z</time>
</trkpt>
<trkpt lat="44.2674210" lon="14.7512480">
<ele>153.214996</ele>
<time>2024-04-12T13:04:45.185Z</time>
</trkpt>
<trkpt lat="44.2673880" lon="14.7512190">
<ele>153.807007</ele>
<time>2024-04-12T13:04:45.185Z</time>
</trkpt>
<trkpt lat="44.2673550" lon="14.7511900">
<ele>154.389008</ele>
<time>2024-04-12T13:04:45.185Z</time>
</trkpt>
<trkpt lat="44.2673160" lon="14.7511720">
<ele>154.974991</ele>
<time>2024-04-12T13:04:45.185Z</time>
</trkpt>
<trkpt lat="44.2672770" lon="14.7511540">
<ele>155.460007</ele>
<time>2024-04-12T13:04:45.185Z</time>
</trkpt>
<trkpt lat="44.2672500" lon="14.7511200">
<ele>155.639008</ele>
<time>2024-04-12T13:04:45.185Z</time>
</trkpt>
<trkpt lat="44.2672540" lon="14.7510720">
<ele>155.390991</ele>
<time>2024-04-12T13:04:45.185Z</time>
</trkpt>
<trkpt lat="44.2672590" lon="14.7510240">
<ele>155.080994</ele>
<time>2024-04-12T13:04:45.185Z</time>
</trkpt>
<trkpt lat="44.2672630" lon="14.7509760">
<ele>154.770996</ele>
<time>2024-04-12T13:04:45.185Z</time>
</trkpt>
<trkpt lat="44.2672380" lon="14.7509420">
<ele>154.955002</ele>
<time>2024-04-12T13:04:45.185Z</time>
</trkpt>
<trkpt lat="44.2672130" lon="14.7509080">
<ele>155.181992</ele>
<time>2024-04-12T13:04:45.185Z</time>
</trkpt>
<trkpt lat="44.2671870" lon="14.7508740">
<ele>155.471008</ele>
<time>2024-04-12T13:04:45.185Z</time>
</trkpt>
<trkpt lat="44.2671500" lon="14.7508400">
<ele>156.074997</ele>
<time>2024-04-12T13:04:45.185Z</time>
</trkpt>
<trkpt lat="44.2671120" lon="14.7508060">
<ele>156.656006</ele>
<time>2024-04-12T13:04:45.185Z</time>
</trkpt>
<trkpt lat="44.2670750" lon="14.7507720">
<ele>157.110001</ele>
<time>2024-04-12T13:04:45.185Z</time>
</trkpt>
<trkpt lat="44.2670350" lon="14.7507540">
<ele>157.485992</ele>
<time>2024-04-12T13:04:45.185Z</time>
</trkpt>
<trkpt lat="44.2669950" lon="14.7507360">
<ele>157.783005</ele>
<time>2024-04-12T13:04:45.185Z</time>
</trkpt>
<trkpt lat="44.2669550" lon="14.7507180">
<ele>158.014999</ele>
<time>2024-04-12T13:04:45.185Z</time>
</trkpt>
<trkpt lat="44.2669150" lon="14.7507000">
<ele>158.230988</ele>
<time>2024-04-12T13:04:45.185Z</time>
</trkpt>
<trkpt lat="44.2668930" lon="14.7507340">
<ele>158.530991</ele>
<time>2024-04-12T13:04:45.185Z</time>
</trkpt>
<trkpt lat="44.2668710" lon="14.7507680">
<ele>158.819000</ele>
<time>2024-04-12T13:04:45.185Z</time>
</trkpt>
<trkpt lat="44.2668360" lon="14.7507530">
<ele>158.975006</ele>
<time>2024-04-12T13:04:45.185Z</time>
</trkpt>
<trkpt lat="44.2668020" lon="14.7507380">
<ele>159.118988</ele>
<time>2024-04-12T13:04:45.185Z</time>
</trkpt>
<trkpt lat="44.2668390" lon="14.7507540">
<ele>158.960999</ele>
<time>2024-04-12T13:04:45.185Z</time>
</trkpt>
<trkpt lat="44.2668760" lon="14.7507700">
<ele>158.789001</ele>
<time>2024-04-12T13:04:45.185Z</time>
</trkpt>
<trkpt lat="44.2668970" lon="14.7507220">
<ele>158.457001</ele>
<time>2024-04-12T13:04:45.185Z</time>
</trkpt>
<trkpt lat="44.2669190" lon="14.7506920">
<ele>158.170990</ele>
<time>2024-04-12T13:04:45.185Z</time>
</trkpt>
<trkpt lat="44.2669570" lon="14.7507040">
<ele>157.940994</ele>
<time>2024-04-12T13:04:45.185Z</time>
</trkpt>
<trkpt lat="44.2669960" lon="14.7507160">
<ele>157.688995</ele>
<time>2024-04-12T13:04:45.185Z</time>
</trkpt>
<trkpt lat="44.2670350" lon="14.7507400">
<ele>157.417999</ele>
<time>2024-04-12T13:04:45.185Z</time>
</trkpt>
<trkpt lat="44.2670740" lon="14.7507640">
<ele>157.079010</ele>
<time>2024-04-12T13:04:45.185Z</time>
</trkpt>
<trkpt lat="44.2671050" lon="14.7507920">
<ele>156.727997</ele>
<time>2024-04-12T13:04:45.185Z</time>
</trkpt>
<trkpt lat="44.2671360" lon="14.7508190">
<ele>156.259003</ele>
<time>2024-04-12T13:04:45.185Z</time>
</trkpt>
<trkpt lat="44.2671670" lon="14.7508470">
<ele>155.757004</ele>
<time>2024-04-12T13:04:45.185Z</time>
</trkpt>
<trkpt lat="44.2671980" lon="14.7508740">
<ele>155.283997</ele>
<time>2024-04-12T13:04:45.185Z</time>
</trkpt>
<trkpt lat="44.2672230" lon="14.7509070">
<ele>155.011993</ele>
<time>2024-04-12T13:04:45.185Z</time>
</trkpt>
<trkpt lat="44.2672470" lon="14.7509400">
<ele>154.813004</ele>
<time>2024-04-12T13:04:45.185Z</time>
</trkpt>
<trkpt lat="44.2672720" lon="14.7509730">
<ele>154.632004</ele>
<time>2024-04-12T13:04:45.185Z</time>
</trkpt>
<trkpt lat="44.2672670" lon="14.7510250">
<ele>154.968994</ele>
<time>2024-04-12T13:04:45.185Z</time>
</trkpt>
<trkpt lat="44.2672620" lon="14.7510770">
<ele>155.307007</ele>
<time>2024-04-12T13:04:45.185Z</time>
</trkpt>
<trkpt lat="44.2672570" lon="14.7511290">
<ele>155.584000</ele>
<time>2024-04-12T13:04:45.185Z</time>
</trkpt>
<trkpt lat="44.2672750" lon="14.7511510">
<ele>155.485001</ele>
<time>2024-04-12T13:04:45.185Z</time>
</trkpt>
<trkpt lat="44.2673040" lon="14.7511650">
<ele>155.113998</ele>
<time>2024-04-12T13:04:45.185Z</time>
</trkpt>
<trkpt lat="44.2673330" lon="14.7511780">
<ele>154.741989</ele>
<time>2024-04-12T13:04:45.185Z</time>
</trkpt>
<trkpt lat="44.2673620" lon="14.7511920">
<ele>154.261993</ele>
<time>2024-04-12T13:04:45.185Z</time>
</trkpt>
<trkpt lat="44.2673890" lon="14.7512160">
<ele>153.783005</ele>
<time>2024-04-12T13:04:45.185Z</time>
</trkpt>
<trkpt lat="44.2674160" lon="14.7512410">
<ele>153.300995</ele>
<time>2024-04-12T13:04:45.185Z</time>
</trkpt>
<trkpt lat="44.2674450" lon="14.7512810">
<ele>152.792999</ele>
<time>2024-04-12T13:04:45.185Z</time>
</trkpt>
<trkpt lat="44.2674730" lon="14.7513220">
<ele>152.223999</ele>
<time>2024-04-12T13:04:45.185Z</time>
</trkpt>
<trkpt lat="44.2674920" lon="14.7513560">
<ele>151.693008</ele>
<time>2024-04-12T13:04:45.185Z</time>
</trkpt>
<trkpt lat="44.2675100" lon="14.7513910">
<ele>151.189011</ele>
<time>2024-04-12T13:04:45.185Z</time>
</trkpt>
<trkpt lat="44.2675360" lon="14.7514270">
<ele>150.439011</ele>
<time>2024-04-12T13:04:45.185Z</time>
</trkpt>
<trkpt lat="44.2675610" lon="14.7514630">
<ele>149.760010</ele>
<time>2024-04-12T13:04:45.185Z</time>
</trkpt>
<trkpt lat="44.2675850" lon="14.7515070">
<ele>149.007996</ele>
<time>2024-04-12T13:04:45.185Z</time>
</trkpt>
<trkpt lat="44.2676220" lon="14.7515200">
<ele>148.143997</ele>
<time>2024-04-12T13:04:45.185Z</time>
</trkpt>
<trkpt lat="44.2676490" lon="14.7515360">
<ele>147.449997</ele>
<time>2024-04-12T13:04:45.185Z</time>
</trkpt>
<trkpt lat="44.2676750" lon="14.7515520">
<ele>146.724991</ele>
<time>2024-04-12T13:04:45.185Z</time>
</trkpt>
<trkpt lat="44.2676850" lon="14.7516010">
<ele>146.251999</ele>
<time>2024-04-12T13:04:45.185Z</time>
</trkpt>
<trkpt lat="44.2676950" lon="14.7516500">
<ele>145.832001</ele>
<time>2024-04-12T13:04:45.185Z</time>
</trkpt>
<trkpt lat="44.2677260" lon="14.7516580">
<ele>144.762009</ele>
<time>2024-04-12T13:04:45.185Z</time>
</trkpt>
<trkpt lat="44.2677570" lon="14.7516660">
<ele>143.917007</ele>
<time>2024-04-12T13:04:45.185Z</time>
</trkpt>
<trkpt lat="44.2677840" lon="14.7516680">
<ele>143.307999</ele>
<time>2024-04-12T13:04:45.185Z</time>
</trkpt>
<trkpt lat="44.2678010" lon="14.7516670">
<ele>143.029007</ele>
<time>2024-04-12T13:04:45.185Z</time>
</trkpt>
<trkpt lat="44.2678320" lon="14.7516500">
<ele>142.587997</ele>
<time>2024-04-12T13:04:45.185Z</time>
</trkpt>
<trkpt lat="44.2678590" lon="14.7516170">
<ele>142.393997</ele>
<time>2024-04-12T13:04:45.185Z</time>
</trkpt>
<trkpt lat="44.2678890" lon="14.7515780">
<ele>142.115005</ele>
<time>2024-04-12T13:04:45.185Z</time>
</trkpt>
<trkpt lat="44.2679190" lon="14.7515400">
<ele>141.797989</ele>
<time>2024-04-12T13:04:45.185Z</time>
</trkpt>
<trkpt lat="44.2679510" lon="14.7514970">
<ele>141.425003</ele>
<time>2024-04-12T13:04:45.185Z</time>
</trkpt>
<trkpt lat="44.2679830" lon="14.7514550">
<ele>140.932007</ele>
<time>2024-04-12T13:04:45.185Z</time>
</trkpt>
<trkpt lat="44.2680050" lon="14.7514260">
<ele>140.671997</ele>
<time>2024-04-12T13:04:45.185Z</time>
</trkpt>
<trkpt lat="44.2680270" lon="14.7513960">
<ele>140.339996</ele>
<time>2024-04-12T13:04:45.185Z</time>
</trkpt>
<trkpt lat="44.2680490" lon="14.7513660">
<ele>140.005997</ele>
<time>2024-04-12T13:04:45.185Z</time>
</trkpt>
<trkpt lat="44.2680720" lon="14.7513470">
<ele>139.694992</ele>
<time>2024-04-12T13:04:45.185Z</time>
</trkpt>
<trkpt lat="44.2681020" lon="14.7513140">
<ele>139.287003</ele>
<time>2024-04-12T13:04:45.185Z</time>
</trkpt>
<trkpt lat="44.2681320" lon="14.7512810">
<ele>138.934998</ele>
<time>2024-04-12T13:04:45.185Z</time>
</trkpt>
<trkpt lat="44.2681610" lon="14.7512490">
<ele>138.533005</ele>
<time>2024-04-12T13:04:45.185Z</time>
</trkpt>
<trkpt lat="44.2681910" lon="14.7512160">
<ele>138.054001</ele>
<time>2024-04-12T13:04:45.185Z</time>
</trkpt>
<trkpt lat="44.2682210" lon="14.7511830">
<ele>137.497009</ele>
<time>2024-04-12T13:04:45.185Z</time>
</trkpt>
<trkpt lat="44.2682500" lon="14.7511510">
<ele>136.865997</ele>
<time>2024-04-12T13:04:45.185Z</time>
</trkpt>
<trkpt lat="44.2682800" lon="14.7511160">
<ele>136.238007</ele>
<time>2024-04-12T13:04:45.185Z</time>
</trkpt>
<trkpt lat="44.2683100" lon="14.7510810">
<ele>135.593002</ele>
<time>2024-04-12T13:04:45.185Z</time>
</trkpt>
<trkpt lat="44.2683400" lon="14.7510460">
<ele>135.048996</ele>
<time>2024-04-12T13:04:45.185Z</time>
</trkpt>
<trkpt lat="44.2683700" lon="14.7510110">
<ele>134.542999</ele>
<time>2024-04-12T13:04:45.185Z</time>
</trkpt>
<trkpt lat="44.2684020" lon="14.7509730">
<ele>134.160004</ele>
<time>2024-04-12T13:04:45.185Z</time>
</trkpt>
<trkpt lat="44.2684340" lon="14.7509340">
<ele>133.686996</ele>
<time>2024-04-12T13:04:45.185Z</time>
</trkpt>
<trkpt lat="44.2684650" lon="14.7508950">
<ele>133.190002</ele>
<time>2024-04-12T13:04:45.185Z</time>
</trkpt>
<trkpt lat="44.2684970" lon="14.7508560">
<ele>132.768005</ele>
<time>2024-04-12T13:04:45.185Z</time>
</trkpt>
<trkpt lat="44.2685290" lon="14.7508180">
<ele>132.274002</ele>
<time>2024-04-12T13:04:45.185Z</time>
</trkpt>
<trkpt lat="44.2685600" lon="14.7507760">
<ele>131.810989</ele>
<time>2024-04-12T13:04:45.185Z</time>
</trkpt>
<trkpt lat="44.2685920" lon="14.7507350">
<ele>131.360001</ele>
<time>2024-04-12T13:04:45.185Z</time>
</trkpt>
<trkpt lat="44.2686230" lon="14.7506930">
<ele>130.882004</ele>
<time>2024-04-12T13:04:45.185Z</time>
</trkpt>
<trkpt lat="44.2686590" lon="14.7506560">
<ele>130.406006</ele>
<time>2024-04-12T13:04:45.185Z</time>
</trkpt>
<trkpt lat="44.2686950" lon="14.7506180">
<ele>129.838989</ele>
<time>2024-04-12T13:04:45.185Z</time>
</trkpt>
<trkpt lat="44.2686940" lon="14.7506780">
<ele>130.001007</ele>
<time>2024-04-12T13:04:45.185Z</time>
</trkpt>
<trkpt lat="44.2687200" lon="14.7507050">
<ele>129.643997</ele>
<time>2024-04-12T13:04:45.185Z</time>
</trkpt>
<trkpt lat="44.2687490" lon="14.7507080">
<ele>129.300995</ele>
<time>2024-04-12T13:04:45.185Z</time>
</trkpt>
<trkpt lat="44.2687780" lon="14.7507100">
<ele>128.890991</ele>
<time>2024-04-12T13:04:45.185Z</time>
</trkpt>
<trkpt lat="44.2688090" lon="14.7507160">
<ele>128.416992</ele>
<time>2024-04-12T13:04:45.185Z</time>
</trkpt>
<trkpt lat="44.2688410" lon="14.7507210">
<ele>127.921997</ele>
<time>2024-04-12T13:04:45.185Z</time>
</trkpt>
<trkpt lat="44.2688720" lon="14.7507270">
<ele>127.430000</ele>
<time>2024-04-12T13:04:45.185Z</time>
</trkpt>
<trkpt lat="44.2688980" lon="14.7507360">
<ele>126.936996</ele>
<time>2024-04-12T13:04:45.185Z</time>
</trkpt>
<trkpt lat="44.2689230" lon="14.7507450">
<ele>126.360001</ele>
<time>2024-04-12T13:04:45.185Z</time>
</trkpt>
<trkpt lat="44.2689590" lon="14.7507550">
<ele>125.582001</ele>
<time>2024-04-12T13:04:45.185Z</time>
</trkpt>
<trkpt lat="44.2689970" lon="14.7507810">
<ele>124.705994</ele>
<time>2024-04-12T13:04:45.185Z</time>
</trkpt>
<trkpt lat="44.2690220" lon="14.7507950">
<ele>124.182999</ele>
<time>2024-04-12T13:04:45.185Z</time>
</trkpt>
<trkpt lat="44.2690510" lon="14.7508020">
<ele>123.736000</ele>
<time>2024-04-12T13:04:45.185Z</time>
</trkpt>
<trkpt lat="44.2690800" lon="14.7508090">
<ele>123.348999</ele>
<time>2024-04-12T13:04:45.185Z</time>
</trkpt>
<trkpt lat="44.2691030" lon="14.7508140">
<ele>123.096001</ele>
<time>2024-04-12T13:04:45.185Z</time>
</trkpt>
<trkpt lat="44.2691240" lon="14.7508070">
<ele>122.855995</ele>
<time>2024-04-12T13:04:45.185Z</time>
</trkpt>
<trkpt lat="44.2691430" lon="14.7508000">
<ele>122.634003</ele>
<time>2024-04-12T13:04:45.185Z</time>
</trkpt>
<trkpt lat="44.2691610" lon="14.7507940">
<ele>122.425003</ele>
<time>2024-04-12T13:04:45.185Z</time>
</trkpt>
<trkpt lat="44.2691740" lon="14.7507900">
<ele>122.174004</ele>
<time>2024-04-12T13:04:45.185Z</time>
</trkpt>
<trkpt lat="44.2692150" lon="14.7507960">
<ele>121.288994</ele>
<time>2024-04-12T13:04:45.185Z</time>
</trkpt>
<trkpt lat="44.2692340" lon="14.7507990">
<ele>120.889999</ele>
<time>2024-04-12T13:04:45.185Z</time>
</trkpt>
<trkpt lat="44.2692680" lon="14.7507910">
<ele>120.262001</ele>
<time>2024-04-12T13:04:45.185Z</time>
</trkpt>
<trkpt lat="44.2692920" lon="14.7507970">
<ele>119.836998</ele>
<time>2024-04-12T13:04:45.185Z</time>
</trkpt>
<trkpt lat="44.2693170" lon="14.7508030">
<ele>119.392998</ele>
<time>2024-04-12T13:04:45.185Z</time>
</trkpt>
<trkpt lat="44.2693460" lon="14.7508040">
<ele>118.905998</ele>
<time>2024-04-12T13:04:45.185Z</time>
</trkpt>
<trkpt lat="44.2693740" lon="14.7508050">
<ele>118.463005</ele>
<time>2024-04-12T13:04:45.185Z</time>
</trkpt>
<trkpt lat="44.2694030" lon="14.7508030">
<ele>117.998001</ele>
<time>2024-04-12T13:04:45.185Z</time>
</trkpt>
<trkpt lat="44.2694320" lon="14.7508020">
<ele>117.511002</ele>
<time>2024-04-12T13:04:45.185Z</time>
</trkpt>
<trkpt lat="44.2694630" lon="14.7508080">
<ele>116.931999</ele>
<time>2024-04-12T13:04:45.185Z</time>
</trkpt>
<trkpt lat="44.2694890" lon="14.7508110">
<ele>116.475998</ele>
<time>2024-04-12T13:04:45.185Z</time>
</trkpt>
<trkpt lat="44.2695140" lon="14.7508140">
<ele>116.028999</ele>
<time>2024-04-12T13:04:45.185Z</time>
</trkpt>
<trkpt lat="44.2695490" lon="14.7507990">
<ele>115.600006</ele>
<time>2024-04-12T13:04:45.185Z</time>
</trkpt>
<trkpt lat="44.2695840" lon="14.7507830">
<ele>115.208992</ele>
<time>2024-04-12T13:04:45.185Z</time>
</trkpt>
<trkpt lat="44.2696140" lon="14.7507830">
<ele>114.767998</ele>
<time>2024-04-12T13:04:45.185Z</time>
</trkpt>
<trkpt lat="44.2696450" lon="14.7507830">
<ele>114.327003</ele>
<time>2024-04-12T13:04:45.189Z</time>
</trkpt>
<trkpt lat="44.2696750" lon="14.7507830">
<ele>113.888000</ele>
<time>2024-04-12T13:04:45.189Z</time>
</trkpt>
<trkpt lat="44.2697080" lon="14.7507860">
<ele>113.386002</ele>
<time>2024-04-12T13:04:45.189Z</time>
</trkpt>
<trkpt lat="44.2697420" lon="14.7507890">
<ele>112.908005</ele>
<time>2024-04-12T13:04:45.189Z</time>
</trkpt>
<trkpt lat="44.2697820" lon="14.7507940">
<ele>112.316002</ele>
<time>2024-04-12T13:04:45.189Z</time>
</trkpt>
<trkpt lat="44.2698230" lon="14.7508000">
<ele>111.736000</ele>
<time>2024-04-12T13:04:45.189Z</time>
</trkpt>
<trkpt lat="44.2698400" lon="14.7507980">
<ele>111.511002</ele>
<time>2024-04-12T13:04:45.189Z</time>
</trkpt>
<trkpt lat="44.2698550" lon="14.7508370">
<ele>110.797005</ele>
<time>2024-04-12T13:04:45.189Z</time>
</trkpt>
<trkpt lat="44.2698950" lon="14.7508280">
<ele>109.998001</ele>
<time>2024-04-12T13:04:45.189Z</time>
</trkpt>
<trkpt lat="44.2699360" lon="14.7508200">
<ele>109.090996</ele>
<time>2024-04-12T13:04:45.189Z</time>
</trkpt>
<trkpt lat="44.2699630" lon="14.7508180">
<ele>108.484001</ele>
<time>2024-04-12T13:04:45.189Z</time>
</trkpt>
<trkpt lat="44.2699890" lon="14.7508170">
<ele>108.020004</ele>
<time>2024-04-12T13:04:45.189Z</time>
</trkpt>
<trkpt lat="44.2700330" lon="14.7508310">
<ele>107.295006</ele>
<time>2024-04-12T13:04:45.189Z</time>
</trkpt>
<trkpt lat="44.2700700" lon="14.7508290">
<ele>106.793999</ele>
<time>2024-04-12T13:04:45.189Z</time>
</trkpt>
<trkpt lat="44.2701060" lon="14.7508270">
<ele>106.275002</ele>
<time>2024-04-12T13:04:45.189Z</time>
</trkpt>
<trkpt lat="44.2701320" lon="14.7508380">
<ele>105.870995</ele>
<time>2024-04-12T13:04:45.189Z</time>
</trkpt>
<trkpt lat="44.2701580" lon="14.7508480">
<ele>105.487000</ele>
<time>2024-04-12T13:04:45.189Z</time>
</trkpt>
<trkpt lat="44.2701810" lon="14.7508520">
<ele>105.237000</ele>
<time>2024-04-12T13:04:45.189Z</time>
</trkpt>
<trkpt lat="44.2702030" lon="14.7508550">
<ele>104.973000</ele>
<time>2024-04-12T13:04:45.189Z</time>
</trkpt>
<trkpt lat="44.2702280" lon="14.7508560">
<ele>104.609993</ele>
<time>2024-04-12T13:04:45.189Z</time>
</trkpt>
<trkpt lat="44.2702530" lon="14.7508570">
<ele>104.198997</ele>
<time>2024-04-12T13:04:45.189Z</time>
</trkpt>
<trkpt lat="44.2702790" lon="14.7508510">
<ele>103.756004</ele>
<time>2024-04-12T13:04:45.189Z</time>
</trkpt>
<trkpt lat="44.2703040" lon="14.7508460">
<ele>103.306000</ele>
<time>2024-04-12T13:04:45.189Z</time>
</trkpt>
<trkpt lat="44.2703350" lon="14.7508650">
<ele>102.540001</ele>
<time>2024-04-12T13:04:45.189Z</time>
</trkpt>
<trkpt lat="44.2703670" lon="14.7508840">
<ele>101.705002</ele>
<time>2024-04-12T13:04:45.189Z</time>
</trkpt>
<trkpt lat="44.2703960" lon="14.7508910">
<ele>101.103004</ele>
<time>2024-04-12T13:04:45.189Z</time>
</trkpt>
<trkpt lat="44.2704260" lon="14.7508980">
<ele>100.558998</ele>
<time>2024-04-12T13:04:45.189Z</time>
</trkpt>
<trkpt lat="44.2704550" lon="14.7509040">
<ele>100.035995</ele>
<time>2024-04-12T13:04:45.189Z</time>
</trkpt>
<trkpt lat="44.2704860" lon="14.7509120">
<ele>99.498001</ele>
<time>2024-04-12T13:04:45.189Z</time>
</trkpt>
<trkpt lat="44.2705160" lon="14.7509200">
<ele>98.959000</ele>
<time>2024-04-12T13:04:45.189Z</time>
</trkpt>
<trkpt lat="44.2705460" lon="14.7509270">
<ele>98.353996</ele>
<time>2024-04-12T13:04:45.189Z</time>
</trkpt>
<trkpt lat="44.2705850" lon="14.7509110">
<ele>97.830002</ele>
<time>2024-04-12T13:04:45.189Z</time>
</trkpt>
<trkpt lat="44.2706250" lon="14.7509170">
<ele>97.057999</ele>
<time>2024-04-12T13:04:45.189Z</time>
</trkpt>
<trkpt lat="44.2706650" lon="14.7509220">
<ele>96.329002</ele>
<time>2024-04-12T13:04:45.189Z</time>
</trkpt>
<trkpt lat="44.2707050" lon="14.7509280">
<ele>95.601997</ele>
<time>2024-04-12T13:04:45.189Z</time>
</trkpt>
<trkpt lat="44.2707440" lon="14.7509350">
<ele>94.885002</ele>
<time>2024-04-12T13:04:45.189Z</time>
</trkpt>
<trkpt lat="44.2707820" lon="14.7509410">
<ele>94.172997</ele>
<time>2024-04-12T13:04:45.189Z</time>
</trkpt>
<trkpt lat="44.2708210" lon="14.7509480">
<ele>93.451996</ele>
<time>2024-04-12T13:04:45.189Z</time>
</trkpt>
<trkpt lat="44.2708600" lon="14.7509660">
<ele>92.620995</ele>
<time>2024-04-12T13:04:45.189Z</time>
</trkpt>
<trkpt lat="44.2708990" lon="14.7509830">
<ele>91.724998</ele>
<time>2024-04-12T13:04:45.189Z</time>
</trkpt>
<trkpt lat="44.2709280" lon="14.7509920">
<ele>91.031998</ele>
<time>2024-04-12T13:04:45.189Z</time>
</trkpt>
<trkpt lat="44.2709580" lon="14.7510010">
<ele>90.340996</ele>
<time>2024-04-12T13:04:45.189Z</time>
</trkpt>
<trkpt lat="44.2709870" lon="14.7510100">
<ele>89.659004</ele>
<time>2024-04-12T13:04:45.189Z</time>
</trkpt>
<trkpt lat="44.2710160" lon="14.7510050">
<ele>89.167007</ele>
<time>2024-04-12T13:04:45.189Z</time>
</trkpt>
<trkpt lat="44.2710460" lon="14.7509990">
<ele>88.711006</ele>
<time>2024-04-12T13:04:45.189Z</time>
</trkpt>
<trkpt lat="44.2710870" lon="14.7510050">
<ele>87.957001</ele>
<time>2024-04-12T13:04:45.189Z</time>
</trkpt>
<trkpt lat="44.2711290" lon="14.7510110">
<ele>87.227997</ele>
<time>2024-04-12T13:04:45.189Z</time>
</trkpt>
<trkpt lat="44.2711700" lon="14.7510170">
<ele>86.508995</ele>
<time>2024-04-12T13:04:45.189Z</time>
</trkpt>
<trkpt lat="44.2712110" lon="14.7510240">
<ele>85.806000</ele>
<time>2024-04-12T13:04:45.189Z</time>
</trkpt>
<trkpt lat="44.2712450" lon="14.7510260">
<ele>85.272003</ele>
<time>2024-04-12T13:04:45.189Z</time>
</trkpt>
<trkpt lat="44.2712650" lon="14.7510420">
<ele>84.778000</ele>
<time>2024-04-12T13:04:45.189Z</time>
</trkpt>
<trkpt lat="44.2712860" lon="14.7510570">
<ele>84.274002</ele>
<time>2024-04-12T13:04:45.189Z</time>
</trkpt>
<trkpt lat="44.2713260" lon="14.7510600">
<ele>83.679001</ele>
<time>2024-04-12T13:04:45.189Z</time>
</trkpt>
<trkpt lat="44.2713650" lon="14.7510630">
<ele>82.984001</ele>
<time>2024-04-12T13:04:45.189Z</time>
</trkpt>
<trkpt lat="44.2714050" lon="14.7510660">
<ele>82.268005</ele>
<time>2024-04-12T13:04:45.189Z</time>
</trkpt>
<trkpt lat="44.2714390" lon="14.7510790">
<ele>81.506996</ele>
<time>2024-04-12T13:04:45.189Z</time>
</trkpt>
<trkpt lat="44.2714730" lon="14.7510930">
<ele>80.718002</ele>
<time>2024-04-12T13:04:45.189Z</time>
</trkpt>
<trkpt lat="44.2715140" lon="14.7511060">
<ele>79.788002</ele>
<time>2024-04-12T13:04:45.189Z</time>
</trkpt>
<trkpt lat="44.2715550" lon="14.7511180">
<ele>78.843002</ele>
<time>2024-04-12T13:04:45.189Z</time>
</trkpt>
<trkpt lat="44.2715980" lon="14.7511300">
<ele>77.848000</ele>
<time>2024-04-12T13:04:45.189Z</time>
</trkpt>
<trkpt lat="44.2716420" lon="14.7511420">
<ele>76.877998</ele>
<time>2024-04-12T13:04:45.189Z</time>
</trkpt>
<trkpt lat="44.2716850" lon="14.7511540">
<ele>76.114998</ele>
<time>2024-04-12T13:04:45.189Z</time>
</trkpt>
<trkpt lat="44.2717170" lon="14.7511550">
<ele>75.653000</ele>
<time>2024-04-12T13:04:45.189Z</time>
</trkpt>
<trkpt lat="44.2717500" lon="14.7511560">
<ele>75.189003</ele>
<time>2024-04-12T13:04:45.189Z</time>
</trkpt>
<trkpt lat="44.2717820" lon="14.7511570">
<ele>74.713997</ele>
<time>2024-04-12T13:04:45.189Z</time>
</trkpt>
<trkpt lat="44.2718220" lon="14.7511630">
<ele>73.973999</ele>
<time>2024-04-12T13:04:45.189Z</time>
</trkpt>
<trkpt lat="44.2718620" lon="14.7511700">
<ele>73.193001</ele>
<time>2024-04-12T13:04:45.189Z</time>
</trkpt>
<trkpt lat="44.2719010" lon="14.7511760">
<ele>72.370003</ele>
<time>2024-04-12T13:04:45.189Z</time>
</trkpt>
<trkpt lat="44.2719410" lon="14.7511820">
<ele>71.529999</ele>
<time>2024-04-12T13:04:45.189Z</time>
</trkpt>
<trkpt lat="44.2719810" lon="14.7511890">
<ele>70.743996</ele>
<time>2024-04-12T13:04:45.189Z</time>
</trkpt>
<trkpt lat="44.2720130" lon="14.7511970">
<ele>70.075005</ele>
<time>2024-04-12T13:04:45.189Z</time>
</trkpt>
<trkpt lat="44.2720460" lon="14.7512060">
<ele>69.188004</ele>
<time>2024-04-12T13:04:45.189Z</time>
</trkpt>
<trkpt lat="44.2720780" lon="14.7512140">
<ele>68.353996</ele>
<time>2024-04-12T13:04:45.189Z</time>
</trkpt>
<trkpt lat="44.2721100" lon="14.7512390">
<ele>67.516998</ele>
<time>2024-04-12T13:04:45.189Z</time>
</trkpt>
<trkpt lat="44.2721420" lon="14.7512650">
<ele>66.792000</ele>
<time>2024-04-12T13:04:45.189Z</time>
</trkpt>
<trkpt lat="44.2721750" lon="14.7512780">
<ele>66.033005</ele>
<time>2024-04-12T13:04:45.189Z</time>
</trkpt>
<trkpt lat="44.2722080" lon="14.7512920">
<ele>65.322998</ele>
<time>2024-04-12T13:04:45.189Z</time>
</trkpt>
<trkpt lat="44.2722410" lon="14.7513050">
<ele>64.648994</ele>
<time>2024-04-12T13:04:45.189Z</time>
</trkpt>
<trkpt lat="44.2722710" lon="14.7513250">
<ele>63.908001</ele>
<time>2024-04-12T13:04:45.189Z</time>
</trkpt>
<trkpt lat="44.2723000" lon="14.7513450">
<ele>63.052998</ele>
<time>2024-04-12T13:04:45.189Z</time>
</trkpt>
<trkpt lat="44.2723300" lon="14.7513650">
<ele>62.164001</ele>
<time>2024-04-12T13:04:45.189Z</time>
</trkpt>
<trkpt lat="44.2723610" lon="14.7514010">
<ele>61.261002</ele>
<time>2024-04-12T13:04:45.189Z</time>
</trkpt>
<trkpt lat="44.2723920" lon="14.7514360">
<ele>60.651001</ele>
<time>2024-04-12T13:04:45.189Z</time>
</trkpt>
<trkpt lat="44.2724240" lon="14.7514720">
<ele>60.145000</ele>
<time>2024-04-12T13:04:45.189Z</time>
</trkpt>
<trkpt lat="44.2724550" lon="14.7515070">
<ele>59.659000</ele>
<time>2024-04-12T13:04:45.189Z</time>
</trkpt>
<trkpt lat="44.2724820" lon="14.7515290">
<ele>59.189003</ele>
<time>2024-04-12T13:04:45.189Z</time>
</trkpt>
<trkpt lat="44.2725100" lon="14.7515510">
<ele>58.739002</ele>
<time>2024-04-12T13:04:45.189Z</time>
</trkpt>
<trkpt lat="44.2725370" lon="14.7515730">
<ele>58.244999</ele>
<time>2024-04-12T13:04:45.189Z</time>
</trkpt>
<trkpt lat="44.2725650" lon="14.7515740">
<ele>57.855000</ele>
<time>2024-04-12T13:04:45.189Z</time>
</trkpt>
<trkpt lat="44.2725930" lon="14.7515750">
<ele>57.438000</ele>
<time>2024-04-12T13:04:45.189Z</time>
</trkpt>
<trkpt lat="44.2726230" lon="14.7515690">
<ele>56.978001</ele>
<time>2024-04-12T13:04:45.189Z</time>
</trkpt>
<trkpt lat="44.2726520" lon="14.7515620">
<ele>56.547001</ele>
<time>2024-04-12T13:04:45.189Z</time>
</trkpt>
<trkpt lat="44.2726820" lon="14.7515550">
<ele>56.220001</ele>
<time>2024-04-12T13:04:45.189Z</time>
</trkpt>
<trkpt lat="44.2727110" lon="14.7515670">
<ele>55.967999</ele>
<time>2024-04-12T13:04:45.189Z</time>
</trkpt>
<trkpt lat="44.2727320" lon="14.7515820">
<ele>55.757000</ele>
<time>2024-04-12T13:04:45.189Z</time>
</trkpt>
<trkpt lat="44.2727530" lon="14.7515960">
<ele>55.528000</ele>
<time>2024-04-12T13:04:45.189Z</time>
</trkpt>
<trkpt lat="44.2727690" lon="14.7516250">
<ele>55.271000</ele>
<time>2024-04-12T13:04:45.189Z</time>
</trkpt>
<trkpt lat="44.2727850" lon="14.7516530">
<ele>54.952999</ele>
<time>2024-04-12T13:04:45.189Z</time>
</trkpt>
<trkpt lat="44.2728150" lon="14.7516850">
<ele>54.439999</ele>
<time>2024-04-12T13:04:45.189Z</time>
</trkpt>
<trkpt lat="44.2728450" lon="14.7517160">
<ele>53.938000</ele>
<time>2024-04-12T13:04:45.189Z</time>
</trkpt>
<trkpt lat="44.2728800" lon="14.7517320">
<ele>53.521999</ele>
<time>2024-04-12T13:04:45.189Z</time>
</trkpt>
<trkpt lat="44.2729180" lon="14.7517060">
<ele>53.343998</ele>
<time>2024-04-12T13:04:45.189Z</time>
</trkpt>
<trkpt lat="44.2729410" lon="14.7516650">
<ele>53.321003</ele>
<time>2024-04-12T13:04:45.189Z</time>
</trkpt>
<trkpt lat="44.2729650" lon="14.7516240">
<ele>53.297997</ele>
<time>2024-04-12T13:04:45.189Z</time>
</trkpt>
<trkpt lat="44.2729880" lon="14.7515830">
<ele>53.278999</ele>
<time>2024-04-12T13:04:45.189Z</time>
</trkpt>
<trkpt lat="44.2730120" lon="14.7515430">
<ele>53.403999</ele>
<time>2024-04-12T13:04:45.189Z</time>
</trkpt>
<trkpt lat="44.2730360" lon="14.7515020">
<ele>53.867001</ele>
<time>2024-04-12T13:04:45.189Z</time>
</trkpt>
<trkpt lat="44.2730640" lon="14.7514760">
<ele>54.232002</ele>
<time>2024-04-12T13:04:45.189Z</time>
</trkpt>
<trkpt lat="44.2730930" lon="14.7514500">
<ele>54.629002</ele>
<time>2024-04-12T13:04:45.189Z</time>
</trkpt>
<trkpt lat="44.2731230" lon="14.7514900">
<ele>54.237000</ele>
<time>2024-04-12T13:04:45.189Z</time>
</trkpt>
<trkpt lat="44.2731530" lon="14.7515310">
<ele>53.961998</ele>
<time>2024-04-12T13:04:45.189Z</time>
</trkpt>
<trkpt lat="44.2731830" lon="14.7515710">
<ele>53.738998</ele>
<time>2024-04-12T13:04:45.189Z</time>
</trkpt>
<trkpt lat="44.2732130" lon="14.7516110">
<ele>53.485001</ele>
<time>2024-04-12T13:04:45.189Z</time>
</trkpt>
<trkpt lat="44.2732430" lon="14.7516520">
<ele>53.326000</ele>
<time>2024-04-12T13:04:45.189Z</time>
</trkpt>
<trkpt lat="44.2732730" lon="14.7516920">
<ele>53.081001</ele>
<time>2024-04-12T13:04:45.189Z</time>
</trkpt>
<trkpt lat="44.2733030" lon="14.7517320">
<ele>52.865002</ele>
<time>2024-04-12T13:04:45.189Z</time>
</trkpt>
<trkpt lat="44.2733330" lon="14.7517780">
<ele>52.660000</ele>
<time>2024-04-12T13:04:45.189Z</time>
</trkpt>
<trkpt lat="44.2733630" lon="14.7518230">
<ele>52.388000</ele>
<time>2024-04-12T13:04:45.189Z</time>
</trkpt>
<trkpt lat="44.2733930" lon="14.7518690">
<ele>52.142998</ele>
<time>2024-04-12T13:04:45.189Z</time>
</trkpt>
<trkpt lat="44.2734160" lon="14.7519100">
<ele>51.888000</ele>
<time>2024-04-12T13:04:45.189Z</time>
</trkpt>
<trkpt lat="44.2734380" lon="14.7519500">
<ele>51.555000</ele>
<time>2024-04-12T13:04:45.189Z</time>
</trkpt>
<trkpt lat="44.2734610" lon="14.7519910">
<ele>51.185001</ele>
<time>2024-04-12T13:04:45.189Z</time>
</trkpt>
<trkpt lat="44.2734850" lon="14.7520370">
<ele>50.768997</ele>
<time>2024-04-12T13:04:45.189Z</time>
</trkpt>
<trkpt lat="44.2735100" lon="14.7520830">
<ele>50.411003</ele>
<time>2024-04-12T13:04:45.189Z</time>
</trkpt>
<trkpt lat="44.2735340" lon="14.7521280">
<ele>49.999001</ele>
<time>2024-04-12T13:04:45.189Z</time>
</trkpt>
<trkpt lat="44.2735510" lon="14.7521560">
<ele>49.792999</ele>
<time>2024-04-12T13:04:45.189Z</time>
</trkpt>
<trkpt lat="44.2735680" lon="14.7521840">
<ele>49.530998</ele>
<time>2024-04-12T13:04:45.189Z</time>
</trkpt>
<trkpt lat="44.2736050" lon="14.7522060">
<ele>49.201000</ele>
<time>2024-04-12T13:04:45.189Z</time>
</trkpt>
<trkpt lat="44.2736420" lon="14.7522290">
<ele>48.830002</ele>
<time>2024-04-12T13:04:45.189Z</time>
</trkpt>
<trkpt lat="44.2736800" lon="14.7522520">
<ele>48.495998</ele>
<time>2024-04-12T13:04:45.189Z</time>
</trkpt>
<trkpt lat="44.2737170" lon="14.7522750">
<ele>47.997002</ele>
<time>2024-04-12T13:04:45.189Z</time>
</trkpt>
<trkpt lat="44.2737520" lon="14.7523000">
<ele>47.554001</ele>
<time>2024-04-12T13:04:45.189Z</time>
</trkpt>
<trkpt lat="44.2737880" lon="14.7523260">
<ele>47.113998</ele>
<time>2024-04-12T13:04:45.189Z</time>
</trkpt>
<trkpt lat="44.2738230" lon="14.7523510">
<ele>46.730999</ele>
<time>2024-04-12T13:04:45.189Z</time>
</trkpt>
<trkpt lat="44.2738620" lon="14.7523750">
<ele>46.256001</ele>
<time>2024-04-12T13:04:45.189Z</time>
</trkpt>
<trkpt lat="44.2739000" lon="14.7523990">
<ele>45.897999</ele>
<time>2024-04-12T13:04:45.189Z</time>
</trkpt>
<trkpt lat="44.2739410" lon="14.7524060">
<ele>45.653999</ele>
<time>2024-04-12T13:04:45.189Z</time>
</trkpt>
<trkpt lat="44.2739820" lon="14.7524140">
<ele>45.446999</ele>
<time>2024-04-12T13:04:45.189Z</time>
</trkpt>
<trkpt lat="44.2740230" lon="14.7524220">
<ele>45.264999</ele>
<time>2024-04-12T13:04:45.189Z</time>
</trkpt>
<trkpt lat="44.2740620" lon="14.7524360">
<ele>45.095001</ele>
<time>2024-04-12T13:04:45.189Z</time>
</trkpt>
<trkpt lat="44.2741010" lon="14.7524510">
<ele>44.873001</ele>
<time>2024-04-12T13:04:45.189Z</time>
</trkpt>
<trkpt lat="44.2741400" lon="14.7524650">
<ele>44.650002</ele>
<time>2024-04-12T13:04:45.189Z</time>
</trkpt>
<trkpt lat="44.2741790" lon="14.7524790">
<ele>44.446999</ele>
<time>2024-04-12T13:04:45.189Z</time>
</trkpt>
<trkpt lat="44.2742180" lon="14.7524930">
<ele>44.267002</ele>
<time>2024-04-12T13:04:45.189Z</time>
</trkpt>
<trkpt lat="44.2742570" lon="14.7525080">
<ele>43.909000</ele>
<time>2024-04-12T13:04:45.189Z</time>
</trkpt>
<trkpt lat="44.2742950" lon="14.7525220">
<ele>43.527000</ele>
<time>2024-04-12T13:04:45.189Z</time>
</trkpt>
<trkpt lat="44.2743310" lon="14.7525380">
<ele>43.234997</ele>
<time>2024-04-12T13:04:45.189Z</time>
</trkpt>
<trkpt lat="44.2743670" lon="14.7525550">
<ele>42.976002</ele>
<time>2024-04-12T13:04:45.189Z</time>
</trkpt>
<trkpt lat="44.2744030" lon="14.7525710">
<ele>42.591999</ele>
<time>2024-04-12T13:04:45.189Z</time>
</trkpt>
<trkpt lat="44.2744390" lon="14.7525870">
<ele>42.237999</ele>
<time>2024-04-12T13:04:45.189Z</time>
</trkpt>
<trkpt lat="44.2744810" lon="14.7526000">
<ele>41.938999</ele>
<time>2024-04-12T13:04:45.189Z</time>
</trkpt>
<trkpt lat="44.2745230" lon="14.7526130">
<ele>41.617001</ele>
<time>2024-04-12T13:04:45.189Z</time>
</trkpt>
<trkpt lat="44.2745650" lon="14.7526260">
<ele>41.179996</ele>
<time>2024-04-12T13:04:45.189Z</time>
</trkpt>
<trkpt lat="44.2745920" lon="14.7526450">
<ele>40.947998</ele>
<time>2024-04-12T13:04:45.189Z</time>
</trkpt>
<trkpt lat="44.2746180" lon="14.7526630">
<ele>40.727997</ele>
<time>2024-04-12T13:04:45.189Z</time>
</trkpt>
<trkpt lat="44.2746410" lon="14.7526740">
<ele>40.540001</ele>
<time>2024-04-12T13:04:45.189Z</time>
</trkpt>
<trkpt lat="44.2746640" lon="14.7526890">
<ele>40.392998</ele>
<time>2024-04-12T13:04:45.189Z</time>
</trkpt>
<trkpt lat="44.2746870" lon="14.7527040">
<ele>40.241001</ele>
<time>2024-04-12T13:04:45.189Z</time>
</trkpt>
<trkpt lat="44.2747110" lon="14.7527390">
<ele>39.998001</ele>
<time>2024-04-12T13:04:45.189Z</time>
</trkpt>
<trkpt lat="44.2747360" lon="14.7527740">
<ele>39.668003</ele>
<time>2024-04-12T13:04:45.189Z</time>
</trkpt>
<trkpt lat="44.2747620" lon="14.7527990">
<ele>39.359001</ele>
<time>2024-04-12T13:04:45.189Z</time>
</trkpt>
<trkpt lat="44.2747880" lon="14.7528250">
<ele>39.051998</ele>
<time>2024-04-12T13:04:45.189Z</time>
</trkpt>
<trkpt lat="44.2748050" lon="14.7528490">
<ele>38.812000</ele>
<time>2024-04-12T13:04:45.189Z</time>
</trkpt>
<trkpt lat="44.2748220" lon="14.7528730">
<ele>38.566998</ele>
<time>2024-04-12T13:04:45.189Z</time>
</trkpt>
<trkpt lat="44.2748490" lon="14.7529130">
<ele>38.179001</ele>
<time>2024-04-12T13:04:45.189Z</time>
</trkpt>
<trkpt lat="44.2748750" lon="14.7529530">
<ele>37.788002</ele>
<time>2024-04-12T13:04:45.189Z</time>
</trkpt>
<trkpt lat="44.2748940" lon="14.7529770">
<ele>37.535999</ele>
<time>2024-04-12T13:04:45.189Z</time>
</trkpt>
<trkpt lat="44.2749130" lon="14.7530010">
<ele>37.278999</ele>
<time>2024-04-12T13:04:45.189Z</time>
</trkpt>
<trkpt lat="44.2749350" lon="14.7530330">
<ele>36.966999</ele>
<time>2024-04-12T13:04:45.189Z</time>
</trkpt>
<trkpt lat="44.2749570" lon="14.7530660">
<ele>36.668999</ele>
<time>2024-04-12T13:04:45.189Z</time>
</trkpt>
<trkpt lat="44.2749830" lon="14.7531070">
<ele>36.373001</ele>
<time>2024-04-12T13:04:45.189Z</time>
</trkpt>
<trkpt lat="44.2750080" lon="14.7531480">
<ele>36.078999</ele>
<time>2024-04-12T13:04:45.189Z</time>
</trkpt>
<trkpt lat="44.2750340" lon="14.7531810">
<ele>35.825001</ele>
<time>2024-04-12T13:04:45.189Z</time>
</trkpt>
<trkpt lat="44.2750590" lon="14.7532140">
<ele>35.555000</ele>
<time>2024-04-12T13:04:45.189Z</time>
</trkpt>
<trkpt lat="44.2750850" lon="14.7532470">
<ele>35.303001</ele>
<time>2024-04-12T13:04:45.189Z</time>
</trkpt>
<trkpt lat="44.2751050" lon="14.7532930">
<ele>35.007999</ele>
<time>2024-04-12T13:04:45.189Z</time>
</trkpt>
<trkpt lat="44.2751260" lon="14.7533390">
<ele>34.745998</ele>
<time>2024-04-12T13:04:45.189Z</time>
</trkpt>
<trkpt lat="44.2751240" lon="14.7533880">
<ele>34.658001</ele>
<time>2024-04-12T13:04:45.189Z</time>
</trkpt>
<trkpt lat="44.2751020" lon="14.7534310">
<ele>34.723000</ele>
<time>2024-04-12T13:04:45.190Z</time>
</trkpt>
<trkpt lat="44.2750810" lon="14.7534730">
<ele>34.834000</ele>
<time>2024-04-12T13:04:45.190Z</time>
</trkpt>
<trkpt lat="44.2750480" lon="14.7535110">
<ele>35.006001</ele>
<time>2024-04-12T13:04:45.190Z</time>
</trkpt>
<trkpt lat="44.2750140" lon="14.7535490">
<ele>35.171001</ele>
<time>2024-04-12T13:04:45.190Z</time>
</trkpt>
<trkpt lat="44.2749810" lon="14.7535870">
<ele>35.369999</ele>
<time>2024-04-12T13:04:45.190Z</time>
</trkpt>
<trkpt lat="44.2749470" lon="14.7536250">
<ele>35.549999</ele>
<time>2024-04-12T13:04:45.190Z</time>
</trkpt>
<trkpt lat="44.2749140" lon="14.7536620">
<ele>35.730999</ele>
<time>2024-04-12T13:04:45.190Z</time>
</trkpt>
<trkpt lat="44.2748810" lon="14.7537000">
<ele>35.922001</ele>
<time>2024-04-12T13:04:45.190Z</time>
</trkpt>
<trkpt lat="44.2748470" lon="14.7537380">
<ele>36.110001</ele>
<time>2024-04-12T13:04:45.190Z</time>
</trkpt>
<trkpt lat="44.2748140" lon="14.7537760">
<ele>36.299000</ele>
<time>2024-04-12T13:04:45.190Z</time>
</trkpt>
<trkpt lat="44.2747930" lon="14.7538000">
<ele>36.412003</ele>
<time>2024-04-12T13:04:45.190Z</time>
</trkpt>
<trkpt lat="44.2747730" lon="14.7538250">
<ele>36.491001</ele>
<time>2024-04-12T13:04:45.190Z</time>
</trkpt>
<trkpt lat="44.2747760" lon="14.7538730">
<ele>36.389999</ele>
<time>2024-04-12T13:04:45.190Z</time>
</trkpt>
<trkpt lat="44.2747440" lon="14.7539100">
<ele>36.558002</ele>
<time>2024-04-12T13:04:45.190Z</time>
</trkpt>
<trkpt lat="44.2747120" lon="14.7539470">
<ele>36.598000</ele>
<time>2024-04-12T13:04:45.190Z</time>
</trkpt>
<trkpt lat="44.2746760" lon="14.7539800">
<ele>36.392998</ele>
<time>2024-04-12T13:04:45.190Z</time>
</trkpt>
<trkpt lat="44.2746390" lon="14.7540140">
<ele>36.161999</ele>
<time>2024-04-12T13:04:45.190Z</time>
</trkpt>
<trkpt lat="44.2746030" lon="14.7540470">
<ele>36.049999</ele>
<time>2024-04-12T13:04:45.190Z</time>
</trkpt>
<trkpt lat="44.2745660" lon="14.7540810">
<ele>36.000999</ele>
<time>2024-04-12T13:04:45.190Z</time>
</trkpt>
<trkpt lat="44.2745300" lon="14.7541140">
<ele>35.917000</ele>
<time>2024-04-12T13:04:45.190Z</time>
</trkpt>
<trkpt lat="44.2744980" lon="14.7541480">
<ele>35.818001</ele>
<time>2024-04-12T13:04:45.190Z</time>
</trkpt>
<trkpt lat="44.2744670" lon="14.7541820">
<ele>35.717999</ele>
<time>2024-04-12T13:04:45.190Z</time>
</trkpt>
<trkpt lat="44.2744350" lon="14.7542150">
<ele>35.618000</ele>
<time>2024-04-12T13:04:45.190Z</time>
</trkpt>
<trkpt lat="44.2744040" lon="14.7542490">
<ele>35.517998</ele>
<time>2024-04-12T13:04:45.190Z</time>
</trkpt>
<trkpt lat="44.2743770" lon="14.7542770">
<ele>35.437000</ele>
<time>2024-04-12T13:04:45.190Z</time>
</trkpt>
<trkpt lat="44.2743500" lon="14.7543050">
<ele>35.355999</ele>
<time>2024-04-12T13:04:45.190Z</time>
</trkpt>
<trkpt lat="44.2743240" lon="14.7543330">
<ele>35.264999</ele>
<time>2024-04-12T13:04:45.190Z</time>
</trkpt>
<trkpt lat="44.2742980" lon="14.7543670">
<ele>35.107998</ele>
<time>2024-04-12T13:04:45.190Z</time>
</trkpt>
<trkpt lat="44.2742730" lon="14.7544010">
<ele>34.954998</ele>
<time>2024-04-12T13:04:45.190Z</time>
</trkpt>
<trkpt lat="44.2742480" lon="14.7544350">
<ele>34.812000</ele>
<time>2024-04-12T13:04:45.190Z</time>
</trkpt>
<trkpt lat="44.2742220" lon="14.7544690">
<ele>34.750000</ele>
<time>2024-04-12T13:04:45.190Z</time>
</trkpt>
<trkpt lat="44.2741980" lon="14.7545030">
<ele>34.706001</ele>
<time>2024-04-12T13:04:45.190Z</time>
</trkpt>
<trkpt lat="44.2741730" lon="14.7545380">
<ele>34.674999</ele>
<time>2024-04-12T13:04:45.190Z</time>
</trkpt>
<trkpt lat="44.2741490" lon="14.7545730">
<ele>34.658001</ele>
<time>2024-04-12T13:04:45.190Z</time>
</trkpt>
<trkpt lat="44.2741120" lon="14.7545980">
<ele>34.680000</ele>
<time>2024-04-12T13:04:45.190Z</time>
</trkpt>
<trkpt lat="44.2741230" lon="14.7546460">
<ele>34.555000</ele>
<time>2024-04-12T13:04:45.190Z</time>
</trkpt>
<trkpt lat="44.2741200" lon="14.7546790">
<ele>34.462002</ele>
<time>2024-04-12T13:04:45.190Z</time>
</trkpt>
<trkpt lat="44.2741170" lon="14.7547120">
<ele>34.368000</ele>
<time>2024-04-12T13:04:45.190Z</time>
</trkpt>
<trkpt lat="44.2741090" lon="14.7547580">
<ele>34.240002</ele>
<time>2024-04-12T13:04:45.190Z</time>
</trkpt>
<trkpt lat="44.2741010" lon="14.7548040">
<ele>34.091000</ele>
<time>2024-04-12T13:04:45.190Z</time>
</trkpt>
<trkpt lat="44.2740810" lon="14.7548350">
<ele>33.971001</ele>
<time>2024-04-12T13:04:45.190Z</time>
</trkpt>
<trkpt lat="44.2740620" lon="14.7548660">
<ele>33.870998</ele>
<time>2024-04-12T13:04:45.190Z</time>
</trkpt>
<trkpt lat="44.2740350" lon="14.7549060">
<ele>33.737000</ele>
<time>2024-04-12T13:04:45.190Z</time>
</trkpt>
<trkpt lat="44.2740080" lon="14.7549460">
<ele>33.609001</ele>
<time>2024-04-12T13:04:45.190Z</time>
</trkpt>
<trkpt lat="44.2739820" lon="14.7549860">
<ele>33.542000</ele>
<time>2024-04-12T13:04:45.190Z</time>
</trkpt>
<trkpt lat="44.2739550" lon="14.7550260">
<ele>33.513000</ele>
<time>2024-04-12T13:04:45.190Z</time>
</trkpt>
<trkpt lat="44.2739280" lon="14.7550660">
<ele>33.529999</ele>
<time>2024-04-12T13:04:45.190Z</time>
</trkpt>
<trkpt lat="44.2739010" lon="14.7551060">
<ele>33.402000</ele>
<time>2024-04-12T13:04:45.190Z</time>
</trkpt>
<trkpt lat="44.2738750" lon="14.7551460">
<ele>33.060001</ele>
<time>2024-04-12T13:04:45.190Z</time>
</trkpt>
<trkpt lat="44.2738980" lon="14.7551130">
<ele>33.355000</ele>
<time>2024-04-12T13:04:45.190Z</time>
</trkpt>
<trkpt lat="44.2739210" lon="14.7550800">
<ele>33.521000</ele>
<time>2024-04-12T13:04:45.190Z</time>
</trkpt>
<trkpt lat="44.2739450" lon="14.7550470">
<ele>33.524002</ele>
<time>2024-04-12T13:04:45.190Z</time>
</trkpt>
<trkpt lat="44.2739740" lon="14.7550040">
<ele>33.528000</ele>
<time>2024-04-12T13:04:45.190Z</time>
</trkpt>
<trkpt lat="44.2739690" lon="14.7549900">
<ele>33.541000</ele>
<time>2024-04-12T13:04:45.190Z</time>
</trkpt>
<trkpt lat="44.2739470" lon="14.7550340">
<ele>33.522999</ele>
<time>2024-04-12T13:04:45.190Z</time>
</trkpt>
<trkpt lat="44.2739250" lon="14.7550780">
<ele>33.521000</ele>
<time>2024-04-12T13:04:45.190Z</time>
</trkpt>
<trkpt lat="44.2739030" lon="14.7551220">
<ele>33.325001</ele>
<time>2024-04-12T13:04:45.190Z</time>
</trkpt>
<trkpt lat="44.2738780" lon="14.7551620">
<ele>32.966999</ele>
<time>2024-04-12T13:04:45.190Z</time>
</trkpt>
<trkpt lat="44.2738520" lon="14.7552020">
<ele>32.597000</ele>
<time>2024-04-12T13:04:45.190Z</time>
</trkpt>
<trkpt lat="44.2738260" lon="14.7552420">
<ele>32.334000</ele>
<time>2024-04-12T13:04:45.190Z</time>
</trkpt>
<trkpt lat="44.2737970" lon="14.7552770">
<ele>32.167000</ele>
<time>2024-04-12T13:04:45.190Z</time>
</trkpt>
<trkpt lat="44.2737690" lon="14.7553130">
<ele>32.033001</ele>
<time>2024-04-12T13:04:45.190Z</time>
</trkpt>
<trkpt lat="44.2737500" lon="14.7553470">
<ele>31.957001</ele>
<time>2024-04-12T13:04:45.190Z</time>
</trkpt>
<trkpt lat="44.2737310" lon="14.7553810">
<ele>31.883001</ele>
<time>2024-04-12T13:04:45.190Z</time>
</trkpt>
<trkpt lat="44.2737130" lon="14.7554160">
<ele>31.792999</ele>
<time>2024-04-12T13:04:45.190Z</time>
</trkpt>
<trkpt lat="44.2737000" lon="14.7554530">
<ele>31.677999</ele>
<time>2024-04-12T13:04:45.190Z</time>
</trkpt>
<trkpt lat="44.2736880" lon="14.7554900">
<ele>31.502001</ele>
<time>2024-04-12T13:04:45.190Z</time>
</trkpt>
<trkpt lat="44.2736690" lon="14.7555300">
<ele>31.229000</ele>
<time>2024-04-12T13:04:45.190Z</time>
</trkpt>
<trkpt lat="44.2736510" lon="14.7555710">
<ele>30.952999</ele>
<time>2024-04-12T13:04:45.190Z</time>
</trkpt>
<trkpt lat="44.2736270" lon="14.7556090">
<ele>30.737001</ele>
<time>2024-04-12T13:04:45.190Z</time>
</trkpt>
<trkpt lat="44.2736030" lon="14.7556480">
<ele>30.547001</ele>
<time>2024-04-12T13:04:45.190Z</time>
</trkpt>
<trkpt lat="44.2735790" lon="14.7556870">
<ele>30.380999</ele>
<time>2024-04-12T13:04:45.190Z</time>
</trkpt>
<trkpt lat="44.2735580" lon="14.7557320">
<ele>30.264999</ele>
<time>2024-04-12T13:04:45.190Z</time>
</trkpt>
<trkpt lat="44.2735360" lon="14.7557780">
<ele>29.997000</ele>
<time>2024-04-12T13:04:45.190Z</time>
</trkpt>
<trkpt lat="44.2735140" lon="14.7558240">
<ele>29.591002</ele>
<time>2024-04-12T13:04:45.190Z</time>
</trkpt>
<trkpt lat="44.2734920" lon="14.7558700">
<ele>29.160000</ele>
<time>2024-04-12T13:04:45.190Z</time>
</trkpt>
<trkpt lat="44.2734620" lon="14.7559140">
<ele>28.783998</ele>
<time>2024-04-12T13:04:45.190Z</time>
</trkpt>
<trkpt lat="44.2734320" lon="14.7559570">
<ele>28.534000</ele>
<time>2024-04-12T13:04:45.190Z</time>
</trkpt>
<trkpt lat="44.2734010" lon="14.7560010">
<ele>28.267000</ele>
<time>2024-04-12T13:04:45.190Z</time>
</trkpt>
<trkpt lat="44.2733710" lon="14.7560440">
<ele>27.993000</ele>
<time>2024-04-12T13:04:45.190Z</time>
</trkpt>
<trkpt lat="44.2733480" lon="14.7560970">
<ele>27.788000</ele>
<time>2024-04-12T13:04:45.190Z</time>
</trkpt>
<trkpt lat="44.2733250" lon="14.7561510">
<ele>27.698999</ele>
<time>2024-04-12T13:04:45.190Z</time>
</trkpt>
<trkpt lat="44.2733030" lon="14.7562040">
<ele>27.469999</ele>
<time>2024-04-12T13:04:45.190Z</time>
</trkpt>
<trkpt lat="44.2732790" lon="14.7562430">
<ele>27.366999</ele>
<time>2024-04-12T13:04:45.190Z</time>
</trkpt>
<trkpt lat="44.2732560" lon="14.7562820">
<ele>27.297998</ele>
<time>2024-04-12T13:04:45.190Z</time>
</trkpt>
<trkpt lat="44.2732320" lon="14.7563210">
<ele>27.055000</ele>
<time>2024-04-12T13:04:45.190Z</time>
</trkpt>
<trkpt lat="44.2732110" lon="14.7563530">
<ele>26.805000</ele>
<time>2024-04-12T13:04:45.190Z</time>
</trkpt>
<trkpt lat="44.2731900" lon="14.7563850">
<ele>26.605999</ele>
<time>2024-04-12T13:04:45.190Z</time>
</trkpt>
<trkpt lat="44.2731750" lon="14.7564110">
<ele>26.472000</ele>
<time>2024-04-12T13:04:45.190Z</time>
</trkpt>
<trkpt lat="44.2731600" lon="14.7564370">
<ele>26.341999</ele>
<time>2024-04-12T13:04:45.190Z</time>
</trkpt>
<trkpt lat="44.2731550" lon="14.7564690">
<ele>26.149000</ele>
<time>2024-04-12T13:04:45.190Z</time>
</trkpt>
<trkpt lat="44.2731490" lon="14.7565020">
<ele>25.958000</ele>
<time>2024-04-12T13:04:45.190Z</time>
</trkpt>
<trkpt lat="44.2731660" lon="14.7565430">
<ele>25.821001</ele>
<time>2024-04-12T13:04:45.190Z</time>
</trkpt>
<trkpt lat="44.2731830" lon="14.7565840">
<ele>25.719999</ele>
<time>2024-04-12T13:04:45.190Z</time>
</trkpt>
<trkpt lat="44.2732000" lon="14.7566250">
<ele>25.611000</ele>
<time>2024-04-12T13:04:45.190Z</time>
</trkpt>
<trkpt lat="44.2732240" lon="14.7566730">
<ele>25.454000</ele>
<time>2024-04-12T13:04:45.190Z</time>
</trkpt>
<trkpt lat="44.2732490" lon="14.7567210">
<ele>25.357000</ele>
<time>2024-04-12T13:04:45.190Z</time>
</trkpt>
<trkpt lat="44.2732730" lon="14.7567680">
<ele>25.281000</ele>
<time>2024-04-12T13:04:45.190Z</time>
</trkpt>
<trkpt lat="44.2732980" lon="14.7568160">
<ele>25.594000</ele>
<time>2024-04-12T13:04:45.190Z</time>
</trkpt>
<trkpt lat="44.2733220" lon="14.7568640">
<ele>26.018000</ele>
<time>2024-04-12T13:04:45.190Z</time>
</trkpt>
<trkpt lat="44.2733210" lon="14.7569130">
<ele>26.349001</ele>
<time>2024-04-12T13:04:45.190Z</time>
</trkpt>
<trkpt lat="44.2733200" lon="14.7569610">
<ele>26.688000</ele>
<time>2024-04-12T13:04:45.190Z</time>
</trkpt>
<trkpt lat="44.2733200" lon="14.7570100">
<ele>27.003000</ele>
<time>2024-04-12T13:04:45.190Z</time>
</trkpt>
<trkpt lat="44.2733240" lon="14.7570680">
<ele>27.288000</ele>
<time>2024-04-12T13:04:45.190Z</time>
</trkpt>
<trkpt lat="44.2733280" lon="14.7571260">
<ele>27.372000</ele>
<time>2024-04-12T13:04:45.190Z</time>
</trkpt>
<trkpt lat="44.2733320" lon="14.7571840">
<ele>27.270000</ele>
<time>2024-04-12T13:04:45.190Z</time>
</trkpt>
<trkpt lat="44.2733360" lon="14.7572420">
<ele>27.177000</ele>
<time>2024-04-12T13:04:45.191Z</time>
</trkpt>
<trkpt lat="44.2733400" lon="14.7573000">
<ele>27.143000</ele>
<time>2024-04-12T13:04:45.191Z</time>
</trkpt>
<trkpt lat="44.2733440" lon="14.7573570">
<ele>27.132999</ele>
<time>2024-04-12T13:04:45.191Z</time>
</trkpt>
<trkpt lat="44.2733450" lon="14.7574100">
<ele>27.095999</ele>
<time>2024-04-12T13:04:45.191Z</time>
</trkpt>
<trkpt lat="44.2733460" lon="14.7574620">
<ele>27.040001</ele>
<time>2024-04-12T13:04:45.191Z</time>
</trkpt>
<trkpt lat="44.2733470" lon="14.7575140">
<ele>26.957001</ele>
<time>2024-04-12T13:04:45.191Z</time>
</trkpt>
<trkpt lat="44.2733480" lon="14.7575670">
<ele>26.868999</ele>
<time>2024-04-12T13:04:45.191Z</time>
</trkpt>
<trkpt lat="44.2733490" lon="14.7576190">
<ele>26.793999</ele>
<time>2024-04-12T13:04:45.191Z</time>
</trkpt>
<trkpt lat="44.2733500" lon="14.7576710">
<ele>26.715000</ele>
<time>2024-04-12T13:04:45.191Z</time>
</trkpt>
<trkpt lat="44.2733500" lon="14.7577250">
<ele>26.622000</ele>
<time>2024-04-12T13:04:45.191Z</time>
</trkpt>
<trkpt lat="44.2733490" lon="14.7577790">
<ele>26.529999</ele>
<time>2024-04-12T13:04:45.191Z</time>
</trkpt>
<trkpt lat="44.2733490" lon="14.7578330">
<ele>26.426001</ele>
<time>2024-04-12T13:04:45.191Z</time>
</trkpt>
<trkpt lat="44.2733490" lon="14.7578860">
<ele>26.185999</ele>
<time>2024-04-12T13:04:45.191Z</time>
</trkpt>
<trkpt lat="44.2733480" lon="14.7579330">
<ele>25.882000</ele>
<time>2024-04-12T13:04:45.191Z</time>
</trkpt>
<trkpt lat="44.2733460" lon="14.7579790">
<ele>25.639999</ele>
<time>2024-04-12T13:04:45.191Z</time>
</trkpt>
<trkpt lat="44.2733450" lon="14.7580260">
<ele>25.416000</ele>
<time>2024-04-12T13:04:45.191Z</time>
</trkpt>
<trkpt lat="44.2733430" lon="14.7580740">
<ele>25.278999</ele>
<time>2024-04-12T13:04:45.191Z</time>
</trkpt>
<trkpt lat="44.2733410" lon="14.7581230">
<ele>25.145000</ele>
<time>2024-04-12T13:04:45.191Z</time>
</trkpt>
<trkpt lat="44.2733390" lon="14.7581720">
<ele>24.901001</ele>
<time>2024-04-12T13:04:45.191Z</time>
</trkpt>
<trkpt lat="44.2733200" lon="14.7582150">
<ele>24.476000</ele>
<time>2024-04-12T13:04:45.191Z</time>
</trkpt>
<trkpt lat="44.2733010" lon="14.7582570">
<ele>24.073000</ele>
<time>2024-04-12T13:04:45.191Z</time>
</trkpt>
<trkpt lat="44.2732820" lon="14.7583000">
<ele>23.687000</ele>
<time>2024-04-12T13:04:45.191Z</time>
</trkpt>
<trkpt lat="44.2732710" lon="14.7583430">
<ele>23.349001</ele>
<time>2024-04-12T13:04:45.191Z</time>
</trkpt>
<trkpt lat="44.2732600" lon="14.7583870">
<ele>23.064999</ele>
<time>2024-04-12T13:04:45.191Z</time>
</trkpt>
<trkpt lat="44.2732480" lon="14.7584300">
<ele>22.820000</ele>
<time>2024-04-12T13:04:45.191Z</time>
</trkpt>
<trkpt lat="44.2732420" lon="14.7584730">
<ele>22.615002</ele>
<time>2024-04-12T13:04:45.191Z</time>
</trkpt>
<trkpt lat="44.2732360" lon="14.7585170">
<ele>22.393000</ele>
<time>2024-04-12T13:04:45.191Z</time>
</trkpt>
<trkpt lat="44.2732290" lon="14.7585600">
<ele>22.146999</ele>
<time>2024-04-12T13:04:45.191Z</time>
</trkpt>
<trkpt lat="44.2732220" lon="14.7586160">
<ele>21.799000</ele>
<time>2024-04-12T13:04:45.191Z</time>
</trkpt>
<trkpt lat="44.2732150" lon="14.7586730">
<ele>21.460999</ele>
<time>2024-04-12T13:04:45.191Z</time>
</trkpt>
<trkpt lat="44.2732080" lon="14.7587290">
<ele>21.149000</ele>
<time>2024-04-12T13:04:45.191Z</time>
</trkpt>
<trkpt lat="44.2731980" lon="14.7587720">
<ele>20.851000</ele>
<time>2024-04-12T13:04:45.191Z</time>
</trkpt>
<trkpt lat="44.2731870" lon="14.7588160">
<ele>20.517002</ele>
<time>2024-04-12T13:04:45.191Z</time>
</trkpt>
<trkpt lat="44.2731810" lon="14.7588530">
<ele>20.130999</ele>
<time>2024-04-12T13:04:45.191Z</time>
</trkpt>
<trkpt lat="44.2731750" lon="14.7588900">
<ele>19.759001</ele>
<time>2024-04-12T13:04:45.191Z</time>
</trkpt>
<trkpt lat="44.2731840" lon="14.7589460">
<ele>19.344000</ele>
<time>2024-04-12T13:04:45.191Z</time>
</trkpt>
<trkpt lat="44.2731930" lon="14.7590020">
<ele>18.938000</ele>
<time>2024-04-12T13:04:45.191Z</time>
</trkpt>
<trkpt lat="44.2731910" lon="14.7590530">
<ele>18.577000</ele>
<time>2024-04-12T13:04:45.191Z</time>
</trkpt>
<trkpt lat="44.2731900" lon="14.7591030">
<ele>18.253000</ele>
<time>2024-04-12T13:04:45.191Z</time>
</trkpt>
<trkpt lat="44.2731850" lon="14.7591490">
<ele>17.913000</ele>
<time>2024-04-12T13:04:45.191Z</time>
</trkpt>
<trkpt lat="44.2731800" lon="14.7591950">
<ele>17.565001</ele>
<time>2024-04-12T13:04:45.191Z</time>
</trkpt>
<trkpt lat="44.2731750" lon="14.7592420">
<ele>17.221001</ele>
<time>2024-04-12T13:04:45.191Z</time>
</trkpt>
<trkpt lat="44.2731930" lon="14.7592970">
<ele>16.914000</ele>
<time>2024-04-12T13:04:45.191Z</time>
</trkpt>
<trkpt lat="44.2732110" lon="14.7593530">
<ele>16.593000</ele>
<time>2024-04-12T13:04:45.191Z</time>
</trkpt>
<trkpt lat="44.2732170" lon="14.7593980">
<ele>16.275000</ele>
<time>2024-04-12T13:04:45.191Z</time>
</trkpt>
<trkpt lat="44.2732230" lon="14.7594430">
<ele>15.942000</ele>
<time>2024-04-12T13:04:45.191Z</time>
</trkpt>
<trkpt lat="44.2732050" lon="14.7594930">
<ele>15.490000</ele>
<time>2024-04-12T13:04:45.191Z</time>
</trkpt>
<trkpt lat="44.2731870" lon="14.7595440">
<ele>15.207000</ele>
<time>2024-04-12T13:04:45.191Z</time>
</trkpt>
<trkpt lat="44.2731830" lon="14.7595870">
<ele>14.990000</ele>
<time>2024-04-12T13:04:45.191Z</time>
</trkpt>
<trkpt lat="44.2731800" lon="14.7596310">
<ele>14.802999</ele>
<time>2024-04-12T13:04:45.191Z</time>
</trkpt>
<trkpt lat="44.2731810" lon="14.7596840">
<ele>14.532001</ele>
<time>2024-04-12T13:04:45.191Z</time>
</trkpt>
<trkpt lat="44.2731820" lon="14.7597370">
<ele>14.337001</ele>
<time>2024-04-12T13:04:45.191Z</time>
</trkpt>
<trkpt lat="44.2731830" lon="14.7597890">
<ele>14.138000</ele>
<time>2024-04-12T13:04:45.191Z</time>
</trkpt>
<trkpt lat="44.2731840" lon="14.7598420">
<ele>13.889999</ele>
<time>2024-04-12T13:04:45.191Z</time>
</trkpt>
<trkpt lat="44.2731870" lon="14.7598930">
<ele>13.585999</ele>
<time>2024-04-12T13:04:45.191Z</time>
</trkpt>
<trkpt lat="44.2731900" lon="14.7599440">
<ele>13.253000</ele>
<time>2024-04-12T13:04:45.191Z</time>
</trkpt>
<trkpt lat="44.2731930" lon="14.7599960">
<ele>12.903999</ele>
<time>2024-04-12T13:04:45.191Z</time>
</trkpt>
<trkpt lat="44.2731950" lon="14.7600470">
<ele>12.563000</ele>
<time>2024-04-12T13:04:45.191Z</time>
</trkpt>
<trkpt lat="44.2731980" lon="14.7600980">
<ele>12.252000</ele>
<time>2024-04-12T13:04:45.191Z</time>
</trkpt>
<trkpt lat="44.2732030" lon="14.7601480">
<ele>12.036000</ele>
<time>2024-04-12T13:04:45.191Z</time>
</trkpt>
<trkpt lat="44.2732070" lon="14.7601970">
<ele>11.891000</ele>
<time>2024-04-12T13:04:45.191Z</time>
</trkpt>
<trkpt lat="44.2732120" lon="14.7602470">
<ele>11.774000</ele>
<time>2024-04-12T13:04:45.191Z</time>
</trkpt>
<trkpt lat="44.2732200" lon="14.7602950">
<ele>11.634001</ele>
<time>2024-04-12T13:04:45.191Z</time>
</trkpt>
<trkpt lat="44.2732290" lon="14.7603440">
<ele>11.419999</ele>
<time>2024-04-12T13:04:45.191Z</time>
</trkpt>
<trkpt lat="44.2732380" lon="14.7603920">
<ele>11.183000</ele>
<time>2024-04-12T13:04:45.191Z</time>
</trkpt>
<trkpt lat="44.2732460" lon="14.7604410">
<ele>10.946000</ele>
<time>2024-04-12T13:04:45.191Z</time>
</trkpt>
<trkpt lat="44.2732530" lon="14.7604930">
<ele>10.695999</ele>
<time>2024-04-12T13:04:45.191Z</time>
</trkpt>
<trkpt lat="44.2732610" lon="14.7605460">
<ele>10.558000</ele>
<time>2024-04-12T13:04:45.191Z</time>
</trkpt>
<trkpt lat="44.2732610" lon="14.7606060">
<ele>10.408000</ele>
<time>2024-04-12T13:04:45.191Z</time>
</trkpt>
<trkpt lat="44.2732610" lon="14.7606660">
<ele>10.223001</ele>
<time>2024-04-12T13:04:45.191Z</time>
</trkpt>
<trkpt lat="44.2732610" lon="14.7607260">
<ele>9.983000</ele>
<time>2024-04-12T13:04:45.191Z</time>
</trkpt>
<trkpt lat="44.2732620" lon="14.7607860">
<ele>9.729000</ele>
<time>2024-04-12T13:04:45.191Z</time>
</trkpt>
<trkpt lat="44.2732630" lon="14.7608350">
<ele>9.516000</ele>
<time>2024-04-12T13:04:45.191Z</time>
</trkpt>
<trkpt lat="44.2732640" lon="14.7608850">
<ele>9.299000</ele>
<time>2024-04-12T13:04:45.191Z</time>
</trkpt>
<trkpt lat="44.2732660" lon="14.7609340">
<ele>9.083000</ele>
<time>2024-04-12T13:04:45.191Z</time>
</trkpt>
<trkpt lat="44.2732670" lon="14.7609830">
<ele>8.894000</ele>
<time>2024-04-12T13:04:45.191Z</time>
</trkpt>
<trkpt lat="44.2732730" lon="14.7610430">
<ele>8.714000</ele>
<time>2024-04-12T13:04:45.191Z</time>
</trkpt>
<trkpt lat="44.2732790" lon="14.7611040">
<ele>8.545000</ele>
<time>2024-04-12T13:04:45.191Z</time>
</trkpt>
<trkpt lat="44.2732840" lon="14.7611650">
<ele>8.367000</ele>
<time>2024-04-12T13:04:45.191Z</time>
</trkpt>
<trkpt lat="44.2732900" lon="14.7612250">
<ele>8.168000</ele>
<time>2024-04-12T13:04:45.191Z</time>
</trkpt>
<trkpt lat="44.2732920" lon="14.7612820">
<ele>7.976000</ele>
<time>2024-04-12T13:04:45.191Z</time>
</trkpt>
<trkpt lat="44.2732930" lon="14.7613390">
<ele>7.767000</ele>
<time>2024-04-12T13:04:45.191Z</time>
</trkpt>
<trkpt lat="44.2732950" lon="14.7613950">
<ele>7.538000</ele>
<time>2024-04-12T13:04:45.191Z</time>
</trkpt>
<trkpt lat="44.2732970" lon="14.7614520">
<ele>7.303000</ele>
<time>2024-04-12T13:04:45.191Z</time>
</trkpt>
<trkpt lat="44.2732990" lon="14.7615090">
<ele>7.104000</ele>
<time>2024-04-12T13:04:45.191Z</time>
</trkpt>
<trkpt lat="44.2733010" lon="14.7615650">
<ele>6.976000</ele>
<time>2024-04-12T13:04:45.191Z</time>
</trkpt>
<trkpt lat="44.2733020" lon="14.7616220">
<ele>6.852000</ele>
<time>2024-04-12T13:04:45.191Z</time>
</trkpt>
<trkpt lat="44.2733040" lon="14.7616790">
<ele>6.704000</ele>
<time>2024-04-12T13:04:45.191Z</time>
</trkpt>
<trkpt lat="44.2733060" lon="14.7617350">
<ele>6.544000</ele>
<time>2024-04-12T13:04:45.191Z</time>
</trkpt>
<trkpt lat="44.2733090" lon="14.7617950">
<ele>6.445000</ele>
<time>2024-04-12T13:04:45.191Z</time>
</trkpt>
<trkpt lat="44.2733130" lon="14.7618540">
<ele>6.427000</ele>
<time>2024-04-12T13:04:45.191Z</time>
</trkpt>
<trkpt lat="44.2733120" lon="14.7619130">
<ele>6.396000</ele>
<time>2024-04-12T13:04:45.191Z</time>
</trkpt>
<trkpt lat="44.2733120" lon="14.7619720">
<ele>6.317000</ele>
<time>2024-04-12T13:04:45.191Z</time>
</trkpt>
<trkpt lat="44.2733080" lon="14.7620260">
<ele>6.218000</ele>
<time>2024-04-12T13:04:45.191Z</time>
</trkpt>
<trkpt lat="44.2733050" lon="14.7620800">
<ele>6.118000</ele>
<time>2024-04-12T13:04:45.191Z</time>
</trkpt>
<trkpt lat="44.2733070" lon="14.7621290">
<ele>6.030000</ele>
<time>2024-04-12T13:04:45.191Z</time>
</trkpt>
<trkpt lat="44.2733080" lon="14.7621790">
<ele>5.923000</ele>
<time>2024-04-12T13:04:45.191Z</time>
</trkpt>
<trkpt lat="44.2733020" lon="14.7622190">
<ele>5.803000</ele>
<time>2024-04-12T13:04:45.191Z</time>
</trkpt>
<trkpt lat="44.2732950" lon="14.7622590">
<ele>5.691000</ele>
<time>2024-04-12T13:04:45.191Z</time>
</trkpt>
<trkpt lat="44.2732980" lon="14.7622920">
<ele>5.603000</ele>
<time>2024-04-12T13:04:45.191Z</time>
</trkpt>
<trkpt lat="44.2733000" lon="14.7623250">
<ele>5.521000</ele>
<time>2024-04-12T13:04:45.191Z</time>
</trkpt>
<trkpt lat="44.2733090" lon="14.7623730">
<ele>5.412000</ele>
<time>2024-04-12T13:04:45.191Z</time>
</trkpt>
<trkpt lat="44.2733170" lon="14.7624210">
<ele>5.307000</ele>
<time>2024-04-12T13:04:45.191Z</time>
</trkpt>
<trkpt lat="44.2733260" lon="14.7624690">
<ele>5.223000</ele>
<time>2024-04-12T13:04:45.191Z</time>
</trkpt>
<trkpt lat="44.2733310" lon="14.7625300">
<ele>5.113000</ele>
<time>2024-04-12T13:04:45.191Z</time>
</trkpt>
<trkpt lat="44.2733370" lon="14.7625920">
<ele>5.002000</ele>
<time>2024-04-12T13:04:45.191Z</time>
</trkpt>
<trkpt lat="44.2733420" lon="14.7626540">
<ele>4.850000</ele>
<time>2024-04-12T13:04:45.191Z</time>
</trkpt>
<trkpt lat="44.2733480" lon="14.7627160">
<ele>4.658000</ele>
<time>2024-04-12T13:04:45.192Z</time>
</trkpt>
<trkpt lat="44.2733540" lon="14.7627780">
<ele>4.524000</ele>
<time>2024-04-12T13:04:45.192Z</time>
</trkpt>
<trkpt lat="44.2733580" lon="14.7628280">
<ele>4.463000</ele>
<time>2024-04-12T13:04:45.192Z</time>
</trkpt>
<trkpt lat="44.2733630" lon="14.7628780">
<ele>4.418000</ele>
<time>2024-04-12T13:04:45.192Z</time>
</trkpt>
<trkpt lat="44.2733680" lon="14.7629280">
<ele>4.363000</ele>
<time>2024-04-12T13:04:45.192Z</time>
</trkpt>
<trkpt lat="44.2733730" lon="14.7629780">
<ele>4.253000</ele>
<time>2024-04-12T13:04:45.192Z</time>
</trkpt>
<trkpt lat="44.2733660" lon="14.7630360">
<ele>4.061000</ele>
<time>2024-04-12T13:04:45.192Z</time>
</trkpt>
<trkpt lat="44.2733600" lon="14.7630940">
<ele>3.893000</ele>
<time>2024-04-12T13:04:45.192Z</time>
</trkpt>
<trkpt lat="44.2733610" lon="14.7631330">
<ele>3.834000</ele>
<time>2024-04-12T13:04:45.192Z</time>
</trkpt>
<trkpt lat="44.2733610" lon="14.7631720">
<ele>3.822000</ele>
<time>2024-04-12T13:04:45.192Z</time>
</trkpt>
<trkpt lat="44.2733710" lon="14.7632040">
<ele>3.854000</ele>
<time>2024-04-12T13:04:45.192Z</time>
</trkpt>
<trkpt lat="44.2733810" lon="14.7632360">
<ele>3.887000</ele>
<time>2024-04-12T13:04:45.192Z</time>
</trkpt>
<trkpt lat="44.2734040" lon="14.7632810">
<ele>3.998000</ele>
<time>2024-04-12T13:04:45.192Z</time>
</trkpt>
<trkpt lat="44.2734270" lon="14.7633250">
<ele>4.109000</ele>
<time>2024-04-12T13:04:45.192Z</time>
</trkpt>
<trkpt lat="44.2734500" lon="14.7633700">
<ele>4.214000</ele>
<time>2024-04-12T13:04:45.192Z</time>
</trkpt>
<trkpt lat="44.2734730" lon="14.7634140">
<ele>4.203000</ele>
<time>2024-04-12T13:04:45.192Z</time>
</trkpt>
<trkpt lat="44.2734920" lon="14.7634620">
<ele>4.173000</ele>
<time>2024-04-12T13:04:45.192Z</time>
</trkpt>
<trkpt lat="44.2735100" lon="14.7635110">
<ele>4.159000</ele>
<time>2024-04-12T13:04:45.192Z</time>
</trkpt>
<trkpt lat="44.2735290" lon="14.7635590">
<ele>4.165000</ele>
<time>2024-04-12T13:04:45.192Z</time>
</trkpt>
<trkpt lat="44.2735470" lon="14.7636080">
<ele>4.193000</ele>
<time>2024-04-12T13:04:45.192Z</time>
</trkpt>
<trkpt lat="44.2735650" lon="14.7636530">
<ele>4.394000</ele>
<time>2024-04-12T13:04:45.192Z</time>
</trkpt>
<trkpt lat="44.2735830" lon="14.7636980">
<ele>4.626000</ele>
<time>2024-04-12T13:04:45.192Z</time>
</trkpt>
<trkpt lat="44.2735840" lon="14.7637410">
<ele>4.795000</ele>
<time>2024-04-12T13:04:45.192Z</time>
</trkpt>
<trkpt lat="44.2735850" lon="14.7637840">
<ele>4.898000</ele>
<time>2024-04-12T13:04:45.192Z</time>
</trkpt>
<trkpt lat="44.2735750" lon="14.7638230">
<ele>4.886000</ele>
<time>2024-04-12T13:04:45.192Z</time>
</trkpt>
<trkpt lat="44.2735640" lon="14.7638610">
<ele>4.883000</ele>
<time>2024-04-12T13:04:45.192Z</time>
</trkpt>
<trkpt lat="44.2735350" lon="14.7639000">
<ele>4.798000</ele>
<time>2024-04-12T13:04:45.192Z</time>
</trkpt>
<trkpt lat="44.2735050" lon="14.7639400">
<ele>4.653000</ele>
<time>2024-04-12T13:04:45.192Z</time>
</trkpt>
<trkpt lat="44.2734760" lon="14.7639790">
<ele>4.510000</ele>
<time>2024-04-12T13:04:45.192Z</time>
</trkpt>
<trkpt lat="44.2734460" lon="14.7640180">
<ele>4.368000</ele>
<time>2024-04-12T13:04:45.192Z</time>
</trkpt>
<trkpt lat="44.2734200" lon="14.7640490">
<ele>4.232000</ele>
<time>2024-04-12T13:04:45.192Z</time>
</trkpt>
<trkpt lat="44.2733940" lon="14.7640790">
<ele>4.070000</ele>
<time>2024-04-12T13:04:45.192Z</time>
</trkpt>
<trkpt lat="44.2733680" lon="14.7641100">
<ele>3.910000</ele>
<time>2024-04-12T13:04:45.192Z</time>
</trkpt>
<trkpt lat="44.2733440" lon="14.7641540">
<ele>3.767000</ele>
<time>2024-04-12T13:04:45.192Z</time>
</trkpt>
<trkpt lat="44.2733210" lon="14.7641980">
<ele>3.670000</ele>
<time>2024-04-12T13:04:45.192Z</time>
</trkpt>
<trkpt lat="44.2732970" lon="14.7642420">
<ele>3.567000</ele>
<time>2024-04-12T13:04:45.192Z</time>
</trkpt>
<trkpt lat="44.2732760" lon="14.7642940">
<ele>3.529000</ele>
<time>2024-04-12T13:04:45.192Z</time>
</trkpt>
<trkpt lat="44.2732550" lon="14.7643450">
<ele>3.501000</ele>
<time>2024-04-12T13:04:45.192Z</time>
</trkpt>
<trkpt lat="44.2732500" lon="14.7643900">
<ele>3.520000</ele>
<time>2024-04-12T13:04:45.192Z</time>
</trkpt>
<trkpt lat="44.2732450" lon="14.7644340">
<ele>3.520000</ele>
<time>2024-04-12T13:04:45.192Z</time>
</trkpt>
<trkpt lat="44.2732410" lon="14.7644790">
<ele>3.503000</ele>
<time>2024-04-12T13:04:45.192Z</time>
</trkpt>
<trkpt lat="44.2732450" lon="14.7645160">
<ele>3.536000</ele>
<time>2024-04-12T13:04:45.192Z</time>
</trkpt>
<trkpt lat="44.2732490" lon="14.7645530">
<ele>3.584000</ele>
<time>2024-04-12T13:04:45.192Z</time>
</trkpt>
<trkpt lat="44.2732680" lon="14.7645910">
<ele>3.724000</ele>
<time>2024-04-12T13:04:45.192Z</time>
</trkpt>
<trkpt lat="44.2732880" lon="14.7646290">
<ele>3.724000</ele>
<time>2024-04-12T13:04:45.192Z</time>
</trkpt>
<trkpt lat="44.2733080" lon="14.7646670">
<ele>3.991000</ele>
<time>2024-04-12T13:04:45.192Z</time>
</trkpt>
<trkpt lat="44.2733300" lon="14.7647010">
<ele>4.283000</ele>
<time>2024-04-12T13:04:45.192Z</time>
</trkpt>
<trkpt lat="44.2733520" lon="14.7647350">
<ele>4.383000</ele>
<time>2024-04-12T13:04:45.192Z</time>
</trkpt>
<trkpt lat="44.2733880" lon="14.7647720">
<ele>4.692000</ele>
<time>2024-04-12T13:04:45.192Z</time>
</trkpt>
<trkpt lat="44.2734250" lon="14.7648090">
<ele>4.982000</ele>
<time>2024-04-12T13:04:45.192Z</time>
</trkpt>
<trkpt lat="44.2734610" lon="14.7648460">
<ele>5.319000</ele>
<time>2024-04-12T13:04:45.192Z</time>
</trkpt>
<trkpt lat="44.2734970" lon="14.7648820">
<ele>5.600000</ele>
<time>2024-04-12T13:04:45.192Z</time>
</trkpt>
<trkpt lat="44.2735330" lon="14.7649190">
<ele>5.919000</ele>
<time>2024-04-12T13:04:45.192Z</time>
</trkpt>
<trkpt lat="44.2735700" lon="14.7649560">
<ele>6.230000</ele>
<time>2024-04-12T13:04:45.192Z</time>
</trkpt>
<trkpt lat="44.2735950" lon="14.7649810">
<ele>6.334000</ele>
<time>2024-04-12T13:04:45.192Z</time>
</trkpt>
<trkpt lat="44.2736200" lon="14.7650050">
<ele>6.511000</ele>
<time>2024-04-12T13:04:45.192Z</time>
</trkpt>
<trkpt lat="44.2736450" lon="14.7650300">
<ele>6.815000</ele>
<time>2024-04-12T13:04:45.192Z</time>
</trkpt>
<trkpt lat="44.2736750" lon="14.7650400">
<ele>7.056000</ele>
<time>2024-04-12T13:04:45.192Z</time>
</trkpt>
<trkpt lat="44.2737050" lon="14.7650510">
<ele>7.328000</ele>
<time>2024-04-12T13:04:45.192Z</time>
</trkpt>
<trkpt lat="44.2737400" lon="14.7650490">
<ele>7.625000</ele>
<time>2024-04-12T13:04:45.192Z</time>
</trkpt>
<trkpt lat="44.2737750" lon="14.7650480">
<ele>7.859000</ele>
<time>2024-04-12T13:04:45.192Z</time>
</trkpt>
<trkpt lat="44.2738100" lon="14.7650460">
<ele>8.134000</ele>
<time>2024-04-12T13:04:45.192Z</time>
</trkpt>
<trkpt lat="44.2738450" lon="14.7650450">
<ele>8.345000</ele>
<time>2024-04-12T13:04:45.192Z</time>
</trkpt>
<trkpt lat="44.2738740" lon="14.7650660">
<ele>8.448000</ele>
<time>2024-04-12T13:04:45.192Z</time>
</trkpt>
<trkpt lat="44.2739030" lon="14.7650870">
<ele>8.609000</ele>
<time>2024-04-12T13:04:45.192Z</time>
</trkpt>
<trkpt lat="44.2739230" lon="14.7651320">
<ele>8.983000</ele>
<time>2024-04-12T13:04:45.192Z</time>
</trkpt>
<trkpt lat="44.2739440" lon="14.7651760">
<ele>9.369000</ele>
<time>2024-04-12T13:04:45.192Z</time>
</trkpt>
<trkpt lat="44.2739640" lon="14.7652210">
<ele>9.488000</ele>
<time>2024-04-12T13:04:45.192Z</time>
</trkpt>
<trkpt lat="44.2739840" lon="14.7652650">
<ele>9.954000</ele>
<time>2024-04-12T13:04:45.192Z</time>
</trkpt>
<trkpt lat="44.2739950" lon="14.7653170">
<ele>10.249000</ele>
<time>2024-04-12T13:04:45.192Z</time>
</trkpt>
<trkpt lat="44.2740050" lon="14.7653690">
<ele>10.330000</ele>
<time>2024-04-12T13:04:45.192Z</time>
</trkpt>
<trkpt lat="44.2740160" lon="14.7654210">
<ele>10.517000</ele>
<time>2024-04-12T13:04:45.192Z</time>
</trkpt>
<trkpt lat="44.2740260" lon="14.7654730">
<ele>10.712000</ele>
<time>2024-04-12T13:04:45.192Z</time>
</trkpt>
<trkpt lat="44.2740410" lon="14.7655190">
<ele>10.855000</ele>
<time>2024-04-12T13:04:45.192Z</time>
</trkpt>
<trkpt lat="44.2740550" lon="14.7655650">
<ele>10.997000</ele>
<time>2024-04-12T13:04:45.192Z</time>
</trkpt>
<trkpt lat="44.2740850" lon="14.7656020">
<ele>11.258000</ele>
<time>2024-04-12T13:04:45.192Z</time>
</trkpt>
<trkpt lat="44.2741140" lon="14.7656390">
<ele>11.563000</ele>
<time>2024-04-12T13:04:45.192Z</time>
</trkpt>
<trkpt lat="44.2741490" lon="14.7656050">
<ele>11.780000</ele>
<time>2024-04-12T13:04:45.192Z</time>
</trkpt>
<trkpt lat="44.2741820" lon="14.7656340">
<ele>12.103999</ele>
<time>2024-04-12T13:04:45.192Z</time>
</trkpt>
<trkpt lat="44.2742140" lon="14.7656630">
<ele>12.470000</ele>
<time>2024-04-12T13:04:45.192Z</time>
</trkpt>
<trkpt lat="44.2742460" lon="14.7656930">
<ele>12.783000</ele>
<time>2024-04-12T13:04:45.192Z</time>
</trkpt>
<trkpt lat="44.2742780" lon="14.7657220">
<ele>13.072000</ele>
<time>2024-04-12T13:04:45.192Z</time>
</trkpt>
<trkpt lat="44.2743060" lon="14.7657410">
<ele>13.203000</ele>
<time>2024-04-12T13:04:45.192Z</time>
</trkpt>
<trkpt lat="44.2743330" lon="14.7657610">
<ele>13.302000</ele>
<time>2024-04-12T13:04:45.192Z</time>
</trkpt>
<trkpt lat="44.2743640" lon="14.7657170">
<ele>13.488000</ele>
<time>2024-04-12T13:04:45.192Z</time>
</trkpt>
<trkpt lat="44.2743940" lon="14.7656720">
<ele>13.841001</ele>
<time>2024-04-12T13:04:45.192Z</time>
</trkpt>
<trkpt lat="44.2744240" lon="14.7656280">
<ele>14.255000</ele>
<time>2024-04-12T13:04:45.192Z</time>
</trkpt>
<trkpt lat="44.2744540" lon="14.7655840">
<ele>14.421000</ele>
<time>2024-04-12T13:04:45.192Z</time>
</trkpt>
<trkpt lat="44.2744690" lon="14.7655310">
<ele>14.415000</ele>
<time>2024-04-12T13:04:45.192Z</time>
</trkpt>
<trkpt lat="44.2744840" lon="14.7654770">
<ele>14.397000</ele>
<time>2024-04-12T13:04:45.192Z</time>
</trkpt>
<trkpt lat="44.2744990" lon="14.7654240">
<ele>14.404000</ele>
<time>2024-04-12T13:04:45.192Z</time>
</trkpt>
<trkpt lat="44.2745200" lon="14.7653730">
<ele>14.281000</ele>
<time>2024-04-12T13:04:45.192Z</time>
</trkpt>
<trkpt lat="44.2745420" lon="14.7653210">
<ele>13.893000</ele>
<time>2024-04-12T13:04:45.192Z</time>
</trkpt>
<trkpt lat="44.2745630" lon="14.7652700">
<ele>13.915999</ele>
<time>2024-04-12T13:04:45.192Z</time>
</trkpt>
<trkpt lat="44.2745820" lon="14.7652240">
<ele>13.701000</ele>
<time>2024-04-12T13:04:45.192Z</time>
</trkpt>
<trkpt lat="44.2746010" lon="14.7651790">
<ele>13.605000</ele>
<time>2024-04-12T13:04:45.192Z</time>
</trkpt>
<trkpt lat="44.2746200" lon="14.7651340">
<ele>13.559000</ele>
<time>2024-04-12T13:04:45.192Z</time>
</trkpt>
<trkpt lat="44.2746390" lon="14.7650880">
<ele>13.476999</ele>
<time>2024-04-12T13:04:45.192Z</time>
</trkpt>
<trkpt lat="44.2746590" lon="14.7650340">
<ele>13.451000</ele>
<time>2024-04-12T13:04:45.192Z</time>
</trkpt>
<trkpt lat="44.2746780" lon="14.7649800">
<ele>13.381999</ele>
<time>2024-04-12T13:04:45.192Z</time>
</trkpt>
<trkpt lat="44.2746970" lon="14.7649250">
<ele>13.304000</ele>
<time>2024-04-12T13:04:45.192Z</time>
</trkpt>
<trkpt lat="44.2747170" lon="14.7648710">
<ele>13.201000</ele>
<time>2024-04-12T13:04:45.192Z</time>
</trkpt>
<trkpt lat="44.2747310" lon="14.7648180">
<ele>13.109000</ele>
<time>2024-04-12T13:04:45.192Z</time>
</trkpt>
<trkpt lat="44.2747450" lon="14.7647650">
<ele>13.054999</ele>
<time>2024-04-12T13:04:45.192Z</time>
</trkpt>
<trkpt lat="44.2747590" lon="14.7647120">
<ele>12.895000</ele>
<time>2024-04-12T13:04:45.192Z</time>
</trkpt>
<trkpt lat="44.2747730" lon="14.7646600">
<ele>12.761000</ele>
<time>2024-04-12T13:04:45.192Z</time>
</trkpt>
<trkpt lat="44.2747870" lon="14.7646070">
<ele>12.655000</ele>
<time>2024-04-12T13:04:45.192Z</time>
</trkpt>
<trkpt lat="44.2748050" lon="14.7645560">
<ele>12.511001</ele>
<time>2024-04-12T13:04:45.194Z</time>
</trkpt>
<trkpt lat="44.2748230" lon="14.7645050">
<ele>12.456000</ele>
<time>2024-04-12T13:04:45.194Z</time>
</trkpt>
<trkpt lat="44.2748420" lon="14.7644540">
<ele>12.630000</ele>
<time>2024-04-12T13:04:45.194Z</time>
</trkpt>
<trkpt lat="44.2748600" lon="14.7644020">
<ele>12.623000</ele>
<time>2024-04-12T13:04:45.194Z</time>
</trkpt>
<trkpt lat="44.2748720" lon="14.7643530">
<ele>12.573000</ele>
<time>2024-04-12T13:04:45.194Z</time>
</trkpt>
<trkpt lat="44.2748830" lon="14.7643040">
<ele>12.561999</ele>
<time>2024-04-12T13:04:45.194Z</time>
</trkpt>
<trkpt lat="44.2748950" lon="14.7642550">
<ele>12.476000</ele>
<time>2024-04-12T13:04:45.194Z</time>
</trkpt>
<trkpt lat="44.2749070" lon="14.7642060">
<ele>12.504999</ele>
<time>2024-04-12T13:04:45.194Z</time>
</trkpt>
<trkpt lat="44.2749190" lon="14.7641600">
<ele>12.356001</ele>
<time>2024-04-12T13:04:45.194Z</time>
</trkpt>
<trkpt lat="44.2749300" lon="14.7641150">
<ele>12.187000</ele>
<time>2024-04-12T13:04:45.194Z</time>
</trkpt>
<trkpt lat="44.2749420" lon="14.7640700">
<ele>11.984000</ele>
<time>2024-04-12T13:04:45.194Z</time>
</trkpt>
<trkpt lat="44.2749540" lon="14.7640250">
<ele>12.025000</ele>
<time>2024-04-12T13:04:45.194Z</time>
</trkpt>
<trkpt lat="44.2749710" lon="14.7639720">
<ele>11.958000</ele>
<time>2024-04-12T13:04:45.194Z</time>
</trkpt>
<trkpt lat="44.2749880" lon="14.7639180">
<ele>11.799999</ele>
<time>2024-04-12T13:04:45.194Z</time>
</trkpt>
<trkpt lat="44.2750050" lon="14.7638650">
<ele>11.830000</ele>
<time>2024-04-12T13:04:45.194Z</time>
</trkpt>
<trkpt lat="44.2750220" lon="14.7638110">
<ele>11.688001</ele>
<time>2024-04-12T13:04:45.194Z</time>
</trkpt>
<trkpt lat="44.2750400" lon="14.7637660">
<ele>11.709001</ele>
<time>2024-04-12T13:04:45.194Z</time>
</trkpt>
<trkpt lat="44.2750570" lon="14.7637210">
<ele>11.696000</ele>
<time>2024-04-12T13:04:45.194Z</time>
</trkpt>
<trkpt lat="44.2750740" lon="14.7636760">
<ele>11.592001</ele>
<time>2024-04-12T13:04:45.194Z</time>
</trkpt>
<trkpt lat="44.2750920" lon="14.7636310">
<ele>11.633000</ele>
<time>2024-04-12T13:04:45.194Z</time>
</trkpt>
<trkpt lat="44.2751090" lon="14.7635860">
<ele>11.575001</ele>
<time>2024-04-12T13:04:45.194Z</time>
</trkpt>
<trkpt lat="44.2751280" lon="14.7635350">
<ele>11.530000</ele>
<time>2024-04-12T13:04:45.194Z</time>
</trkpt>
<trkpt lat="44.2751470" lon="14.7634840">
<ele>11.519000</ele>
<time>2024-04-12T13:04:45.194Z</time>
</trkpt>
<trkpt lat="44.2751660" lon="14.7634330">
<ele>11.438999</ele>
<time>2024-04-12T13:04:45.194Z</time>
</trkpt>
<trkpt lat="44.2751850" lon="14.7633820">
<ele>11.421000</ele>
<time>2024-04-12T13:04:45.194Z</time>
</trkpt>
<trkpt lat="44.2752010" lon="14.7633250">
<ele>11.358999</ele>
<time>2024-04-12T13:04:45.194Z</time>
</trkpt>
<trkpt lat="44.2752160" lon="14.7632680">
<ele>11.278000</ele>
<time>2024-04-12T13:04:45.194Z</time>
</trkpt>
<trkpt lat="44.2752320" lon="14.7632120">
<ele>11.198000</ele>
<time>2024-04-12T13:04:45.194Z</time>
</trkpt>
<trkpt lat="44.2752480" lon="14.7631550">
<ele>11.067000</ele>
<time>2024-04-12T13:04:45.194Z</time>
</trkpt>
<trkpt lat="44.2752630" lon="14.7631080">
<ele>10.988000</ele>
<time>2024-04-12T13:04:45.194Z</time>
</trkpt>
<trkpt lat="44.2752780" lon="14.7630610">
<ele>10.853001</ele>
<time>2024-04-12T13:04:45.194Z</time>
</trkpt>
<trkpt lat="44.2752920" lon="14.7630140">
<ele>10.663000</ele>
<time>2024-04-12T13:04:45.194Z</time>
</trkpt>
<trkpt lat="44.2753070" lon="14.7629670">
<ele>10.567000</ele>
<time>2024-04-12T13:04:45.194Z</time>
</trkpt>
<trkpt lat="44.2753230" lon="14.7629110">
<ele>10.389999</ele>
<time>2024-04-12T13:04:45.194Z</time>
</trkpt>
<trkpt lat="44.2753390" lon="14.7628540">
<ele>10.164001</ele>
<time>2024-04-12T13:04:45.194Z</time>
</trkpt>
<trkpt lat="44.2753540" lon="14.7627970">
<ele>10.011001</ele>
<time>2024-04-12T13:04:45.194Z</time>
</trkpt>
<trkpt lat="44.2753580" lon="14.7627480">
<ele>9.897000</ele>
<time>2024-04-12T13:04:45.194Z</time>
</trkpt>
<trkpt lat="44.2753610" lon="14.7627000">
<ele>9.531000</ele>
<time>2024-04-12T13:04:45.194Z</time>
</trkpt>
<trkpt lat="44.2753640" lon="14.7626510">
<ele>9.202000</ele>
<time>2024-04-12T13:04:45.194Z</time>
</trkpt>
<trkpt lat="44.2753690" lon="14.7625970">
<ele>8.858000</ele>
<time>2024-04-12T13:04:45.194Z</time>
</trkpt>
<trkpt lat="44.2753730" lon="14.7625430">
<ele>8.497000</ele>
<time>2024-04-12T13:04:45.194Z</time>
</trkpt>
<trkpt lat="44.2753770" lon="14.7624890">
<ele>8.120000</ele>
<time>2024-04-12T13:04:45.194Z</time>
</trkpt>
<trkpt lat="44.2753820" lon="14.7624360">
<ele>7.741000</ele>
<time>2024-04-12T13:04:45.194Z</time>
</trkpt>
<trkpt lat="44.2753860" lon="14.7623820">
<ele>7.538000</ele>
<time>2024-04-12T13:04:45.194Z</time>
</trkpt>
<trkpt lat="44.2753930" lon="14.7623220">
<ele>7.279000</ele>
<time>2024-04-12T13:04:45.194Z</time>
</trkpt>
<trkpt lat="44.2753990" lon="14.7622620">
<ele>6.900000</ele>
<time>2024-04-12T13:04:45.194Z</time>
</trkpt>
<trkpt lat="44.2754100" lon="14.7622170">
<ele>6.637000</ele>
<time>2024-04-12T13:04:45.194Z</time>
</trkpt>
<trkpt lat="44.2754210" lon="14.7621720">
<ele>6.497000</ele>
<time>2024-04-12T13:04:45.194Z</time>
</trkpt>
<trkpt lat="44.2754450" lon="14.7621250">
<ele>6.236000</ele>
<time>2024-04-12T13:04:45.194Z</time>
</trkpt>
<trkpt lat="44.2754690" lon="14.7620780">
<ele>6.114000</ele>
<time>2024-04-12T13:04:45.194Z</time>
</trkpt>
<trkpt lat="44.2754930" lon="14.7620310">
<ele>5.948000</ele>
<time>2024-04-12T13:04:45.194Z</time>
</trkpt>
<trkpt lat="44.2755200" lon="14.7619920">
<ele>5.861000</ele>
<time>2024-04-12T13:04:45.194Z</time>
</trkpt>
<trkpt lat="44.2755460" lon="14.7619540">
<ele>5.936000</ele>
<time>2024-04-12T13:04:45.194Z</time>
</trkpt>
<trkpt lat="44.2755730" lon="14.7619160">
<ele>5.842000</ele>
<time>2024-04-12T13:04:45.194Z</time>
</trkpt>
<trkpt lat="44.2756000" lon="14.7618780">
<ele>5.560000</ele>
<time>2024-04-12T13:04:45.194Z</time>
</trkpt>
<trkpt lat="44.2756330" lon="14.7618530">
<ele>5.216000</ele>
<time>2024-04-12T13:04:45.194Z</time>
</trkpt>
<trkpt lat="44.2756650" lon="14.7618290">
<ele>4.796000</ele>
<time>2024-04-12T13:04:45.194Z</time>
</trkpt>
<trkpt lat="44.2756980" lon="14.7618040">
<ele>4.583000</ele>
<time>2024-04-12T13:04:45.194Z</time>
</trkpt>
<trkpt lat="44.2757300" lon="14.7617790">
<ele>4.394000</ele>
<time>2024-04-12T13:04:45.194Z</time>
</trkpt>
<trkpt lat="44.2757630" lon="14.7617540">
<ele>4.245000</ele>
<time>2024-04-12T13:04:45.194Z</time>
</trkpt>
<trkpt lat="44.2757930" lon="14.7617280">
<ele>4.082000</ele>
<time>2024-04-12T13:04:45.194Z</time>
</trkpt>
<trkpt lat="44.2758240" lon="14.7617010">
<ele>3.876000</ele>
<time>2024-04-12T13:04:45.194Z</time>
</trkpt>
<trkpt lat="44.2758540" lon="14.7616750">
<ele>3.593000</ele>
<time>2024-04-12T13:04:45.194Z</time>
</trkpt>
<trkpt lat="44.2758810" lon="14.7616440">
<ele>3.192000</ele>
<time>2024-04-12T13:04:45.194Z</time>
</trkpt>
<trkpt lat="44.2759080" lon="14.7616120">
<ele>2.891000</ele>
<time>2024-04-12T13:04:45.194Z</time>
</trkpt>
<trkpt lat="44.2759350" lon="14.7615810">
<ele>2.496000</ele>
<time>2024-04-12T13:04:45.194Z</time>
</trkpt>
<trkpt lat="44.2759620" lon="14.7615490">
<ele>2.337000</ele>
<time>2024-04-12T13:04:45.194Z</time>
</trkpt>
<trkpt lat="44.2759940" lon="14.7615150">
<ele>1.973000</ele>
<time>2024-04-12T13:04:45.194Z</time>
</trkpt>
<trkpt lat="44.2760260" lon="14.7614810">
<ele>1.819000</ele>
<time>2024-04-12T13:04:45.194Z</time>
</trkpt>
<trkpt lat="44.2760580" lon="14.7614470">
<ele>1.615000</ele>
<time>2024-04-12T13:04:45.194Z</time>
</trkpt>
<trkpt lat="44.2760690" lon="14.7613950">
<ele>1.340000</ele>
<time>2024-04-12T13:04:45.194Z</time>
</trkpt>
<trkpt lat="44.2760800" lon="14.7613440">
<ele>1.130000</ele>
<time>2024-04-12T13:04:45.194Z</time>
</trkpt>
<trkpt lat="44.2760710" lon="14.7613060">
<ele>1.399000</ele>
<time>2024-04-12T13:04:45.194Z</time>
</trkpt>
<trkpt lat="44.2760620" lon="14.7612680">
<ele>1.393000</ele>
<time>2024-04-12T13:04:45.194Z</time>
</trkpt>
<trkpt lat="44.2760370" lon="14.7612340">
<ele>1.022000</ele>
<time>2024-04-12T13:04:45.194Z</time>
</trkpt>
<trkpt lat="44.2760110" lon="14.7612000">
<ele>0.982000</ele>
<time>2024-04-12T13:04:45.194Z</time>
</trkpt>
<trkpt lat="44.2759980" lon="14.7611620">
<ele>0.959000</ele>
<time>2024-04-12T13:04:45.194Z</time>
</trkpt>
<trkpt lat="44.2759840" lon="14.7611240">
<ele>0.900000</ele>
<time>2024-04-12T13:04:45.194Z</time>
</trkpt>
<trkpt lat="44.2760050" lon="14.7610770">
<ele>0.686000</ele>
<time>2024-04-12T13:04:45.194Z</time>
</trkpt>
<trkpt lat="44.2760350" lon="14.7610500">
<ele>0.464000</ele>
<time>2024-04-12T13:04:45.194Z</time>
</trkpt>
</trkseg>
</trk>
</gpx>
